<?xml version="1.0" encoding="UTF-8" standalone="no" ?>
<gpx xmlns="http://www.topografix.com/GPX/1/1" xmlns:xsi="http://www.w3.org/2001/XMLSchema-instance" xsi:schemaLocation="http://www.topografix.com/GPX/1/1 http://www.topografix.com/GPX/1/1/gpx.xsd" version="1.1" creator="VisuGPX - https://www.visugpx.com">
  <metadata>
    <name>GRP Tour de la Planèze J3 : Cordesse Paulhac</name>
    <desc><![CDATA[File with points/tracks from Locus Free/3.8.2]]></desc>
  </metadata>
  <trk>
    <name><![CDATA[Cordesse Paulhac]]></name>
    <desc><![CDATA[7h:05m:48s | 26.9 km]]></desc>
    <trkseg>
      <trkpt lat="44.92789" lon="2.99719">
        <ele>1003.5</ele>
        <time>2015-04-28T06:33:17Z</time>
      </trkpt>
      <trkpt lat="44.92806" lon="2.99717">
        <ele>989.56</ele>
        <time>2015-04-28T06:33:28Z</time>
      </trkpt>
      <trkpt lat="44.92802" lon="2.99707">
        <ele>993.74</ele>
        <time>2015-04-28T06:33:38Z</time>
      </trkpt>
      <trkpt lat="44.92794" lon="2.99694">
        <ele>996.07</ele>
        <time>2015-04-28T06:33:48Z</time>
      </trkpt>
      <trkpt lat="44.92785" lon="2.99682">
        <ele>1002.5</ele>
        <time>2015-04-28T06:33:58Z</time>
      </trkpt>
      <trkpt lat="44.9278" lon="2.9968">
        <ele>1005.73</ele>
        <time>2015-04-28T06:34:08Z</time>
      </trkpt>
      <trkpt lat="44.92775" lon="2.99675">
        <ele>1004.43</ele>
        <time>2015-04-28T06:34:18Z</time>
      </trkpt>
      <trkpt lat="44.92765" lon="2.9966">
        <ele>1003.02</ele>
        <time>2015-04-28T06:34:28Z</time>
      </trkpt>
      <trkpt lat="44.92747" lon="2.99643">
        <ele>1003.62</ele>
        <time>2015-04-28T06:34:38Z</time>
      </trkpt>
      <trkpt lat="44.92734" lon="2.9963">
        <ele>1004.68</ele>
        <time>2015-04-28T06:34:48Z</time>
      </trkpt>
      <trkpt lat="44.92722" lon="2.99616">
        <ele>1004.02</ele>
        <time>2015-04-28T06:34:58Z</time>
      </trkpt>
      <trkpt lat="44.92721" lon="2.99602">
        <ele>1005.42</ele>
        <time>2015-04-28T06:35:08Z</time>
      </trkpt>
      <trkpt lat="44.9272" lon="2.99584">
        <ele>1002.75</ele>
        <time>2015-04-28T06:35:18Z</time>
      </trkpt>
      <trkpt lat="44.92718" lon="2.99564">
        <ele>1011.66</ele>
        <time>2015-04-28T06:35:28Z</time>
      </trkpt>
      <trkpt lat="44.92717" lon="2.99544">
        <ele>1017.5</ele>
        <time>2015-04-28T06:35:38Z</time>
      </trkpt>
      <trkpt lat="44.92718" lon="2.99524">
        <ele>1018.73</ele>
        <time>2015-04-28T06:35:48Z</time>
      </trkpt>
      <trkpt lat="44.92719" lon="2.99505">
        <ele>1018.23</ele>
        <time>2015-04-28T06:35:58Z</time>
      </trkpt>
      <trkpt lat="44.92719" lon="2.99486">
        <ele>1016.31</ele>
        <time>2015-04-28T06:36:08Z</time>
      </trkpt>
      <trkpt lat="44.92718" lon="2.99468">
        <ele>1013.75</ele>
        <time>2015-04-28T06:36:18Z</time>
      </trkpt>
      <trkpt lat="44.92716" lon="2.99449">
        <ele>1004.94</ele>
        <time>2015-04-28T06:36:28Z</time>
      </trkpt>
      <trkpt lat="44.92717" lon="2.9943">
        <ele>1004.05</ele>
        <time>2015-04-28T06:36:38Z</time>
      </trkpt>
      <trkpt lat="44.92719" lon="2.99413">
        <ele>1004.31</ele>
        <time>2015-04-28T06:36:48Z</time>
      </trkpt>
      <trkpt lat="44.9272" lon="2.99396">
        <ele>1003.08</ele>
        <time>2015-04-28T06:36:58Z</time>
      </trkpt>
      <trkpt lat="44.92721" lon="2.99379">
        <ele>1000.31</ele>
        <time>2015-04-28T06:37:08Z</time>
      </trkpt>
      <trkpt lat="44.9272" lon="2.99361">
        <ele>999.02</ele>
        <time>2015-04-28T06:37:18Z</time>
      </trkpt>
      <trkpt lat="44.92721" lon="2.99344">
        <ele>999.94</ele>
        <time>2015-04-28T06:37:28Z</time>
      </trkpt>
      <trkpt lat="44.92721" lon="2.99325">
        <ele>999.92</ele>
        <time>2015-04-28T06:37:38Z</time>
      </trkpt>
      <trkpt lat="44.92726" lon="2.99262">
        <ele>1002.02</ele>
        <time>2015-04-28T06:38:16Z</time>
      </trkpt>
      <trkpt lat="44.92721" lon="2.99244">
        <ele>992.42</ele>
        <time>2015-04-28T06:38:26Z</time>
      </trkpt>
      <trkpt lat="44.92722" lon="2.99232">
        <ele>992.85</ele>
        <time>2015-04-28T06:38:36Z</time>
      </trkpt>
      <trkpt lat="44.9272" lon="2.99214">
        <ele>992.12</ele>
        <time>2015-04-28T06:38:46Z</time>
      </trkpt>
      <trkpt lat="44.9272" lon="2.99198">
        <ele>984.44</ele>
        <time>2015-04-28T06:38:56Z</time>
      </trkpt>
      <trkpt lat="44.92722" lon="2.99185">
        <ele>981.94</ele>
        <time>2015-04-28T06:39:06Z</time>
      </trkpt>
      <trkpt lat="44.92722" lon="2.99169">
        <ele>981.06</ele>
        <time>2015-04-28T06:39:16Z</time>
      </trkpt>
      <trkpt lat="44.92722" lon="2.99152">
        <ele>980</ele>
        <time>2015-04-28T06:39:26Z</time>
      </trkpt>
      <trkpt lat="44.92723" lon="2.99136">
        <ele>976.82</ele>
        <time>2015-04-28T06:39:36Z</time>
      </trkpt>
      <trkpt lat="44.92724" lon="2.99124">
        <ele>977.02</ele>
        <time>2015-04-28T06:39:46Z</time>
      </trkpt>
      <trkpt lat="44.92722" lon="2.99109">
        <ele>974.01</ele>
        <time>2015-04-28T06:39:56Z</time>
      </trkpt>
      <trkpt lat="44.9272" lon="2.99092">
        <ele>972.02</ele>
        <time>2015-04-28T06:40:06Z</time>
      </trkpt>
      <trkpt lat="44.9272" lon="2.99076">
        <ele>969.07</ele>
        <time>2015-04-28T06:40:16Z</time>
      </trkpt>
      <trkpt lat="44.92721" lon="2.99061">
        <ele>966.08</ele>
        <time>2015-04-28T06:40:26Z</time>
      </trkpt>
      <trkpt lat="44.92721" lon="2.99046">
        <ele>966.94</ele>
        <time>2015-04-28T06:40:36Z</time>
      </trkpt>
      <trkpt lat="44.92721" lon="2.9903">
        <ele>966.83</ele>
        <time>2015-04-28T06:40:46Z</time>
      </trkpt>
      <trkpt lat="44.92722" lon="2.99016">
        <ele>963.23</ele>
        <time>2015-04-28T06:40:56Z</time>
      </trkpt>
      <trkpt lat="44.92722" lon="2.98996">
        <ele>961.8</ele>
        <time>2015-04-28T06:41:06Z</time>
      </trkpt>
      <trkpt lat="44.92726" lon="2.98977">
        <ele>960.05</ele>
        <time>2015-04-28T06:41:16Z</time>
      </trkpt>
      <trkpt lat="44.92732" lon="2.98966">
        <ele>962.75</ele>
        <time>2015-04-28T06:41:26Z</time>
      </trkpt>
      <trkpt lat="44.92736" lon="2.98953">
        <ele>964.95</ele>
        <time>2015-04-28T06:41:36Z</time>
      </trkpt>
      <trkpt lat="44.92741" lon="2.98936">
        <ele>965.17</ele>
        <time>2015-04-28T06:41:46Z</time>
      </trkpt>
      <trkpt lat="44.92744" lon="2.98919">
        <ele>963.25</ele>
        <time>2015-04-28T06:41:56Z</time>
      </trkpt>
      <trkpt lat="44.92748" lon="2.98903">
        <ele>960.77</ele>
        <time>2015-04-28T06:42:06Z</time>
      </trkpt>
      <trkpt lat="44.92754" lon="2.98888">
        <ele>961.94</ele>
        <time>2015-04-28T06:42:16Z</time>
      </trkpt>
      <trkpt lat="44.92756" lon="2.98874">
        <ele>963</ele>
        <time>2015-04-28T06:42:26Z</time>
      </trkpt>
      <trkpt lat="44.92755" lon="2.98872">
        <ele>961</ele>
        <time>2015-04-28T06:42:36Z</time>
      </trkpt>
      <trkpt lat="44.92757" lon="2.98867">
        <ele>960.25</ele>
        <time>2015-04-28T06:43:18Z</time>
      </trkpt>
      <trkpt lat="44.92767" lon="2.98842">
        <ele>963.75</ele>
        <time>2015-04-28T06:43:28Z</time>
      </trkpt>
      <trkpt lat="44.92772" lon="2.98825">
        <ele>960.32</ele>
        <time>2015-04-28T06:43:38Z</time>
      </trkpt>
      <trkpt lat="44.92776" lon="2.9881">
        <ele>961.07</ele>
        <time>2015-04-28T06:43:48Z</time>
      </trkpt>
      <trkpt lat="44.92781" lon="2.98797">
        <ele>960.12</ele>
        <time>2015-04-28T06:43:58Z</time>
      </trkpt>
      <trkpt lat="44.92779" lon="2.98797">
        <ele>959</ele>
        <time>2015-04-28T06:44:08Z</time>
      </trkpt>
      <trkpt lat="44.92779" lon="2.98795">
        <ele>959.75</ele>
        <time>2015-04-28T06:44:21Z</time>
      </trkpt>
      <trkpt lat="44.92781" lon="2.98781">
        <ele>956.95</ele>
        <time>2015-04-28T06:44:31Z</time>
      </trkpt>
      <trkpt lat="44.92783" lon="2.98775">
        <ele>957.25</ele>
        <time>2015-04-28T06:44:41Z</time>
      </trkpt>
      <trkpt lat="44.92775" lon="2.98728">
        <ele>953.99</ele>
        <time>2015-04-28T06:44:51Z</time>
      </trkpt>
      <trkpt lat="44.92782" lon="2.98747">
        <ele>957.28</ele>
        <time>2015-04-28T06:45:01Z</time>
      </trkpt>
      <trkpt lat="44.92795" lon="2.98743">
        <ele>966.24</ele>
        <time>2015-04-28T06:45:11Z</time>
      </trkpt>
      <trkpt lat="44.92806" lon="2.98731">
        <ele>970.92</ele>
        <time>2015-04-28T06:45:21Z</time>
      </trkpt>
      <trkpt lat="44.92815" lon="2.98721">
        <ele>970.98</ele>
        <time>2015-04-28T06:45:31Z</time>
      </trkpt>
      <trkpt lat="44.92826" lon="2.98722">
        <ele>970.02</ele>
        <time>2015-04-28T06:45:41Z</time>
      </trkpt>
      <trkpt lat="44.92827" lon="2.98703">
        <ele>971</ele>
        <time>2015-04-28T06:45:51Z</time>
      </trkpt>
      <trkpt lat="44.92833" lon="2.98701">
        <ele>972.75</ele>
        <time>2015-04-28T06:46:01Z</time>
      </trkpt>
      <trkpt lat="44.92841" lon="2.98691">
        <ele>976.96</ele>
        <time>2015-04-28T06:46:11Z</time>
      </trkpt>
      <trkpt lat="44.92846" lon="2.98682">
        <ele>978.75</ele>
        <time>2015-04-28T06:46:21Z</time>
      </trkpt>
      <trkpt lat="44.9285" lon="2.98662">
        <ele>981.87</ele>
        <time>2015-04-28T06:46:31Z</time>
      </trkpt>
      <trkpt lat="44.92851" lon="2.98638">
        <ele>981</ele>
        <time>2015-04-28T06:46:41Z</time>
      </trkpt>
      <trkpt lat="44.92853" lon="2.98624">
        <ele>981</ele>
        <time>2015-04-28T06:46:51Z</time>
      </trkpt>
      <trkpt lat="44.92857" lon="2.9861">
        <ele>981.98</ele>
        <time>2015-04-28T06:47:01Z</time>
      </trkpt>
      <trkpt lat="44.92862" lon="2.98596">
        <ele>983.99</ele>
        <time>2015-04-28T06:47:11Z</time>
      </trkpt>
      <trkpt lat="44.92868" lon="2.98578">
        <ele>984.74</ele>
        <time>2015-04-28T06:47:21Z</time>
      </trkpt>
      <trkpt lat="44.92873" lon="2.98558">
        <ele>987.25</ele>
        <time>2015-04-28T06:47:31Z</time>
      </trkpt>
      <trkpt lat="44.92877" lon="2.9854">
        <ele>986.79</ele>
        <time>2015-04-28T06:47:41Z</time>
      </trkpt>
      <trkpt lat="44.92873" lon="2.98498">
        <ele>989.24</ele>
        <time>2015-04-28T06:48:18Z</time>
      </trkpt>
      <trkpt lat="44.92864" lon="2.98509">
        <ele>985</ele>
        <time>2015-04-28T06:48:28Z</time>
      </trkpt>
      <trkpt lat="44.92855" lon="2.98516">
        <ele>984</ele>
        <time>2015-04-28T06:48:38Z</time>
      </trkpt>
      <trkpt lat="44.92843" lon="2.98515">
        <ele>985.23</ele>
        <time>2015-04-28T06:48:48Z</time>
      </trkpt>
      <trkpt lat="44.92833" lon="2.98517">
        <ele>976.84</ele>
        <time>2015-04-28T06:48:58Z</time>
      </trkpt>
      <trkpt lat="44.92823" lon="2.98512">
        <ele>979.42</ele>
        <time>2015-04-28T06:49:08Z</time>
      </trkpt>
      <trkpt lat="44.92814" lon="2.98497">
        <ele>991.1</ele>
        <time>2015-04-28T06:49:18Z</time>
      </trkpt>
      <trkpt lat="44.92806" lon="2.98491">
        <ele>989.25</ele>
        <time>2015-04-28T06:49:28Z</time>
      </trkpt>
      <trkpt lat="44.92797" lon="2.98474">
        <ele>992.94</ele>
        <time>2015-04-28T06:49:38Z</time>
      </trkpt>
      <trkpt lat="44.92794" lon="2.98463">
        <ele>996</ele>
        <time>2015-04-28T06:49:48Z</time>
      </trkpt>
      <trkpt lat="44.92796" lon="2.98454">
        <ele>998.06</ele>
        <time>2015-04-28T06:49:58Z</time>
      </trkpt>
      <trkpt lat="44.928" lon="2.98438">
        <ele>999.25</ele>
        <time>2015-04-28T06:50:08Z</time>
      </trkpt>
      <trkpt lat="44.92806" lon="2.98432">
        <ele>995.32</ele>
        <time>2015-04-28T06:50:18Z</time>
      </trkpt>
      <trkpt lat="44.92808" lon="2.98413">
        <ele>997.98</ele>
        <time>2015-04-28T06:50:28Z</time>
      </trkpt>
      <trkpt lat="44.92809" lon="2.98397">
        <ele>997.66</ele>
        <time>2015-04-28T06:50:38Z</time>
      </trkpt>
      <trkpt lat="44.9281" lon="2.98388">
        <ele>994.33</ele>
        <time>2015-04-28T06:50:42Z</time>
      </trkpt>
      <trkpt lat="44.92792" lon="2.98354">
        <ele>986</ele>
        <time>2015-04-28T06:55:47Z</time>
      </trkpt>
      <trkpt lat="44.928" lon="2.98315">
        <ele>996.5</ele>
        <time>2015-04-28T06:56:15Z</time>
      </trkpt>
      <trkpt lat="44.92804" lon="2.98303">
        <ele>1012.37</ele>
        <time>2015-04-28T06:56:25Z</time>
      </trkpt>
      <trkpt lat="44.92804" lon="2.98302">
        <ele>1010.98</ele>
        <time>2015-04-28T06:56:35Z</time>
      </trkpt>
      <trkpt lat="44.92804" lon="2.983">
        <ele>1007.62</ele>
        <time>2015-04-28T06:57:36Z</time>
      </trkpt>
      <trkpt lat="44.92802" lon="2.98298">
        <ele>1004.25</ele>
        <time>2015-04-28T06:57:46Z</time>
      </trkpt>
      <trkpt lat="44.92801" lon="2.98298">
        <ele>1005</ele>
        <time>2015-04-28T06:57:56Z</time>
      </trkpt>
      <trkpt lat="44.928" lon="2.98297">
        <ele>1003.06</ele>
        <time>2015-04-28T06:58:19Z</time>
      </trkpt>
      <trkpt lat="44.928" lon="2.98293">
        <ele>1005.5</ele>
        <time>2015-04-28T06:58:35Z</time>
      </trkpt>
      <trkpt lat="44.92802" lon="2.98281">
        <ele>1009.31</ele>
        <time>2015-04-28T06:58:45Z</time>
      </trkpt>
      <trkpt lat="44.928" lon="2.98276">
        <ele>1004</ele>
        <time>2015-04-28T06:58:55Z</time>
      </trkpt>
      <trkpt lat="44.928" lon="2.98272">
        <ele>1006</ele>
        <time>2015-04-28T06:59:05Z</time>
      </trkpt>
      <trkpt lat="44.92797" lon="2.98268">
        <ele>1002.25</ele>
        <time>2015-04-28T06:59:15Z</time>
      </trkpt>
      <trkpt lat="44.92793" lon="2.98258">
        <ele>1000.5</ele>
        <time>2015-04-28T06:59:25Z</time>
      </trkpt>
      <trkpt lat="44.92793" lon="2.98257">
        <ele>1000</ele>
        <time>2015-04-28T06:59:35Z</time>
      </trkpt>
      <trkpt lat="44.92793" lon="2.98249">
        <ele>1000.82</ele>
        <time>2015-04-28T06:59:45Z</time>
      </trkpt>
      <trkpt lat="44.92791" lon="2.98234">
        <ele>1004.17</ele>
        <time>2015-04-28T06:59:55Z</time>
      </trkpt>
      <trkpt lat="44.92786" lon="2.9822">
        <ele>1001.02</ele>
        <time>2015-04-28T07:00:05Z</time>
      </trkpt>
      <trkpt lat="44.92785" lon="2.98201">
        <ele>997.97</ele>
        <time>2015-04-28T07:00:15Z</time>
      </trkpt>
      <trkpt lat="44.92776" lon="2.98183">
        <ele>999.24</ele>
        <time>2015-04-28T07:00:25Z</time>
      </trkpt>
      <trkpt lat="44.92768" lon="2.98162">
        <ele>996.07</ele>
        <time>2015-04-28T07:00:35Z</time>
      </trkpt>
      <trkpt lat="44.92778" lon="2.9812">
        <ele>993.72</ele>
        <time>2015-04-28T07:01:20Z</time>
      </trkpt>
      <trkpt lat="44.92762" lon="2.98139">
        <ele>987.76</ele>
        <time>2015-04-28T07:01:30Z</time>
      </trkpt>
      <trkpt lat="44.9276" lon="2.98144">
        <ele>983.01</ele>
        <time>2015-04-28T07:01:40Z</time>
      </trkpt>
      <trkpt lat="44.92751" lon="2.98152">
        <ele>983.27</ele>
        <time>2015-04-28T07:01:50Z</time>
      </trkpt>
      <trkpt lat="44.9274" lon="2.98152">
        <ele>980.97</ele>
        <time>2015-04-28T07:02:00Z</time>
      </trkpt>
      <trkpt lat="44.92728" lon="2.98155">
        <ele>980.07</ele>
        <time>2015-04-28T07:02:10Z</time>
      </trkpt>
      <trkpt lat="44.92716" lon="2.9815">
        <ele>975.32</ele>
        <time>2015-04-28T07:02:20Z</time>
      </trkpt>
      <trkpt lat="44.92703" lon="2.98142">
        <ele>978.15</ele>
        <time>2015-04-28T07:02:30Z</time>
      </trkpt>
      <trkpt lat="44.92696" lon="2.98129">
        <ele>979.95</ele>
        <time>2015-04-28T07:02:40Z</time>
      </trkpt>
      <trkpt lat="44.92692" lon="2.98112">
        <ele>983.98</ele>
        <time>2015-04-28T07:02:50Z</time>
      </trkpt>
      <trkpt lat="44.92686" lon="2.98096">
        <ele>987.04</ele>
        <time>2015-04-28T07:03:00Z</time>
      </trkpt>
      <trkpt lat="44.92679" lon="2.98083">
        <ele>982.09</ele>
        <time>2015-04-28T07:03:10Z</time>
      </trkpt>
      <trkpt lat="44.9267" lon="2.98078">
        <ele>976.08</ele>
        <time>2015-04-28T07:03:20Z</time>
      </trkpt>
      <trkpt lat="44.92658" lon="2.98079">
        <ele>977.23</ele>
        <time>2015-04-28T07:03:30Z</time>
      </trkpt>
      <trkpt lat="44.92642" lon="2.98079">
        <ele>977</ele>
        <time>2015-04-28T07:03:40Z</time>
      </trkpt>
      <trkpt lat="44.92637" lon="2.9807">
        <ele>977.27</ele>
        <time>2015-04-28T07:03:50Z</time>
      </trkpt>
      <trkpt lat="44.92629" lon="2.98065">
        <ele>974.95</ele>
        <time>2015-04-28T07:04:00Z</time>
      </trkpt>
      <trkpt lat="44.92617" lon="2.98057">
        <ele>974.13</ele>
        <time>2015-04-28T07:04:10Z</time>
      </trkpt>
      <trkpt lat="44.92606" lon="2.9805">
        <ele>971.77</ele>
        <time>2015-04-28T07:04:20Z</time>
      </trkpt>
      <trkpt lat="44.92596" lon="2.98043">
        <ele>971.58</ele>
        <time>2015-04-28T07:04:30Z</time>
      </trkpt>
      <trkpt lat="44.92585" lon="2.98038">
        <ele>978.62</ele>
        <time>2015-04-28T07:04:40Z</time>
      </trkpt>
      <trkpt lat="44.92578" lon="2.98026">
        <ele>979.75</ele>
        <time>2015-04-28T07:04:50Z</time>
      </trkpt>
      <trkpt lat="44.92567" lon="2.98023">
        <ele>976.02</ele>
        <time>2015-04-28T07:05:00Z</time>
      </trkpt>
      <trkpt lat="44.92554" lon="2.98018">
        <ele>980.24</ele>
        <time>2015-04-28T07:05:10Z</time>
      </trkpt>
      <trkpt lat="44.92545" lon="2.9801">
        <ele>986.24</ele>
        <time>2015-04-28T07:05:20Z</time>
      </trkpt>
      <trkpt lat="44.92537" lon="2.98006">
        <ele>987.74</ele>
        <time>2015-04-28T07:05:30Z</time>
      </trkpt>
      <trkpt lat="44.92527" lon="2.97998">
        <ele>987.99</ele>
        <time>2015-04-28T07:05:40Z</time>
      </trkpt>
      <trkpt lat="44.92475" lon="2.97974">
        <ele>998.51</ele>
        <time>2015-04-28T07:06:15Z</time>
      </trkpt>
      <trkpt lat="44.92482" lon="2.97972">
        <ele>1008.01</ele>
        <time>2015-04-28T07:06:25Z</time>
      </trkpt>
      <trkpt lat="44.92475" lon="2.97969">
        <ele>1000.54</ele>
        <time>2015-04-28T07:06:35Z</time>
      </trkpt>
      <trkpt lat="44.92468" lon="2.97962">
        <ele>999.25</ele>
        <time>2015-04-28T07:06:45Z</time>
      </trkpt>
      <trkpt lat="44.9246" lon="2.9796">
        <ele>994.3</ele>
        <time>2015-04-28T07:06:55Z</time>
      </trkpt>
      <trkpt lat="44.92453" lon="2.9796">
        <ele>992.29</ele>
        <time>2015-04-28T07:07:05Z</time>
      </trkpt>
      <trkpt lat="44.92446" lon="2.97959">
        <ele>988.76</ele>
        <time>2015-04-28T07:07:15Z</time>
      </trkpt>
      <trkpt lat="44.92436" lon="2.97954">
        <ele>988.02</ele>
        <time>2015-04-28T07:07:25Z</time>
      </trkpt>
      <trkpt lat="44.92427" lon="2.97949">
        <ele>989</ele>
        <time>2015-04-28T07:07:35Z</time>
      </trkpt>
      <trkpt lat="44.92418" lon="2.9794">
        <ele>992.93</ele>
        <time>2015-04-28T07:07:45Z</time>
      </trkpt>
      <trkpt lat="44.92409" lon="2.97931">
        <ele>1000.67</ele>
        <time>2015-04-28T07:07:55Z</time>
      </trkpt>
      <trkpt lat="44.924" lon="2.97924">
        <ele>1002.25</ele>
        <time>2015-04-28T07:08:05Z</time>
      </trkpt>
      <trkpt lat="44.9239" lon="2.97919">
        <ele>1001.32</ele>
        <time>2015-04-28T07:08:15Z</time>
      </trkpt>
      <trkpt lat="44.92381" lon="2.97917">
        <ele>1002.03</ele>
        <time>2015-04-28T07:08:25Z</time>
      </trkpt>
      <trkpt lat="44.92368" lon="2.97918">
        <ele>999.01</ele>
        <time>2015-04-28T07:08:35Z</time>
      </trkpt>
      <trkpt lat="44.92359" lon="2.97914">
        <ele>1003.93</ele>
        <time>2015-04-28T07:08:45Z</time>
      </trkpt>
      <trkpt lat="44.9235" lon="2.97907">
        <ele>1011.89</ele>
        <time>2015-04-28T07:08:55Z</time>
      </trkpt>
      <trkpt lat="44.9234" lon="2.979">
        <ele>1019</ele>
        <time>2015-04-28T07:09:05Z</time>
      </trkpt>
      <trkpt lat="44.92331" lon="2.97896">
        <ele>1020.02</ele>
        <time>2015-04-28T07:09:15Z</time>
      </trkpt>
      <trkpt lat="44.92321" lon="2.97891">
        <ele>1023.37</ele>
        <time>2015-04-28T07:09:25Z</time>
      </trkpt>
      <trkpt lat="44.92314" lon="2.97888">
        <ele>1023.3</ele>
        <time>2015-04-28T07:09:35Z</time>
      </trkpt>
      <trkpt lat="44.92309" lon="2.97886">
        <ele>1026.15</ele>
        <time>2015-04-28T07:09:45Z</time>
      </trkpt>
      <trkpt lat="44.92299" lon="2.97884">
        <ele>1026.25</ele>
        <time>2015-04-28T07:09:55Z</time>
      </trkpt>
      <trkpt lat="44.9229" lon="2.97883">
        <ele>1025.27</ele>
        <time>2015-04-28T07:10:05Z</time>
      </trkpt>
      <trkpt lat="44.92285" lon="2.97874">
        <ele>1025.89</ele>
        <time>2015-04-28T07:10:15Z</time>
      </trkpt>
      <trkpt lat="44.92275" lon="2.97875">
        <ele>1026.06</ele>
        <time>2015-04-28T07:10:25Z</time>
      </trkpt>
      <trkpt lat="44.92265" lon="2.97872">
        <ele>1023.83</ele>
        <time>2015-04-28T07:10:35Z</time>
      </trkpt>
      <trkpt lat="44.92226" lon="2.97884">
        <ele>1037.25</ele>
        <time>2015-04-28T07:11:16Z</time>
      </trkpt>
      <trkpt lat="44.92212" lon="2.97882">
        <ele>1043.75</ele>
        <time>2015-04-28T07:11:26Z</time>
      </trkpt>
      <trkpt lat="44.922" lon="2.97874">
        <ele>1041</ele>
        <time>2015-04-28T07:11:36Z</time>
      </trkpt>
      <trkpt lat="44.92193" lon="2.97872">
        <ele>1042.74</ele>
        <time>2015-04-28T07:11:46Z</time>
      </trkpt>
      <trkpt lat="44.92188" lon="2.97866">
        <ele>1042.06</ele>
        <time>2015-04-28T07:11:56Z</time>
      </trkpt>
      <trkpt lat="44.92182" lon="2.9786">
        <ele>1040.7</ele>
        <time>2015-04-28T07:12:06Z</time>
      </trkpt>
      <trkpt lat="44.9218" lon="2.97859">
        <ele>1041</ele>
        <time>2015-04-28T07:12:16Z</time>
      </trkpt>
      <trkpt lat="44.9218" lon="2.97858">
        <ele>1044.06</ele>
        <time>2015-04-28T07:12:26Z</time>
      </trkpt>
      <trkpt lat="44.92178" lon="2.97858">
        <ele>1044</ele>
        <time>2015-04-28T07:12:36Z</time>
      </trkpt>
      <trkpt lat="44.92178" lon="2.9786">
        <ele>1043.08</ele>
        <time>2015-04-28T07:12:51Z</time>
      </trkpt>
      <trkpt lat="44.92178" lon="2.97858">
        <ele>1043.19</ele>
        <time>2015-04-28T07:13:01Z</time>
      </trkpt>
      <trkpt lat="44.92177" lon="2.97859">
        <ele>1043.75</ele>
        <time>2015-04-28T07:13:30Z</time>
      </trkpt>
      <trkpt lat="44.92172" lon="2.97861">
        <ele>1045.06</ele>
        <time>2015-04-28T07:13:40Z</time>
      </trkpt>
      <trkpt lat="44.9217" lon="2.9786">
        <ele>1043.77</ele>
        <time>2015-04-28T07:13:50Z</time>
      </trkpt>
      <trkpt lat="44.92167" lon="2.97863">
        <ele>1044.8</ele>
        <time>2015-04-28T07:14:00Z</time>
      </trkpt>
      <trkpt lat="44.92168" lon="2.97862">
        <ele>1044.5</ele>
        <time>2015-04-28T07:14:11Z</time>
      </trkpt>
      <trkpt lat="44.92172" lon="2.97859">
        <ele>1050.93</ele>
        <time>2015-04-28T07:14:21Z</time>
      </trkpt>
      <trkpt lat="44.92172" lon="2.97858">
        <ele>1050.01</ele>
        <time>2015-04-28T07:14:31Z</time>
      </trkpt>
      <trkpt lat="44.9217" lon="2.97858">
        <ele>1051</ele>
        <time>2015-04-28T07:14:41Z</time>
      </trkpt>
      <trkpt lat="44.9217" lon="2.97857">
        <ele>1050</ele>
        <time>2015-04-28T07:15:50Z</time>
      </trkpt>
      <trkpt lat="44.92177" lon="2.97847">
        <ele>1051.25</ele>
        <time>2015-04-28T07:16:00Z</time>
      </trkpt>
      <trkpt lat="44.9217" lon="2.97834">
        <ele>1047.79</ele>
        <time>2015-04-28T07:16:10Z</time>
      </trkpt>
      <trkpt lat="44.92161" lon="2.97823">
        <ele>1047.68</ele>
        <time>2015-04-28T07:16:20Z</time>
      </trkpt>
      <trkpt lat="44.92151" lon="2.97812">
        <ele>1052.73</ele>
        <time>2015-04-28T07:16:30Z</time>
      </trkpt>
      <trkpt lat="44.92141" lon="2.97804">
        <ele>1052.19</ele>
        <time>2015-04-28T07:16:40Z</time>
      </trkpt>
      <trkpt lat="44.92132" lon="2.97794">
        <ele>1047.89</ele>
        <time>2015-04-28T07:16:50Z</time>
      </trkpt>
      <trkpt lat="44.92127" lon="2.97788">
        <ele>1048.83</ele>
        <time>2015-04-28T07:17:00Z</time>
      </trkpt>
      <trkpt lat="44.92128" lon="2.9779">
        <ele>1048.23</ele>
        <time>2015-04-28T07:17:10Z</time>
      </trkpt>
      <trkpt lat="44.92128" lon="2.97788">
        <ele>1046.5</ele>
        <time>2015-04-28T07:17:22Z</time>
      </trkpt>
      <trkpt lat="44.92117" lon="2.97771">
        <ele>1047.94</ele>
        <time>2015-04-28T07:17:32Z</time>
      </trkpt>
      <trkpt lat="44.92106" lon="2.97757">
        <ele>1050.98</ele>
        <time>2015-04-28T07:17:42Z</time>
      </trkpt>
      <trkpt lat="44.92097" lon="2.97746">
        <ele>1053</ele>
        <time>2015-04-28T07:17:52Z</time>
      </trkpt>
      <trkpt lat="44.9209" lon="2.97736">
        <ele>1057.73</ele>
        <time>2015-04-28T07:18:02Z</time>
      </trkpt>
      <trkpt lat="44.92081" lon="2.97727">
        <ele>1057.19</ele>
        <time>2015-04-28T07:18:12Z</time>
      </trkpt>
      <trkpt lat="44.92072" lon="2.97719">
        <ele>1054.63</ele>
        <time>2015-04-28T07:18:22Z</time>
      </trkpt>
      <trkpt lat="44.92063" lon="2.97707">
        <ele>1057.02</ele>
        <time>2015-04-28T07:18:32Z</time>
      </trkpt>
      <trkpt lat="44.92055" lon="2.97697">
        <ele>1060</ele>
        <time>2015-04-28T07:18:42Z</time>
      </trkpt>
      <trkpt lat="44.92048" lon="2.97687">
        <ele>1059</ele>
        <time>2015-04-28T07:18:52Z</time>
      </trkpt>
      <trkpt lat="44.92041" lon="2.97677">
        <ele>1059</ele>
        <time>2015-04-28T07:19:02Z</time>
      </trkpt>
      <trkpt lat="44.92037" lon="2.97663">
        <ele>1057</ele>
        <time>2015-04-28T07:19:12Z</time>
      </trkpt>
      <trkpt lat="44.92034" lon="2.97646">
        <ele>1057.75</ele>
        <time>2015-04-28T07:19:22Z</time>
      </trkpt>
      <trkpt lat="44.92032" lon="2.9763">
        <ele>1058.98</ele>
        <time>2015-04-28T07:19:32Z</time>
      </trkpt>
      <trkpt lat="44.9203" lon="2.97614">
        <ele>1060</ele>
        <time>2015-04-28T07:19:42Z</time>
      </trkpt>
      <trkpt lat="44.9203" lon="2.97598">
        <ele>1059.75</ele>
        <time>2015-04-28T07:19:52Z</time>
      </trkpt>
      <trkpt lat="44.92027" lon="2.97584">
        <ele>1060.06</ele>
        <time>2015-04-28T07:20:02Z</time>
      </trkpt>
      <trkpt lat="44.92024" lon="2.97562">
        <ele>1059.02</ele>
        <time>2015-04-28T07:20:12Z</time>
      </trkpt>
      <trkpt lat="44.92019" lon="2.97542">
        <ele>1060.06</ele>
        <time>2015-04-28T07:20:22Z</time>
      </trkpt>
      <trkpt lat="44.92017" lon="2.97527">
        <ele>1060.96</ele>
        <time>2015-04-28T07:20:32Z</time>
      </trkpt>
      <trkpt lat="44.92013" lon="2.97515">
        <ele>1057.02</ele>
        <time>2015-04-28T07:20:42Z</time>
      </trkpt>
      <trkpt lat="44.92008" lon="2.97499">
        <ele>1055.08</ele>
        <time>2015-04-28T07:20:52Z</time>
      </trkpt>
      <trkpt lat="44.92001" lon="2.97483">
        <ele>1051.77</ele>
        <time>2015-04-28T07:21:02Z</time>
      </trkpt>
      <trkpt lat="44.91992" lon="2.97472">
        <ele>1051.95</ele>
        <time>2015-04-28T07:21:12Z</time>
      </trkpt>
      <trkpt lat="44.91982" lon="2.97459">
        <ele>1053.75</ele>
        <time>2015-04-28T07:21:22Z</time>
      </trkpt>
      <trkpt lat="44.91975" lon="2.97443">
        <ele>1054</ele>
        <time>2015-04-28T07:21:32Z</time>
      </trkpt>
      <trkpt lat="44.9197" lon="2.97427">
        <ele>1053.75</ele>
        <time>2015-04-28T07:21:42Z</time>
      </trkpt>
      <trkpt lat="44.91963" lon="2.97412">
        <ele>1052.32</ele>
        <time>2015-04-28T07:21:52Z</time>
      </trkpt>
      <trkpt lat="44.9196" lon="2.97397">
        <ele>1049.32</ele>
        <time>2015-04-28T07:22:02Z</time>
      </trkpt>
      <trkpt lat="44.91957" lon="2.97386">
        <ele>1043.01</ele>
        <time>2015-04-28T07:22:12Z</time>
      </trkpt>
      <trkpt lat="44.91953" lon="2.97371">
        <ele>1046.2</ele>
        <time>2015-04-28T07:22:22Z</time>
      </trkpt>
      <trkpt lat="44.91947" lon="2.97353">
        <ele>1046.2</ele>
        <time>2015-04-28T07:22:32Z</time>
      </trkpt>
      <trkpt lat="44.91943" lon="2.97335">
        <ele>1047</ele>
        <time>2015-04-28T07:22:42Z</time>
      </trkpt>
      <trkpt lat="44.91939" lon="2.9732">
        <ele>1043.71</ele>
        <time>2015-04-28T07:22:52Z</time>
      </trkpt>
      <trkpt lat="44.91935" lon="2.97306">
        <ele>1041.91</ele>
        <time>2015-04-28T07:23:02Z</time>
      </trkpt>
      <trkpt lat="44.91932" lon="2.97291">
        <ele>1042.36</ele>
        <time>2015-04-28T07:23:12Z</time>
      </trkpt>
      <trkpt lat="44.91932" lon="2.97273">
        <ele>1041.32</ele>
        <time>2015-04-28T07:23:22Z</time>
      </trkpt>
      <trkpt lat="44.9193" lon="2.97255">
        <ele>1040.25</ele>
        <time>2015-04-28T07:23:32Z</time>
      </trkpt>
      <trkpt lat="44.91929" lon="2.97238">
        <ele>1043.03</ele>
        <time>2015-04-28T07:23:42Z</time>
      </trkpt>
      <trkpt lat="44.91925" lon="2.9722">
        <ele>1044.52</ele>
        <time>2015-04-28T07:23:52Z</time>
      </trkpt>
      <trkpt lat="44.91923" lon="2.97207">
        <ele>1042.75</ele>
        <time>2015-04-28T07:24:02Z</time>
      </trkpt>
      <trkpt lat="44.91917" lon="2.97197">
        <ele>1043.31</ele>
        <time>2015-04-28T07:24:12Z</time>
      </trkpt>
      <trkpt lat="44.9191" lon="2.97182">
        <ele>1040.53</ele>
        <time>2015-04-28T07:24:22Z</time>
      </trkpt>
      <trkpt lat="44.91904" lon="2.97169">
        <ele>1041.79</ele>
        <time>2015-04-28T07:24:32Z</time>
      </trkpt>
      <trkpt lat="44.91896" lon="2.97153">
        <ele>1047.02</ele>
        <time>2015-04-28T07:24:42Z</time>
      </trkpt>
      <trkpt lat="44.91889" lon="2.97147">
        <ele>1047.19</ele>
        <time>2015-04-28T07:24:52Z</time>
      </trkpt>
      <trkpt lat="44.91888" lon="2.97146">
        <ele>1048</ele>
        <time>2015-04-28T07:25:02Z</time>
      </trkpt>
      <trkpt lat="44.91888" lon="2.97145">
        <ele>1048</ele>
        <time>2015-04-28T07:25:23Z</time>
      </trkpt>
      <trkpt lat="44.91878" lon="2.97136">
        <ele>1046.08</ele>
        <time>2015-04-28T07:25:33Z</time>
      </trkpt>
      <trkpt lat="44.91865" lon="2.9713">
        <ele>1044.19</ele>
        <time>2015-04-28T07:25:43Z</time>
      </trkpt>
      <trkpt lat="44.91853" lon="2.97126">
        <ele>1047.19</ele>
        <time>2015-04-28T07:25:53Z</time>
      </trkpt>
      <trkpt lat="44.91842" lon="2.9712">
        <ele>1044.77</ele>
        <time>2015-04-28T07:26:03Z</time>
      </trkpt>
      <trkpt lat="44.91831" lon="2.97114">
        <ele>1043</ele>
        <time>2015-04-28T07:26:13Z</time>
      </trkpt>
      <trkpt lat="44.91819" lon="2.97109">
        <ele>1043</ele>
        <time>2015-04-28T07:26:23Z</time>
      </trkpt>
      <trkpt lat="44.91807" lon="2.97106">
        <ele>1043.74</ele>
        <time>2015-04-28T07:26:33Z</time>
      </trkpt>
      <trkpt lat="44.91801" lon="2.97104">
        <ele>1043.25</ele>
        <time>2015-04-28T07:26:43Z</time>
      </trkpt>
      <trkpt lat="44.918" lon="2.97103">
        <ele>1042</ele>
        <time>2015-04-28T07:26:53Z</time>
      </trkpt>
      <trkpt lat="44.91799" lon="2.97102">
        <ele>1041.25</ele>
        <time>2015-04-28T07:27:25Z</time>
      </trkpt>
      <trkpt lat="44.91789" lon="2.97094">
        <ele>1041</ele>
        <time>2015-04-28T07:27:35Z</time>
      </trkpt>
      <trkpt lat="44.91782" lon="2.97091">
        <ele>1041</ele>
        <time>2015-04-28T07:27:45Z</time>
      </trkpt>
      <trkpt lat="44.91781" lon="2.97091">
        <ele>1042</ele>
        <time>2015-04-28T07:28:00Z</time>
      </trkpt>
      <trkpt lat="44.91775" lon="2.97082">
        <ele>1039</ele>
        <time>2015-04-28T07:28:10Z</time>
      </trkpt>
      <trkpt lat="44.91771" lon="2.9707">
        <ele>1031.04</ele>
        <time>2015-04-28T07:28:20Z</time>
      </trkpt>
      <trkpt lat="44.91767" lon="2.97055">
        <ele>1029.02</ele>
        <time>2015-04-28T07:28:30Z</time>
      </trkpt>
      <trkpt lat="44.91763" lon="2.97043">
        <ele>1023.19</ele>
        <time>2015-04-28T07:28:40Z</time>
      </trkpt>
      <trkpt lat="44.91758" lon="2.9703">
        <ele>1019.72</ele>
        <time>2015-04-28T07:28:50Z</time>
      </trkpt>
      <trkpt lat="44.91757" lon="2.97015">
        <ele>1018</ele>
        <time>2015-04-28T07:29:00Z</time>
      </trkpt>
      <trkpt lat="44.91751" lon="2.97001">
        <ele>1018.25</ele>
        <time>2015-04-28T07:29:10Z</time>
      </trkpt>
      <trkpt lat="44.91744" lon="2.96984">
        <ele>1024.94</ele>
        <time>2015-04-28T07:29:20Z</time>
      </trkpt>
      <trkpt lat="44.91742" lon="2.96969">
        <ele>1020.5</ele>
        <time>2015-04-28T07:29:30Z</time>
      </trkpt>
      <trkpt lat="44.91745" lon="2.96949">
        <ele>1021.25</ele>
        <time>2015-04-28T07:29:40Z</time>
      </trkpt>
      <trkpt lat="44.91743" lon="2.96929">
        <ele>1021.8</ele>
        <time>2015-04-28T07:29:50Z</time>
      </trkpt>
      <trkpt lat="44.91742" lon="2.96922">
        <ele>1019.25</ele>
        <time>2015-04-28T07:30:00Z</time>
      </trkpt>
      <trkpt lat="44.9174" lon="2.96915">
        <ele>1024.98</ele>
        <time>2015-04-28T07:30:10Z</time>
      </trkpt>
      <trkpt lat="44.91739" lon="2.96912">
        <ele>1028.75</ele>
        <time>2015-04-28T07:30:20Z</time>
      </trkpt>
      <trkpt lat="44.91738" lon="2.96911">
        <ele>1029.94</ele>
        <time>2015-04-28T07:30:39Z</time>
      </trkpt>
      <trkpt lat="44.91738" lon="2.96912">
        <ele>1033.92</ele>
        <time>2015-04-28T07:31:16Z</time>
      </trkpt>
      <trkpt lat="44.91738" lon="2.96909">
        <ele>1036.73</ele>
        <time>2015-04-28T07:31:26Z</time>
      </trkpt>
      <trkpt lat="44.91736" lon="2.96908">
        <ele>1034.25</ele>
        <time>2015-04-28T07:31:36Z</time>
      </trkpt>
      <trkpt lat="44.91736" lon="2.9691">
        <ele>1031.77</ele>
        <time>2015-04-28T07:31:46Z</time>
      </trkpt>
      <trkpt lat="44.91736" lon="2.96911">
        <ele>1035.23</ele>
        <time>2015-04-28T07:32:01Z</time>
      </trkpt>
      <trkpt lat="44.91737" lon="2.96915">
        <ele>1033</ele>
        <time>2015-04-28T07:32:11Z</time>
      </trkpt>
      <trkpt lat="44.91724" lon="2.96898">
        <ele>1037.5</ele>
        <time>2015-04-28T07:32:51Z</time>
      </trkpt>
      <trkpt lat="44.91718" lon="2.96895">
        <ele>1035.06</ele>
        <time>2015-04-28T07:33:02Z</time>
      </trkpt>
      <trkpt lat="44.91708" lon="2.96884">
        <ele>1040.17</ele>
        <time>2015-04-28T07:33:12Z</time>
      </trkpt>
      <trkpt lat="44.91703" lon="2.96886">
        <ele>1032.99</ele>
        <time>2015-04-28T07:33:22Z</time>
      </trkpt>
      <trkpt lat="44.917" lon="2.96879">
        <ele>1033.98</ele>
        <time>2015-04-28T07:33:32Z</time>
      </trkpt>
      <trkpt lat="44.91691" lon="2.96868">
        <ele>1030.95</ele>
        <time>2015-04-28T07:33:42Z</time>
      </trkpt>
      <trkpt lat="44.91679" lon="2.96859">
        <ele>1033.75</ele>
        <time>2015-04-28T07:33:52Z</time>
      </trkpt>
      <trkpt lat="44.9167" lon="2.96847">
        <ele>1034</ele>
        <time>2015-04-28T07:34:02Z</time>
      </trkpt>
      <trkpt lat="44.91656" lon="2.96837">
        <ele>1030.88</ele>
        <time>2015-04-28T07:34:12Z</time>
      </trkpt>
      <trkpt lat="44.91647" lon="2.96826">
        <ele>1030.68</ele>
        <time>2015-04-28T07:34:22Z</time>
      </trkpt>
      <trkpt lat="44.91636" lon="2.96818">
        <ele>1027.26</ele>
        <time>2015-04-28T07:34:32Z</time>
      </trkpt>
      <trkpt lat="44.91629" lon="2.96812">
        <ele>1016.63</ele>
        <time>2015-04-28T07:34:42Z</time>
      </trkpt>
      <trkpt lat="44.91622" lon="2.96804">
        <ele>1016.69</ele>
        <time>2015-04-28T07:34:52Z</time>
      </trkpt>
      <trkpt lat="44.91606" lon="2.96798">
        <ele>1023.24</ele>
        <time>2015-04-28T07:35:02Z</time>
      </trkpt>
      <trkpt lat="44.91593" lon="2.96788">
        <ele>1028.06</ele>
        <time>2015-04-28T07:35:12Z</time>
      </trkpt>
      <trkpt lat="44.91554" lon="2.96773">
        <ele>1028.99</ele>
        <time>2015-04-28T07:35:40Z</time>
      </trkpt>
      <trkpt lat="44.91546" lon="2.96764">
        <ele>1025.82</ele>
        <time>2015-04-28T07:35:51Z</time>
      </trkpt>
      <trkpt lat="44.91533" lon="2.96759">
        <ele>1027.01</ele>
        <time>2015-04-28T07:36:01Z</time>
      </trkpt>
      <trkpt lat="44.91521" lon="2.96755">
        <ele>1026.8</ele>
        <time>2015-04-28T07:36:11Z</time>
      </trkpt>
      <trkpt lat="44.91509" lon="2.9675">
        <ele>1024.23</ele>
        <time>2015-04-28T07:36:21Z</time>
      </trkpt>
      <trkpt lat="44.91498" lon="2.96745">
        <ele>1022</ele>
        <time>2015-04-28T07:36:31Z</time>
      </trkpt>
      <trkpt lat="44.91494" lon="2.96734">
        <ele>1026.76</ele>
        <time>2015-04-28T07:36:41Z</time>
      </trkpt>
      <trkpt lat="44.91496" lon="2.96729">
        <ele>1029.77</ele>
        <time>2015-04-28T07:36:51Z</time>
      </trkpt>
      <trkpt lat="44.91488" lon="2.9673">
        <ele>1021.34</ele>
        <time>2015-04-28T07:37:01Z</time>
      </trkpt>
      <trkpt lat="44.91475" lon="2.9673">
        <ele>1021</ele>
        <time>2015-04-28T07:37:11Z</time>
      </trkpt>
      <trkpt lat="44.91471" lon="2.96732">
        <ele>1024.91</ele>
        <time>2015-04-28T07:37:21Z</time>
      </trkpt>
      <trkpt lat="44.91473" lon="2.96723">
        <ele>1024.75</ele>
        <time>2015-04-28T07:37:31Z</time>
      </trkpt>
      <trkpt lat="44.91471" lon="2.96723">
        <ele>1023.07</ele>
        <time>2015-04-28T07:37:41Z</time>
      </trkpt>
      <trkpt lat="44.91468" lon="2.96727">
        <ele>1020.06</ele>
        <time>2015-04-28T07:37:51Z</time>
      </trkpt>
      <trkpt lat="44.91461" lon="2.96714">
        <ele>1015.02</ele>
        <time>2015-04-28T07:38:01Z</time>
      </trkpt>
      <trkpt lat="44.91456" lon="2.96706">
        <ele>1019.03</ele>
        <time>2015-04-28T07:38:11Z</time>
      </trkpt>
      <trkpt lat="44.91454" lon="2.96706">
        <ele>1020.12</ele>
        <time>2015-04-28T07:38:21Z</time>
      </trkpt>
      <trkpt lat="44.91452" lon="2.96705">
        <ele>1018.33</ele>
        <time>2015-04-28T07:38:31Z</time>
      </trkpt>
      <trkpt lat="44.91441" lon="2.96707">
        <ele>1014.31</ele>
        <time>2015-04-28T07:38:41Z</time>
      </trkpt>
      <trkpt lat="44.91437" lon="2.9671">
        <ele>1012.06</ele>
        <time>2015-04-28T07:38:51Z</time>
      </trkpt>
      <trkpt lat="44.91437" lon="2.96709">
        <ele>1012</ele>
        <time>2015-04-28T07:39:07Z</time>
      </trkpt>
      <trkpt lat="44.91432" lon="2.96699">
        <ele>1011.76</ele>
        <time>2015-04-28T07:39:17Z</time>
      </trkpt>
      <trkpt lat="44.91424" lon="2.96695">
        <ele>1014.69</ele>
        <time>2015-04-28T07:39:27Z</time>
      </trkpt>
      <trkpt lat="44.91417" lon="2.96688">
        <ele>1013.04</ele>
        <time>2015-04-28T07:39:37Z</time>
      </trkpt>
      <trkpt lat="44.91406" lon="2.96682">
        <ele>1015.75</ele>
        <time>2015-04-28T07:39:47Z</time>
      </trkpt>
      <trkpt lat="44.91404" lon="2.96675">
        <ele>1022.73</ele>
        <time>2015-04-28T07:39:57Z</time>
      </trkpt>
      <trkpt lat="44.91403" lon="2.96676">
        <ele>1024</ele>
        <time>2015-04-28T07:40:08Z</time>
      </trkpt>
      <trkpt lat="44.91394" lon="2.9667">
        <ele>1019.25</ele>
        <time>2015-04-28T07:40:18Z</time>
      </trkpt>
      <trkpt lat="44.91389" lon="2.96665">
        <ele>1012.1</ele>
        <time>2015-04-28T07:40:28Z</time>
      </trkpt>
      <trkpt lat="44.91393" lon="2.9666">
        <ele>1012.5</ele>
        <time>2015-04-28T07:40:38Z</time>
      </trkpt>
      <trkpt lat="44.91399" lon="2.96645">
        <ele>1013.8</ele>
        <time>2015-04-28T07:40:48Z</time>
      </trkpt>
      <trkpt lat="44.91404" lon="2.96634">
        <ele>1009</ele>
        <time>2015-04-28T07:40:58Z</time>
      </trkpt>
      <trkpt lat="44.91415" lon="2.96623">
        <ele>1012.73</ele>
        <time>2015-04-28T07:41:08Z</time>
      </trkpt>
      <trkpt lat="44.91419" lon="2.96611">
        <ele>1010.02</ele>
        <time>2015-04-28T07:41:18Z</time>
      </trkpt>
      <trkpt lat="44.9142" lon="2.96605">
        <ele>1009.08</ele>
        <time>2015-04-28T07:41:28Z</time>
      </trkpt>
      <trkpt lat="44.91424" lon="2.96597">
        <ele>1007.05</ele>
        <time>2015-04-28T07:41:38Z</time>
      </trkpt>
      <trkpt lat="44.91425" lon="2.96596">
        <ele>1006</ele>
        <time>2015-04-28T07:41:51Z</time>
      </trkpt>
      <trkpt lat="44.91432" lon="2.96587">
        <ele>1005.25</ele>
        <time>2015-04-28T07:42:01Z</time>
      </trkpt>
      <trkpt lat="44.9144" lon="2.96575">
        <ele>1005.91</ele>
        <time>2015-04-28T07:42:11Z</time>
      </trkpt>
      <trkpt lat="44.91446" lon="2.96551">
        <ele>1006.56</ele>
        <time>2015-04-28T07:42:21Z</time>
      </trkpt>
      <trkpt lat="44.91459" lon="2.96555">
        <ele>1002.51</ele>
        <time>2015-04-28T07:42:31Z</time>
      </trkpt>
      <trkpt lat="44.91465" lon="2.96548">
        <ele>998.08</ele>
        <time>2015-04-28T07:42:41Z</time>
      </trkpt>
      <trkpt lat="44.91468" lon="2.96541">
        <ele>1000.22</ele>
        <time>2015-04-28T07:42:51Z</time>
      </trkpt>
      <trkpt lat="44.91467" lon="2.96538">
        <ele>999.98</ele>
        <time>2015-04-28T07:43:01Z</time>
      </trkpt>
      <trkpt lat="44.91469" lon="2.96538">
        <ele>1000</ele>
        <time>2015-04-28T07:43:14Z</time>
      </trkpt>
      <trkpt lat="44.91476" lon="2.96539">
        <ele>988.85</ele>
        <time>2015-04-28T07:43:24Z</time>
      </trkpt>
      <trkpt lat="44.91486" lon="2.96532">
        <ele>988.5</ele>
        <time>2015-04-28T07:43:34Z</time>
      </trkpt>
      <trkpt lat="44.91492" lon="2.96529">
        <ele>986.81</ele>
        <time>2015-04-28T07:43:44Z</time>
      </trkpt>
      <trkpt lat="44.91506" lon="2.96519">
        <ele>987.29</ele>
        <time>2015-04-28T07:43:54Z</time>
      </trkpt>
      <trkpt lat="44.91515" lon="2.96501">
        <ele>987.3</ele>
        <time>2015-04-28T07:44:04Z</time>
      </trkpt>
      <trkpt lat="44.91517" lon="2.96484">
        <ele>989.37</ele>
        <time>2015-04-28T07:44:14Z</time>
      </trkpt>
      <trkpt lat="44.91523" lon="2.96471">
        <ele>981.29</ele>
        <time>2015-04-28T07:44:24Z</time>
      </trkpt>
      <trkpt lat="44.91525" lon="2.9646">
        <ele>978</ele>
        <time>2015-04-28T07:44:34Z</time>
      </trkpt>
      <trkpt lat="44.91522" lon="2.96446">
        <ele>970.97</ele>
        <time>2015-04-28T07:44:44Z</time>
      </trkpt>
      <trkpt lat="44.91516" lon="2.96432">
        <ele>972.98</ele>
        <time>2015-04-28T07:44:54Z</time>
      </trkpt>
      <trkpt lat="44.91508" lon="2.96418">
        <ele>973.71</ele>
        <time>2015-04-28T07:45:04Z</time>
      </trkpt>
      <trkpt lat="44.91501" lon="2.96401">
        <ele>978.05</ele>
        <time>2015-04-28T07:45:14Z</time>
      </trkpt>
      <trkpt lat="44.91503" lon="2.96389">
        <ele>975.97</ele>
        <time>2015-04-28T07:45:24Z</time>
      </trkpt>
      <trkpt lat="44.91504" lon="2.96389">
        <ele>976.06</ele>
        <time>2015-04-28T07:45:34Z</time>
      </trkpt>
      <trkpt lat="44.91505" lon="2.96386">
        <ele>977.17</ele>
        <time>2015-04-28T07:45:44Z</time>
      </trkpt>
      <trkpt lat="44.91513" lon="2.96372">
        <ele>980.23</ele>
        <time>2015-04-28T07:45:54Z</time>
      </trkpt>
      <trkpt lat="44.91513" lon="2.96369">
        <ele>983</ele>
        <time>2015-04-28T07:46:04Z</time>
      </trkpt>
      <trkpt lat="44.91513" lon="2.96366">
        <ele>982.75</ele>
        <time>2015-04-28T07:46:14Z</time>
      </trkpt>
      <trkpt lat="44.91514" lon="2.96365">
        <ele>981.99</ele>
        <time>2015-04-28T07:46:24Z</time>
      </trkpt>
      <trkpt lat="44.91516" lon="2.96366">
        <ele>982.75</ele>
        <time>2015-04-28T07:47:28Z</time>
      </trkpt>
      <trkpt lat="44.91519" lon="2.96367">
        <ele>983.06</ele>
        <time>2015-04-28T07:47:38Z</time>
      </trkpt>
      <trkpt lat="44.9152" lon="2.96365">
        <ele>983.25</ele>
        <time>2015-04-28T07:47:51Z</time>
      </trkpt>
      <trkpt lat="44.91526" lon="2.96361">
        <ele>983.75</ele>
        <time>2015-04-28T07:48:01Z</time>
      </trkpt>
      <trkpt lat="44.91537" lon="2.96359">
        <ele>982</ele>
        <time>2015-04-28T07:48:11Z</time>
      </trkpt>
      <trkpt lat="44.91548" lon="2.96359">
        <ele>980.25</ele>
        <time>2015-04-28T07:48:21Z</time>
      </trkpt>
      <trkpt lat="44.9156" lon="2.96356">
        <ele>977.08</ele>
        <time>2015-04-28T07:48:31Z</time>
      </trkpt>
      <trkpt lat="44.91572" lon="2.96351">
        <ele>973.27</ele>
        <time>2015-04-28T07:48:41Z</time>
      </trkpt>
      <trkpt lat="44.91584" lon="2.96349">
        <ele>971.19</ele>
        <time>2015-04-28T07:48:51Z</time>
      </trkpt>
      <trkpt lat="44.91593" lon="2.96336">
        <ele>973.25</ele>
        <time>2015-04-28T07:49:01Z</time>
      </trkpt>
      <trkpt lat="44.91603" lon="2.96324">
        <ele>970.02</ele>
        <time>2015-04-28T07:49:11Z</time>
      </trkpt>
      <trkpt lat="44.91614" lon="2.96317">
        <ele>971.02</ele>
        <time>2015-04-28T07:49:21Z</time>
      </trkpt>
      <trkpt lat="44.91615" lon="2.96308">
        <ele>974.01</ele>
        <time>2015-04-28T07:49:31Z</time>
      </trkpt>
      <trkpt lat="44.91624" lon="2.96306">
        <ele>967.69</ele>
        <time>2015-04-28T07:49:41Z</time>
      </trkpt>
      <trkpt lat="44.91634" lon="2.96302">
        <ele>960.31</ele>
        <time>2015-04-28T07:49:51Z</time>
      </trkpt>
      <trkpt lat="44.91645" lon="2.96295">
        <ele>962.02</ele>
        <time>2015-04-28T07:50:01Z</time>
      </trkpt>
      <trkpt lat="44.91653" lon="2.96288">
        <ele>960.26</ele>
        <time>2015-04-28T07:50:11Z</time>
      </trkpt>
      <trkpt lat="44.91661" lon="2.96281">
        <ele>955.01</ele>
        <time>2015-04-28T07:50:21Z</time>
      </trkpt>
      <trkpt lat="44.91672" lon="2.96271">
        <ele>955.34</ele>
        <time>2015-04-28T07:50:31Z</time>
      </trkpt>
      <trkpt lat="44.91682" lon="2.96262">
        <ele>949.27</ele>
        <time>2015-04-28T07:50:41Z</time>
      </trkpt>
      <trkpt lat="44.91692" lon="2.9625">
        <ele>946.37</ele>
        <time>2015-04-28T07:50:51Z</time>
      </trkpt>
      <trkpt lat="44.91701" lon="2.96243">
        <ele>943</ele>
        <time>2015-04-28T07:51:01Z</time>
      </trkpt>
      <trkpt lat="44.91709" lon="2.96235">
        <ele>941.8</ele>
        <time>2015-04-28T07:51:11Z</time>
      </trkpt>
      <trkpt lat="44.91717" lon="2.96221">
        <ele>946.05</ele>
        <time>2015-04-28T07:51:21Z</time>
      </trkpt>
      <trkpt lat="44.91725" lon="2.96209">
        <ele>946.94</ele>
        <time>2015-04-28T07:51:31Z</time>
      </trkpt>
      <trkpt lat="44.91735" lon="2.96193">
        <ele>951.94</ele>
        <time>2015-04-28T07:51:41Z</time>
      </trkpt>
      <trkpt lat="44.91745" lon="2.96187">
        <ele>948</ele>
        <time>2015-04-28T07:51:51Z</time>
      </trkpt>
      <trkpt lat="44.91753" lon="2.9617">
        <ele>950</ele>
        <time>2015-04-28T07:52:01Z</time>
      </trkpt>
      <trkpt lat="44.91762" lon="2.96155">
        <ele>952</ele>
        <time>2015-04-28T07:52:11Z</time>
      </trkpt>
      <trkpt lat="44.91771" lon="2.96134">
        <ele>957.75</ele>
        <time>2015-04-28T07:52:21Z</time>
      </trkpt>
      <trkpt lat="44.91782" lon="2.96122">
        <ele>956.25</ele>
        <time>2015-04-28T07:52:31Z</time>
      </trkpt>
      <trkpt lat="44.91792" lon="2.96111">
        <ele>955.99</ele>
        <time>2015-04-28T07:52:41Z</time>
      </trkpt>
      <trkpt lat="44.91801" lon="2.96099">
        <ele>958.94</ele>
        <time>2015-04-28T07:52:51Z</time>
      </trkpt>
      <trkpt lat="44.91812" lon="2.96088">
        <ele>956.14</ele>
        <time>2015-04-28T07:53:01Z</time>
      </trkpt>
      <trkpt lat="44.91823" lon="2.96086">
        <ele>947.27</ele>
        <time>2015-04-28T07:53:11Z</time>
      </trkpt>
      <trkpt lat="44.91834" lon="2.96078">
        <ele>947</ele>
        <time>2015-04-28T07:53:21Z</time>
      </trkpt>
      <trkpt lat="44.91843" lon="2.96069">
        <ele>950.91</ele>
        <time>2015-04-28T07:53:31Z</time>
      </trkpt>
      <trkpt lat="44.91853" lon="2.96058">
        <ele>952.93</ele>
        <time>2015-04-28T07:53:41Z</time>
      </trkpt>
      <trkpt lat="44.91863" lon="2.96052">
        <ele>952.75</ele>
        <time>2015-04-28T07:53:51Z</time>
      </trkpt>
      <trkpt lat="44.91872" lon="2.96045">
        <ele>953</ele>
        <time>2015-04-28T07:54:01Z</time>
      </trkpt>
      <trkpt lat="44.91882" lon="2.96037">
        <ele>953.95</ele>
        <time>2015-04-28T07:54:11Z</time>
      </trkpt>
      <trkpt lat="44.91892" lon="2.96027">
        <ele>954.69</ele>
        <time>2015-04-28T07:54:21Z</time>
      </trkpt>
      <trkpt lat="44.91902" lon="2.96018">
        <ele>951.02</ele>
        <time>2015-04-28T07:54:31Z</time>
      </trkpt>
      <trkpt lat="44.91912" lon="2.96008">
        <ele>948.94</ele>
        <time>2015-04-28T07:54:41Z</time>
      </trkpt>
      <trkpt lat="44.9192" lon="2.95993">
        <ele>950.5</ele>
        <time>2015-04-28T07:54:51Z</time>
      </trkpt>
      <trkpt lat="44.91929" lon="2.95986">
        <ele>949.18</ele>
        <time>2015-04-28T07:55:01Z</time>
      </trkpt>
      <trkpt lat="44.91939" lon="2.95971">
        <ele>948.08</ele>
        <time>2015-04-28T07:55:11Z</time>
      </trkpt>
      <trkpt lat="44.91949" lon="2.95961">
        <ele>946.95</ele>
        <time>2015-04-28T07:55:21Z</time>
      </trkpt>
      <trkpt lat="44.91958" lon="2.95951">
        <ele>945.11</ele>
        <time>2015-04-28T07:55:31Z</time>
      </trkpt>
      <trkpt lat="44.91966" lon="2.95939">
        <ele>946.26</ele>
        <time>2015-04-28T07:55:41Z</time>
      </trkpt>
      <trkpt lat="44.91976" lon="2.95928">
        <ele>942.39</ele>
        <time>2015-04-28T07:55:51Z</time>
      </trkpt>
      <trkpt lat="44.91986" lon="2.95914">
        <ele>942.95</ele>
        <time>2015-04-28T07:56:01Z</time>
      </trkpt>
      <trkpt lat="44.91996" lon="2.95902">
        <ele>944.27</ele>
        <time>2015-04-28T07:56:11Z</time>
      </trkpt>
      <trkpt lat="44.92007" lon="2.95891">
        <ele>950.64</ele>
        <time>2015-04-28T07:56:21Z</time>
      </trkpt>
      <trkpt lat="44.92015" lon="2.95881">
        <ele>952</ele>
        <time>2015-04-28T07:56:31Z</time>
      </trkpt>
      <trkpt lat="44.92024" lon="2.95875">
        <ele>949.93</ele>
        <time>2015-04-28T07:56:41Z</time>
      </trkpt>
      <trkpt lat="44.9203" lon="2.95868">
        <ele>956.96</ele>
        <time>2015-04-28T07:56:51Z</time>
      </trkpt>
      <trkpt lat="44.92042" lon="2.9586">
        <ele>957.06</ele>
        <time>2015-04-28T07:57:01Z</time>
      </trkpt>
      <trkpt lat="44.92055" lon="2.95848">
        <ele>952.06</ele>
        <time>2015-04-28T07:57:11Z</time>
      </trkpt>
      <trkpt lat="44.92063" lon="2.95836">
        <ele>950.06</ele>
        <time>2015-04-28T07:57:21Z</time>
      </trkpt>
      <trkpt lat="44.92071" lon="2.95822">
        <ele>949.98</ele>
        <time>2015-04-28T07:57:31Z</time>
      </trkpt>
      <trkpt lat="44.9208" lon="2.95803">
        <ele>951</ele>
        <time>2015-04-28T07:57:41Z</time>
      </trkpt>
      <trkpt lat="44.92089" lon="2.95787">
        <ele>951</ele>
        <time>2015-04-28T07:57:51Z</time>
      </trkpt>
      <trkpt lat="44.92098" lon="2.9577">
        <ele>955.75</ele>
        <time>2015-04-28T07:58:01Z</time>
      </trkpt>
      <trkpt lat="44.9211" lon="2.95757">
        <ele>957.87</ele>
        <time>2015-04-28T07:58:11Z</time>
      </trkpt>
      <trkpt lat="44.9212" lon="2.95744">
        <ele>959.7</ele>
        <time>2015-04-28T07:58:21Z</time>
      </trkpt>
      <trkpt lat="44.92133" lon="2.95736">
        <ele>960.25</ele>
        <time>2015-04-28T07:58:31Z</time>
      </trkpt>
      <trkpt lat="44.92144" lon="2.95734">
        <ele>955</ele>
        <time>2015-04-28T07:58:41Z</time>
      </trkpt>
      <trkpt lat="44.92155" lon="2.95726">
        <ele>952.75</ele>
        <time>2015-04-28T07:58:51Z</time>
      </trkpt>
      <trkpt lat="44.92167" lon="2.95725">
        <ele>947.38</ele>
        <time>2015-04-28T07:59:01Z</time>
      </trkpt>
      <trkpt lat="44.92179" lon="2.95717">
        <ele>949</ele>
        <time>2015-04-28T07:59:11Z</time>
      </trkpt>
      <trkpt lat="44.92186" lon="2.95703">
        <ele>958.04</ele>
        <time>2015-04-28T07:59:21Z</time>
      </trkpt>
      <trkpt lat="44.92197" lon="2.95699">
        <ele>957.81</ele>
        <time>2015-04-28T07:59:31Z</time>
      </trkpt>
      <trkpt lat="44.9221" lon="2.95695">
        <ele>958.82</ele>
        <time>2015-04-28T07:59:41Z</time>
      </trkpt>
      <trkpt lat="44.92215" lon="2.95685">
        <ele>961.75</ele>
        <time>2015-04-28T07:59:51Z</time>
      </trkpt>
      <trkpt lat="44.92215" lon="2.95682">
        <ele>963</ele>
        <time>2015-04-28T08:00:01Z</time>
      </trkpt>
      <trkpt lat="44.92216" lon="2.95681">
        <ele>963.25</ele>
        <time>2015-04-28T08:00:15Z</time>
      </trkpt>
      <trkpt lat="44.92225" lon="2.95678">
        <ele>966.75</ele>
        <time>2015-04-28T08:00:25Z</time>
      </trkpt>
      <trkpt lat="44.92226" lon="2.95677">
        <ele>969.75</ele>
        <time>2015-04-28T08:01:37Z</time>
      </trkpt>
      <trkpt lat="44.92238" lon="2.95681">
        <ele>969.82</ele>
        <time>2015-04-28T08:01:47Z</time>
      </trkpt>
      <trkpt lat="44.9225" lon="2.95683">
        <ele>971.7</ele>
        <time>2015-04-28T08:01:57Z</time>
      </trkpt>
      <trkpt lat="44.92264" lon="2.95689">
        <ele>970.94</ele>
        <time>2015-04-28T08:02:07Z</time>
      </trkpt>
      <trkpt lat="44.92278" lon="2.95692">
        <ele>972.94</ele>
        <time>2015-04-28T08:02:17Z</time>
      </trkpt>
      <trkpt lat="44.92292" lon="2.95697">
        <ele>974.73</ele>
        <time>2015-04-28T08:02:27Z</time>
      </trkpt>
      <trkpt lat="44.92307" lon="2.95702">
        <ele>975</ele>
        <time>2015-04-28T08:02:37Z</time>
      </trkpt>
      <trkpt lat="44.9232" lon="2.95709">
        <ele>974</ele>
        <time>2015-04-28T08:02:47Z</time>
      </trkpt>
      <trkpt lat="44.9233" lon="2.95716">
        <ele>972.07</ele>
        <time>2015-04-28T08:02:57Z</time>
      </trkpt>
      <trkpt lat="44.92338" lon="2.95722">
        <ele>972</ele>
        <time>2015-04-28T08:03:07Z</time>
      </trkpt>
      <trkpt lat="44.92343" lon="2.95726">
        <ele>970.77</ele>
        <time>2015-04-28T08:03:17Z</time>
      </trkpt>
      <trkpt lat="44.92349" lon="2.9573">
        <ele>969.07</ele>
        <time>2015-04-28T08:03:27Z</time>
      </trkpt>
      <trkpt lat="44.92355" lon="2.95731">
        <ele>973.96</ele>
        <time>2015-04-28T08:03:37Z</time>
      </trkpt>
      <trkpt lat="44.92362" lon="2.9573">
        <ele>975.25</ele>
        <time>2015-04-28T08:03:47Z</time>
      </trkpt>
      <trkpt lat="44.9237" lon="2.95731">
        <ele>971.08</ele>
        <time>2015-04-28T08:03:57Z</time>
      </trkpt>
      <trkpt lat="44.92386" lon="2.9573">
        <ele>971.01</ele>
        <time>2015-04-28T08:04:07Z</time>
      </trkpt>
      <trkpt lat="44.92396" lon="2.95735">
        <ele>967.13</ele>
        <time>2015-04-28T08:04:17Z</time>
      </trkpt>
      <trkpt lat="44.92406" lon="2.95741">
        <ele>955.07</ele>
        <time>2015-04-28T08:04:27Z</time>
      </trkpt>
      <trkpt lat="44.92424" lon="2.95741">
        <ele>947.06</ele>
        <time>2015-04-28T08:04:37Z</time>
      </trkpt>
      <trkpt lat="44.92436" lon="2.95738">
        <ele>944.08</ele>
        <time>2015-04-28T08:04:47Z</time>
      </trkpt>
      <trkpt lat="44.92445" lon="2.95738">
        <ele>935.84</ele>
        <time>2015-04-28T08:04:57Z</time>
      </trkpt>
      <trkpt lat="44.92457" lon="2.95734">
        <ele>937.24</ele>
        <time>2015-04-28T08:05:07Z</time>
      </trkpt>
      <trkpt lat="44.92465" lon="2.95726">
        <ele>938.02</ele>
        <time>2015-04-28T08:05:17Z</time>
      </trkpt>
      <trkpt lat="44.92473" lon="2.9573">
        <ele>945.63</ele>
        <time>2015-04-28T08:05:27Z</time>
      </trkpt>
      <trkpt lat="44.92484" lon="2.95733">
        <ele>945.55</ele>
        <time>2015-04-28T08:05:37Z</time>
      </trkpt>
      <trkpt lat="44.92494" lon="2.95733">
        <ele>948.93</ele>
        <time>2015-04-28T08:05:47Z</time>
      </trkpt>
      <trkpt lat="44.92504" lon="2.95735">
        <ele>945.77</ele>
        <time>2015-04-28T08:05:57Z</time>
      </trkpt>
      <trkpt lat="44.92516" lon="2.9573">
        <ele>946.19</ele>
        <time>2015-04-28T08:06:07Z</time>
      </trkpt>
      <trkpt lat="44.92519" lon="2.95729">
        <ele>947.98</ele>
        <time>2015-04-28T08:06:17Z</time>
      </trkpt>
      <trkpt lat="44.92519" lon="2.95728">
        <ele>948.75</ele>
        <time>2015-04-28T08:06:29Z</time>
      </trkpt>
      <trkpt lat="44.92524" lon="2.95727">
        <ele>948.69</ele>
        <time>2015-04-28T08:06:39Z</time>
      </trkpt>
      <trkpt lat="44.92526" lon="2.95726">
        <ele>953.05</ele>
        <time>2015-04-28T08:06:49Z</time>
      </trkpt>
      <trkpt lat="44.92527" lon="2.95726">
        <ele>953.23</ele>
        <time>2015-04-28T08:07:01Z</time>
      </trkpt>
      <trkpt lat="44.92529" lon="2.95725">
        <ele>954</ele>
        <time>2015-04-28T08:07:48Z</time>
      </trkpt>
      <trkpt lat="44.92536" lon="2.95727">
        <ele>948.5</ele>
        <time>2015-04-28T08:07:58Z</time>
      </trkpt>
      <trkpt lat="44.92548" lon="2.95723">
        <ele>945</ele>
        <time>2015-04-28T08:08:08Z</time>
      </trkpt>
      <trkpt lat="44.92559" lon="2.95721">
        <ele>937.5</ele>
        <time>2015-04-28T08:08:18Z</time>
      </trkpt>
      <trkpt lat="44.9257" lon="2.95718">
        <ele>940.74</ele>
        <time>2015-04-28T08:08:28Z</time>
      </trkpt>
      <trkpt lat="44.92581" lon="2.95714">
        <ele>943.21</ele>
        <time>2015-04-28T08:08:38Z</time>
      </trkpt>
      <trkpt lat="44.9259" lon="2.9571">
        <ele>946.31</ele>
        <time>2015-04-28T08:08:48Z</time>
      </trkpt>
      <trkpt lat="44.92603" lon="2.95711">
        <ele>947.98</ele>
        <time>2015-04-28T08:08:58Z</time>
      </trkpt>
      <trkpt lat="44.92613" lon="2.95703">
        <ele>958.65</ele>
        <time>2015-04-28T08:09:08Z</time>
      </trkpt>
      <trkpt lat="44.9262" lon="2.95705">
        <ele>957.36</ele>
        <time>2015-04-28T08:09:18Z</time>
      </trkpt>
      <trkpt lat="44.9263" lon="2.95706">
        <ele>960.25</ele>
        <time>2015-04-28T08:09:28Z</time>
      </trkpt>
      <trkpt lat="44.92639" lon="2.95704">
        <ele>958.87</ele>
        <time>2015-04-28T08:09:38Z</time>
      </trkpt>
      <trkpt lat="44.92648" lon="2.95705">
        <ele>956.14</ele>
        <time>2015-04-28T08:09:48Z</time>
      </trkpt>
      <trkpt lat="44.92661" lon="2.95706">
        <ele>953.07</ele>
        <time>2015-04-28T08:09:58Z</time>
      </trkpt>
      <trkpt lat="44.92673" lon="2.95705">
        <ele>958.65</ele>
        <time>2015-04-28T08:10:08Z</time>
      </trkpt>
      <trkpt lat="44.92684" lon="2.957">
        <ele>961.25</ele>
        <time>2015-04-28T08:10:18Z</time>
      </trkpt>
      <trkpt lat="44.92697" lon="2.95706">
        <ele>964.95</ele>
        <time>2015-04-28T08:10:28Z</time>
      </trkpt>
      <trkpt lat="44.92705" lon="2.95713">
        <ele>959.26</ele>
        <time>2015-04-28T08:10:38Z</time>
      </trkpt>
      <trkpt lat="44.92712" lon="2.95724">
        <ele>961.66</ele>
        <time>2015-04-28T08:10:48Z</time>
      </trkpt>
      <trkpt lat="44.92726" lon="2.95732">
        <ele>970</ele>
        <time>2015-04-28T08:10:58Z</time>
      </trkpt>
      <trkpt lat="44.92725" lon="2.95742">
        <ele>966.03</ele>
        <time>2015-04-28T08:11:08Z</time>
      </trkpt>
      <trkpt lat="44.92734" lon="2.95755">
        <ele>962.86</ele>
        <time>2015-04-28T08:11:18Z</time>
      </trkpt>
      <trkpt lat="44.92741" lon="2.95766">
        <ele>964.01</ele>
        <time>2015-04-28T08:11:28Z</time>
      </trkpt>
      <trkpt lat="44.92753" lon="2.95774">
        <ele>960.25</ele>
        <time>2015-04-28T08:11:38Z</time>
      </trkpt>
      <trkpt lat="44.92771" lon="2.95782">
        <ele>967.98</ele>
        <time>2015-04-28T08:11:48Z</time>
      </trkpt>
      <trkpt lat="44.92779" lon="2.95792">
        <ele>965.06</ele>
        <time>2015-04-28T08:11:58Z</time>
      </trkpt>
      <trkpt lat="44.92788" lon="2.95803">
        <ele>967.23</ele>
        <time>2015-04-28T08:12:08Z</time>
      </trkpt>
      <trkpt lat="44.92797" lon="2.95813">
        <ele>970.92</ele>
        <time>2015-04-28T08:12:18Z</time>
      </trkpt>
      <trkpt lat="44.92809" lon="2.95822">
        <ele>974.05</ele>
        <time>2015-04-28T08:12:28Z</time>
      </trkpt>
      <trkpt lat="44.92816" lon="2.95832">
        <ele>974</ele>
        <time>2015-04-28T08:12:38Z</time>
      </trkpt>
      <trkpt lat="44.92828" lon="2.9584">
        <ele>976.67</ele>
        <time>2015-04-28T08:12:48Z</time>
      </trkpt>
      <trkpt lat="44.92842" lon="2.95849">
        <ele>977</ele>
        <time>2015-04-28T08:12:58Z</time>
      </trkpt>
      <trkpt lat="44.92854" lon="2.95857">
        <ele>978.07</ele>
        <time>2015-04-28T08:13:08Z</time>
      </trkpt>
      <trkpt lat="44.9286" lon="2.95872">
        <ele>980.39</ele>
        <time>2015-04-28T08:13:18Z</time>
      </trkpt>
      <trkpt lat="44.92865" lon="2.95891">
        <ele>981.02</ele>
        <time>2015-04-28T08:13:28Z</time>
      </trkpt>
      <trkpt lat="44.92877" lon="2.95899">
        <ele>976.72</ele>
        <time>2015-04-28T08:13:38Z</time>
      </trkpt>
      <trkpt lat="44.9288" lon="2.95921">
        <ele>971.28</ele>
        <time>2015-04-28T08:13:48Z</time>
      </trkpt>
      <trkpt lat="44.92885" lon="2.95933">
        <ele>968.77</ele>
        <time>2015-04-28T08:13:58Z</time>
      </trkpt>
      <trkpt lat="44.92894" lon="2.95943">
        <ele>968.92</ele>
        <time>2015-04-28T08:14:08Z</time>
      </trkpt>
      <trkpt lat="44.92902" lon="2.95951">
        <ele>973.98</ele>
        <time>2015-04-28T08:14:18Z</time>
      </trkpt>
      <trkpt lat="44.92905" lon="2.95961">
        <ele>969.44</ele>
        <time>2015-04-28T08:14:28Z</time>
      </trkpt>
      <trkpt lat="44.92911" lon="2.95973">
        <ele>972</ele>
        <time>2015-04-28T08:14:38Z</time>
      </trkpt>
      <trkpt lat="44.92916" lon="2.95986">
        <ele>969.26</ele>
        <time>2015-04-28T08:14:48Z</time>
      </trkpt>
      <trkpt lat="44.92919" lon="2.95998">
        <ele>965.07</ele>
        <time>2015-04-28T08:14:58Z</time>
      </trkpt>
      <trkpt lat="44.92924" lon="2.96017">
        <ele>971.68</ele>
        <time>2015-04-28T08:15:08Z</time>
      </trkpt>
      <trkpt lat="44.92933" lon="2.96032">
        <ele>973.96</ele>
        <time>2015-04-28T08:15:18Z</time>
      </trkpt>
      <trkpt lat="44.92942" lon="2.96036">
        <ele>977</ele>
        <time>2015-04-28T08:15:28Z</time>
      </trkpt>
      <trkpt lat="44.9295" lon="2.96034">
        <ele>975.33</ele>
        <time>2015-04-28T08:15:38Z</time>
      </trkpt>
      <trkpt lat="44.92964" lon="2.96033">
        <ele>972.18</ele>
        <time>2015-04-28T08:15:48Z</time>
      </trkpt>
      <trkpt lat="44.92977" lon="2.9603">
        <ele>966.26</ele>
        <time>2015-04-28T08:15:58Z</time>
      </trkpt>
      <trkpt lat="44.92986" lon="2.96022">
        <ele>968.92</ele>
        <time>2015-04-28T08:16:08Z</time>
      </trkpt>
      <trkpt lat="44.92994" lon="2.96014">
        <ele>967</ele>
        <time>2015-04-28T08:16:18Z</time>
      </trkpt>
      <trkpt lat="44.93" lon="2.96004">
        <ele>976.44</ele>
        <time>2015-04-28T08:16:28Z</time>
      </trkpt>
      <trkpt lat="44.93008" lon="2.95997">
        <ele>976.02</ele>
        <time>2015-04-28T08:16:38Z</time>
      </trkpt>
      <trkpt lat="44.93015" lon="2.95996">
        <ele>979.97</ele>
        <time>2015-04-28T08:16:48Z</time>
      </trkpt>
      <trkpt lat="44.93026" lon="2.95997">
        <ele>980.94</ele>
        <time>2015-04-28T08:16:58Z</time>
      </trkpt>
      <trkpt lat="44.93039" lon="2.95997">
        <ele>983</ele>
        <time>2015-04-28T08:17:08Z</time>
      </trkpt>
      <trkpt lat="44.93051" lon="2.95996">
        <ele>985</ele>
        <time>2015-04-28T08:17:18Z</time>
      </trkpt>
      <trkpt lat="44.93066" lon="2.95997">
        <ele>986.92</ele>
        <time>2015-04-28T08:17:28Z</time>
      </trkpt>
      <trkpt lat="44.93075" lon="2.95996">
        <ele>990.04</ele>
        <time>2015-04-28T08:17:38Z</time>
      </trkpt>
      <trkpt lat="44.93089" lon="2.96">
        <ele>989.83</ele>
        <time>2015-04-28T08:17:48Z</time>
      </trkpt>
      <trkpt lat="44.93097" lon="2.95993">
        <ele>989</ele>
        <time>2015-04-28T08:17:58Z</time>
      </trkpt>
      <trkpt lat="44.93105" lon="2.95991">
        <ele>993.99</ele>
        <time>2015-04-28T08:18:08Z</time>
      </trkpt>
      <trkpt lat="44.93112" lon="2.95988">
        <ele>997.47</ele>
        <time>2015-04-28T08:18:18Z</time>
      </trkpt>
      <trkpt lat="44.9312" lon="2.95982">
        <ele>995.77</ele>
        <time>2015-04-28T08:18:28Z</time>
      </trkpt>
      <trkpt lat="44.93131" lon="2.95975">
        <ele>993</ele>
        <time>2015-04-28T08:18:38Z</time>
      </trkpt>
      <trkpt lat="44.93139" lon="2.95969">
        <ele>989.33</ele>
        <time>2015-04-28T08:18:48Z</time>
      </trkpt>
      <trkpt lat="44.93148" lon="2.95971">
        <ele>985.08</ele>
        <time>2015-04-28T08:18:58Z</time>
      </trkpt>
      <trkpt lat="44.93162" lon="2.95969">
        <ele>979.97</ele>
        <time>2015-04-28T08:19:08Z</time>
      </trkpt>
      <trkpt lat="44.9317" lon="2.9596">
        <ele>978.23</ele>
        <time>2015-04-28T08:19:18Z</time>
      </trkpt>
      <trkpt lat="44.93181" lon="2.95953">
        <ele>975.02</ele>
        <time>2015-04-28T08:19:28Z</time>
      </trkpt>
      <trkpt lat="44.93191" lon="2.95943">
        <ele>978.99</ele>
        <time>2015-04-28T08:19:38Z</time>
      </trkpt>
      <trkpt lat="44.93203" lon="2.95932">
        <ele>983.99</ele>
        <time>2015-04-28T08:19:48Z</time>
      </trkpt>
      <trkpt lat="44.93216" lon="2.95923">
        <ele>984</ele>
        <time>2015-04-28T08:19:58Z</time>
      </trkpt>
      <trkpt lat="44.9323" lon="2.95909">
        <ele>989.95</ele>
        <time>2015-04-28T08:20:08Z</time>
      </trkpt>
      <trkpt lat="44.93238" lon="2.95899">
        <ele>991.75</ele>
        <time>2015-04-28T08:20:18Z</time>
      </trkpt>
      <trkpt lat="44.93247" lon="2.95891">
        <ele>993.91</ele>
        <time>2015-04-28T08:20:28Z</time>
      </trkpt>
      <trkpt lat="44.93257" lon="2.95889">
        <ele>986.24</ele>
        <time>2015-04-28T08:20:38Z</time>
      </trkpt>
      <trkpt lat="44.93272" lon="2.95884">
        <ele>984.89</ele>
        <time>2015-04-28T08:20:48Z</time>
      </trkpt>
      <trkpt lat="44.93284" lon="2.95872">
        <ele>982.52</ele>
        <time>2015-04-28T08:20:58Z</time>
      </trkpt>
      <trkpt lat="44.93294" lon="2.95861">
        <ele>987.06</ele>
        <time>2015-04-28T08:21:08Z</time>
      </trkpt>
      <trkpt lat="44.93301" lon="2.95858">
        <ele>987.95</ele>
        <time>2015-04-28T08:21:18Z</time>
      </trkpt>
      <trkpt lat="44.93306" lon="2.95855">
        <ele>990</ele>
        <time>2015-04-28T08:21:28Z</time>
      </trkpt>
      <trkpt lat="44.93312" lon="2.95852">
        <ele>991.01</ele>
        <time>2015-04-28T08:21:38Z</time>
      </trkpt>
      <trkpt lat="44.93321" lon="2.95855">
        <ele>986.82</ele>
        <time>2015-04-28T08:21:48Z</time>
      </trkpt>
      <trkpt lat="44.93337" lon="2.95858">
        <ele>977.02</ele>
        <time>2015-04-28T08:21:58Z</time>
      </trkpt>
      <trkpt lat="44.93356" lon="2.95852">
        <ele>978.01</ele>
        <time>2015-04-28T08:22:08Z</time>
      </trkpt>
      <trkpt lat="44.93374" lon="2.95842">
        <ele>985.98</ele>
        <time>2015-04-28T08:22:18Z</time>
      </trkpt>
      <trkpt lat="44.93383" lon="2.95837">
        <ele>990.5</ele>
        <time>2015-04-28T08:22:28Z</time>
      </trkpt>
      <trkpt lat="44.93398" lon="2.95834">
        <ele>989.25</ele>
        <time>2015-04-28T08:22:38Z</time>
      </trkpt>
      <trkpt lat="44.93411" lon="2.95826">
        <ele>994.56</ele>
        <time>2015-04-28T08:22:48Z</time>
      </trkpt>
      <trkpt lat="44.9342" lon="2.95819">
        <ele>989.31</ele>
        <time>2015-04-28T08:22:58Z</time>
      </trkpt>
      <trkpt lat="44.93433" lon="2.95809">
        <ele>986.82</ele>
        <time>2015-04-28T08:23:08Z</time>
      </trkpt>
      <trkpt lat="44.93444" lon="2.958">
        <ele>985.81</ele>
        <time>2015-04-28T08:23:18Z</time>
      </trkpt>
      <trkpt lat="44.93453" lon="2.95793">
        <ele>984.28</ele>
        <time>2015-04-28T08:23:28Z</time>
      </trkpt>
      <trkpt lat="44.93467" lon="2.95788">
        <ele>981.87</ele>
        <time>2015-04-28T08:23:38Z</time>
      </trkpt>
      <trkpt lat="44.93472" lon="2.95779">
        <ele>984.74</ele>
        <time>2015-04-28T08:23:48Z</time>
      </trkpt>
      <trkpt lat="44.9348" lon="2.95775">
        <ele>987.5</ele>
        <time>2015-04-28T08:23:58Z</time>
      </trkpt>
      <trkpt lat="44.93496" lon="2.95774">
        <ele>977.99</ele>
        <time>2015-04-28T08:24:08Z</time>
      </trkpt>
      <trkpt lat="44.93506" lon="2.95769">
        <ele>979.44</ele>
        <time>2015-04-28T08:24:18Z</time>
      </trkpt>
      <trkpt lat="44.93515" lon="2.95759">
        <ele>977.83</ele>
        <time>2015-04-28T08:24:28Z</time>
      </trkpt>
      <trkpt lat="44.93523" lon="2.95753">
        <ele>976.27</ele>
        <time>2015-04-28T08:24:38Z</time>
      </trkpt>
      <trkpt lat="44.93539" lon="2.95742">
        <ele>976.12</ele>
        <time>2015-04-28T08:24:48Z</time>
      </trkpt>
      <trkpt lat="44.9355" lon="2.95729">
        <ele>980.67</ele>
        <time>2015-04-28T08:24:58Z</time>
      </trkpt>
      <trkpt lat="44.93562" lon="2.95718">
        <ele>981.44</ele>
        <time>2015-04-28T08:25:08Z</time>
      </trkpt>
      <trkpt lat="44.9357" lon="2.95711">
        <ele>980.09</ele>
        <time>2015-04-28T08:25:18Z</time>
      </trkpt>
      <trkpt lat="44.93585" lon="2.95701">
        <ele>979.02</ele>
        <time>2015-04-28T08:25:28Z</time>
      </trkpt>
      <trkpt lat="44.93597" lon="2.95697">
        <ele>978.91</ele>
        <time>2015-04-28T08:25:38Z</time>
      </trkpt>
      <trkpt lat="44.9361" lon="2.95692">
        <ele>970.85</ele>
        <time>2015-04-28T08:25:48Z</time>
      </trkpt>
      <trkpt lat="44.9362" lon="2.95683">
        <ele>968</ele>
        <time>2015-04-28T08:25:58Z</time>
      </trkpt>
      <trkpt lat="44.9363" lon="2.95667">
        <ele>973.01</ele>
        <time>2015-04-28T08:26:08Z</time>
      </trkpt>
      <trkpt lat="44.93639" lon="2.95657">
        <ele>978.84</ele>
        <time>2015-04-28T08:26:18Z</time>
      </trkpt>
      <trkpt lat="44.93643" lon="2.95646">
        <ele>979.06</ele>
        <time>2015-04-28T08:26:28Z</time>
      </trkpt>
      <trkpt lat="44.93653" lon="2.95635">
        <ele>975.95</ele>
        <time>2015-04-28T08:26:38Z</time>
      </trkpt>
      <trkpt lat="44.9366" lon="2.9562">
        <ele>974.94</ele>
        <time>2015-04-28T08:26:48Z</time>
      </trkpt>
      <trkpt lat="44.93665" lon="2.95603">
        <ele>974.96</ele>
        <time>2015-04-28T08:26:58Z</time>
      </trkpt>
      <trkpt lat="44.93669" lon="2.95592">
        <ele>978.62</ele>
        <time>2015-04-28T08:27:08Z</time>
      </trkpt>
      <trkpt lat="44.9367" lon="2.95587">
        <ele>981.75</ele>
        <time>2015-04-28T08:27:18Z</time>
      </trkpt>
      <trkpt lat="44.9367" lon="2.9558">
        <ele>984.98</ele>
        <time>2015-04-28T08:27:28Z</time>
      </trkpt>
      <trkpt lat="44.93676" lon="2.95561">
        <ele>989.95</ele>
        <time>2015-04-28T08:27:38Z</time>
      </trkpt>
      <trkpt lat="44.93673" lon="2.95543">
        <ele>987.63</ele>
        <time>2015-04-28T08:27:48Z</time>
      </trkpt>
      <trkpt lat="44.93673" lon="2.95531">
        <ele>984.04</ele>
        <time>2015-04-28T08:27:58Z</time>
      </trkpt>
      <trkpt lat="44.93671" lon="2.95518">
        <ele>985.77</ele>
        <time>2015-04-28T08:28:08Z</time>
      </trkpt>
      <trkpt lat="44.93672" lon="2.95515">
        <ele>982.99</ele>
        <time>2015-04-28T08:28:18Z</time>
      </trkpt>
      <trkpt lat="44.93672" lon="2.95514">
        <ele>984</ele>
        <time>2015-04-28T08:28:28Z</time>
      </trkpt>
      <trkpt lat="44.93671" lon="2.95513">
        <ele>985</ele>
        <time>2015-04-28T08:28:42Z</time>
      </trkpt>
      <trkpt lat="44.93667" lon="2.95494">
        <ele>987.48</ele>
        <time>2015-04-28T08:28:52Z</time>
      </trkpt>
      <trkpt lat="44.93657" lon="2.95482">
        <ele>986.94</ele>
        <time>2015-04-28T08:29:02Z</time>
      </trkpt>
      <trkpt lat="44.93646" lon="2.95472">
        <ele>984.05</ele>
        <time>2015-04-28T08:29:12Z</time>
      </trkpt>
      <trkpt lat="44.93636" lon="2.95464">
        <ele>979.39</ele>
        <time>2015-04-28T08:29:22Z</time>
      </trkpt>
      <trkpt lat="44.93625" lon="2.95456">
        <ele>982.94</ele>
        <time>2015-04-28T08:29:32Z</time>
      </trkpt>
      <trkpt lat="44.93612" lon="2.95448">
        <ele>989.4</ele>
        <time>2015-04-28T08:29:42Z</time>
      </trkpt>
      <trkpt lat="44.93599" lon="2.95433">
        <ele>993.2</ele>
        <time>2015-04-28T08:29:52Z</time>
      </trkpt>
      <trkpt lat="44.93589" lon="2.95419">
        <ele>993.27</ele>
        <time>2015-04-28T08:30:02Z</time>
      </trkpt>
      <trkpt lat="44.93583" lon="2.95404">
        <ele>992.98</ele>
        <time>2015-04-28T08:30:12Z</time>
      </trkpt>
      <trkpt lat="44.93572" lon="2.95397">
        <ele>995</ele>
        <time>2015-04-28T08:30:22Z</time>
      </trkpt>
      <trkpt lat="44.93562" lon="2.95391">
        <ele>988.83</ele>
        <time>2015-04-28T08:30:32Z</time>
      </trkpt>
      <trkpt lat="44.93549" lon="2.95385">
        <ele>991.99</ele>
        <time>2015-04-28T08:30:42Z</time>
      </trkpt>
      <trkpt lat="44.93538" lon="2.95374">
        <ele>992.3</ele>
        <time>2015-04-28T08:30:52Z</time>
      </trkpt>
      <trkpt lat="44.93538" lon="2.95365">
        <ele>988.67</ele>
        <time>2015-04-28T08:31:02Z</time>
      </trkpt>
      <trkpt lat="44.93537" lon="2.95362">
        <ele>988.77</ele>
        <time>2015-04-28T08:31:12Z</time>
      </trkpt>
      <trkpt lat="44.93532" lon="2.95352">
        <ele>988.02</ele>
        <time>2015-04-28T08:31:22Z</time>
      </trkpt>
      <trkpt lat="44.93533" lon="2.95351">
        <ele>990</ele>
        <time>2015-04-28T08:31:32Z</time>
      </trkpt>
      <trkpt lat="44.93534" lon="2.95339">
        <ele>990.75</ele>
        <time>2015-04-28T08:31:42Z</time>
      </trkpt>
      <trkpt lat="44.9353" lon="2.95334">
        <ele>990</ele>
        <time>2015-04-28T08:31:52Z</time>
      </trkpt>
      <trkpt lat="44.93526" lon="2.95331">
        <ele>992.99</ele>
        <time>2015-04-28T08:32:02Z</time>
      </trkpt>
      <trkpt lat="44.93523" lon="2.95327">
        <ele>993.93</ele>
        <time>2015-04-28T08:32:12Z</time>
      </trkpt>
      <trkpt lat="44.93521" lon="2.95321">
        <ele>996.01</ele>
        <time>2015-04-28T08:32:22Z</time>
      </trkpt>
      <trkpt lat="44.93522" lon="2.95322">
        <ele>996.01</ele>
        <time>2015-04-28T08:32:32Z</time>
      </trkpt>
      <trkpt lat="44.93522" lon="2.95324">
        <ele>995</ele>
        <time>2015-04-28T08:33:07Z</time>
      </trkpt>
      <trkpt lat="44.93522" lon="2.95338">
        <ele>993.23</ele>
        <time>2015-04-28T08:33:17Z</time>
      </trkpt>
      <trkpt lat="44.93523" lon="2.95337">
        <ele>995</ele>
        <time>2015-04-28T08:33:27Z</time>
      </trkpt>
      <trkpt lat="44.93524" lon="2.95338">
        <ele>995</ele>
        <time>2015-04-28T08:33:48Z</time>
      </trkpt>
      <trkpt lat="44.9353" lon="2.9534">
        <ele>996.18</ele>
        <time>2015-04-28T08:33:58Z</time>
      </trkpt>
      <trkpt lat="44.9353" lon="2.95341">
        <ele>994.06</ele>
        <time>2015-04-28T08:34:08Z</time>
      </trkpt>
      <trkpt lat="44.9353" lon="2.95343">
        <ele>993.25</ele>
        <time>2015-04-28T08:38:59Z</time>
      </trkpt>
      <trkpt lat="44.93528" lon="2.9535">
        <ele>989.06</ele>
        <time>2015-04-28T08:39:09Z</time>
      </trkpt>
      <trkpt lat="44.9353" lon="2.95345">
        <ele>984</ele>
        <time>2015-04-28T08:39:19Z</time>
      </trkpt>
      <trkpt lat="44.93531" lon="2.95346">
        <ele>987</ele>
        <time>2015-04-28T08:39:29Z</time>
      </trkpt>
      <trkpt lat="44.93536" lon="2.95361">
        <ele>992.1</ele>
        <time>2015-04-28T08:39:39Z</time>
      </trkpt>
      <trkpt lat="44.93541" lon="2.95376">
        <ele>992</ele>
        <time>2015-04-28T08:39:49Z</time>
      </trkpt>
      <trkpt lat="44.93547" lon="2.95387">
        <ele>989.75</ele>
        <time>2015-04-28T08:39:59Z</time>
      </trkpt>
      <trkpt lat="44.93557" lon="2.95389">
        <ele>993.94</ele>
        <time>2015-04-28T08:40:09Z</time>
      </trkpt>
      <trkpt lat="44.93564" lon="2.95397">
        <ele>986.21</ele>
        <time>2015-04-28T08:40:19Z</time>
      </trkpt>
      <trkpt lat="44.93577" lon="2.95405">
        <ele>984.74</ele>
        <time>2015-04-28T08:40:29Z</time>
      </trkpt>
      <trkpt lat="44.93591" lon="2.95416">
        <ele>989</ele>
        <time>2015-04-28T08:40:39Z</time>
      </trkpt>
      <trkpt lat="44.936" lon="2.95431">
        <ele>986.57</ele>
        <time>2015-04-28T08:40:49Z</time>
      </trkpt>
      <trkpt lat="44.936" lon="2.95444">
        <ele>984.5</ele>
        <time>2015-04-28T08:40:59Z</time>
      </trkpt>
      <trkpt lat="44.93606" lon="2.9544">
        <ele>987.92</ele>
        <time>2015-04-28T08:41:09Z</time>
      </trkpt>
      <trkpt lat="44.93607" lon="2.9544">
        <ele>989</ele>
        <time>2015-04-28T08:41:19Z</time>
      </trkpt>
      <trkpt lat="44.93617" lon="2.95448">
        <ele>990.01</ele>
        <time>2015-04-28T08:41:29Z</time>
      </trkpt>
      <trkpt lat="44.9363" lon="2.95455">
        <ele>989.81</ele>
        <time>2015-04-28T08:41:39Z</time>
      </trkpt>
      <trkpt lat="44.93645" lon="2.95467">
        <ele>988.25</ele>
        <time>2015-04-28T08:41:49Z</time>
      </trkpt>
      <trkpt lat="44.93656" lon="2.95474">
        <ele>986.58</ele>
        <time>2015-04-28T08:41:59Z</time>
      </trkpt>
      <trkpt lat="44.93667" lon="2.95482">
        <ele>990.51</ele>
        <time>2015-04-28T08:42:09Z</time>
      </trkpt>
      <trkpt lat="44.93671" lon="2.95498">
        <ele>988</ele>
        <time>2015-04-28T08:42:19Z</time>
      </trkpt>
      <trkpt lat="44.93672" lon="2.9551">
        <ele>985</ele>
        <time>2015-04-28T08:42:29Z</time>
      </trkpt>
      <trkpt lat="44.93681" lon="2.95521">
        <ele>987.68</ele>
        <time>2015-04-28T08:42:39Z</time>
      </trkpt>
      <trkpt lat="44.93691" lon="2.9553">
        <ele>990.74</ele>
        <time>2015-04-28T08:42:49Z</time>
      </trkpt>
      <trkpt lat="44.9369" lon="2.95526">
        <ele>993</ele>
        <time>2015-04-28T08:42:59Z</time>
      </trkpt>
      <trkpt lat="44.93689" lon="2.95527">
        <ele>992</ele>
        <time>2015-04-28T08:43:09Z</time>
      </trkpt>
      <trkpt lat="44.93689" lon="2.95529">
        <ele>992</ele>
        <time>2015-04-28T08:43:21Z</time>
      </trkpt>
      <trkpt lat="44.93689" lon="2.95547">
        <ele>994.02</ele>
        <time>2015-04-28T08:43:31Z</time>
      </trkpt>
      <trkpt lat="44.9369" lon="2.95562">
        <ele>993.95</ele>
        <time>2015-04-28T08:43:41Z</time>
      </trkpt>
      <trkpt lat="44.93685" lon="2.95576">
        <ele>990.79</ele>
        <time>2015-04-28T08:43:51Z</time>
      </trkpt>
      <trkpt lat="44.93683" lon="2.95586">
        <ele>987.5</ele>
        <time>2015-04-28T08:44:01Z</time>
      </trkpt>
      <trkpt lat="44.93685" lon="2.95586">
        <ele>987.17</ele>
        <time>2015-04-28T08:44:11Z</time>
      </trkpt>
      <trkpt lat="44.93685" lon="2.95589">
        <ele>987</ele>
        <time>2015-04-28T08:44:33Z</time>
      </trkpt>
      <trkpt lat="44.93686" lon="2.95605">
        <ele>991.75</ele>
        <time>2015-04-28T08:44:43Z</time>
      </trkpt>
      <trkpt lat="44.93692" lon="2.9562">
        <ele>991.75</ele>
        <time>2015-04-28T08:44:53Z</time>
      </trkpt>
      <trkpt lat="44.93697" lon="2.95637">
        <ele>992.07</ele>
        <time>2015-04-28T08:45:03Z</time>
      </trkpt>
      <trkpt lat="44.93701" lon="2.95645">
        <ele>991.19</ele>
        <time>2015-04-28T08:45:13Z</time>
      </trkpt>
      <trkpt lat="44.93701" lon="2.95644">
        <ele>991.94</ele>
        <time>2015-04-28T08:45:23Z</time>
      </trkpt>
      <trkpt lat="44.93701" lon="2.95659">
        <ele>992.87</ele>
        <time>2015-04-28T08:45:33Z</time>
      </trkpt>
      <trkpt lat="44.937" lon="2.95677">
        <ele>993.94</ele>
        <time>2015-04-28T08:45:43Z</time>
      </trkpt>
      <trkpt lat="44.937" lon="2.95688">
        <ele>994.81</ele>
        <time>2015-04-28T08:45:53Z</time>
      </trkpt>
      <trkpt lat="44.93701" lon="2.95686">
        <ele>990.28</ele>
        <time>2015-04-28T08:46:05Z</time>
      </trkpt>
      <trkpt lat="44.93712" lon="2.95679">
        <ele>989.05</ele>
        <time>2015-04-28T08:46:15Z</time>
      </trkpt>
      <trkpt lat="44.93714" lon="2.95661">
        <ele>988.5</ele>
        <time>2015-04-28T08:46:25Z</time>
      </trkpt>
      <trkpt lat="44.93723" lon="2.9566">
        <ele>988.74</ele>
        <time>2015-04-28T08:46:35Z</time>
      </trkpt>
      <trkpt lat="44.93725" lon="2.95659">
        <ele>987.25</ele>
        <time>2015-04-28T08:46:45Z</time>
      </trkpt>
      <trkpt lat="44.93729" lon="2.95659">
        <ele>986.92</ele>
        <time>2015-04-28T08:46:55Z</time>
      </trkpt>
      <trkpt lat="44.93744" lon="2.95668">
        <ele>990.99</ele>
        <time>2015-04-28T08:47:05Z</time>
      </trkpt>
      <trkpt lat="44.93753" lon="2.95678">
        <ele>990.8</ele>
        <time>2015-04-28T08:47:15Z</time>
      </trkpt>
      <trkpt lat="44.93756" lon="2.95689">
        <ele>993</ele>
        <time>2015-04-28T08:47:25Z</time>
      </trkpt>
      <trkpt lat="44.93761" lon="2.95703">
        <ele>991.58</ele>
        <time>2015-04-28T08:47:35Z</time>
      </trkpt>
      <trkpt lat="44.93771" lon="2.95714">
        <ele>992.19</ele>
        <time>2015-04-28T08:47:45Z</time>
      </trkpt>
      <trkpt lat="44.93779" lon="2.95726">
        <ele>990.83</ele>
        <time>2015-04-28T08:47:55Z</time>
      </trkpt>
      <trkpt lat="44.93788" lon="2.9574">
        <ele>993.5</ele>
        <time>2015-04-28T08:48:05Z</time>
      </trkpt>
      <trkpt lat="44.93796" lon="2.95754">
        <ele>992.76</ele>
        <time>2015-04-28T08:48:15Z</time>
      </trkpt>
      <trkpt lat="44.93805" lon="2.95766">
        <ele>995.07</ele>
        <time>2015-04-28T08:48:25Z</time>
      </trkpt>
      <trkpt lat="44.93812" lon="2.95778">
        <ele>996.69</ele>
        <time>2015-04-28T08:48:35Z</time>
      </trkpt>
      <trkpt lat="44.93816" lon="2.95792">
        <ele>997.23</ele>
        <time>2015-04-28T08:48:45Z</time>
      </trkpt>
      <trkpt lat="44.93819" lon="2.95806">
        <ele>996.33</ele>
        <time>2015-04-28T08:48:55Z</time>
      </trkpt>
      <trkpt lat="44.93827" lon="2.95811">
        <ele>993.82</ele>
        <time>2015-04-28T08:49:05Z</time>
      </trkpt>
      <trkpt lat="44.93827" lon="2.95809">
        <ele>996.98</ele>
        <time>2015-04-28T08:49:15Z</time>
      </trkpt>
      <trkpt lat="44.93827" lon="2.95811">
        <ele>997.94</ele>
        <time>2015-04-28T08:49:33Z</time>
      </trkpt>
      <trkpt lat="44.93832" lon="2.95829">
        <ele>997.75</ele>
        <time>2015-04-28T08:49:43Z</time>
      </trkpt>
      <trkpt lat="44.93837" lon="2.95845">
        <ele>997.23</ele>
        <time>2015-04-28T08:49:53Z</time>
      </trkpt>
      <trkpt lat="44.93842" lon="2.95859">
        <ele>994.25</ele>
        <time>2015-04-28T08:50:03Z</time>
      </trkpt>
      <trkpt lat="44.93849" lon="2.95875">
        <ele>994.98</ele>
        <time>2015-04-28T08:50:13Z</time>
      </trkpt>
      <trkpt lat="44.93853" lon="2.95891">
        <ele>992.76</ele>
        <time>2015-04-28T08:50:23Z</time>
      </trkpt>
      <trkpt lat="44.93859" lon="2.95905">
        <ele>995.75</ele>
        <time>2015-04-28T08:50:33Z</time>
      </trkpt>
      <trkpt lat="44.93864" lon="2.9592">
        <ele>1000.67</ele>
        <time>2015-04-28T08:50:43Z</time>
      </trkpt>
      <trkpt lat="44.93865" lon="2.95933">
        <ele>1000.25</ele>
        <time>2015-04-28T08:50:53Z</time>
      </trkpt>
      <trkpt lat="44.93873" lon="2.95943">
        <ele>1004.75</ele>
        <time>2015-04-28T08:51:03Z</time>
      </trkpt>
      <trkpt lat="44.93881" lon="2.95953">
        <ele>1005.87</ele>
        <time>2015-04-28T08:51:13Z</time>
      </trkpt>
      <trkpt lat="44.93909" lon="2.95958">
        <ele>1017.22</ele>
        <time>2015-04-28T08:51:23Z</time>
      </trkpt>
      <trkpt lat="44.93913" lon="2.95968">
        <ele>1019.09</ele>
        <time>2015-04-28T08:51:33Z</time>
      </trkpt>
      <trkpt lat="44.93913" lon="2.95978">
        <ele>1019.16</ele>
        <time>2015-04-28T08:51:43Z</time>
      </trkpt>
      <trkpt lat="44.93921" lon="2.95984">
        <ele>1021.16</ele>
        <time>2015-04-28T08:51:53Z</time>
      </trkpt>
      <trkpt lat="44.93928" lon="2.95992">
        <ele>1019.01</ele>
        <time>2015-04-28T08:52:03Z</time>
      </trkpt>
      <trkpt lat="44.93935" lon="2.95999">
        <ele>1019.25</ele>
        <time>2015-04-28T08:52:13Z</time>
      </trkpt>
      <trkpt lat="44.93944" lon="2.96006">
        <ele>1021.98</ele>
        <time>2015-04-28T08:52:23Z</time>
      </trkpt>
      <trkpt lat="44.93954" lon="2.96012">
        <ele>1026.63</ele>
        <time>2015-04-28T08:52:33Z</time>
      </trkpt>
      <trkpt lat="44.93958" lon="2.96021">
        <ele>1023.77</ele>
        <time>2015-04-28T08:52:43Z</time>
      </trkpt>
      <trkpt lat="44.93961" lon="2.9603">
        <ele>1019.02</ele>
        <time>2015-04-28T08:52:53Z</time>
      </trkpt>
      <trkpt lat="44.93974" lon="2.96037">
        <ele>1030.12</ele>
        <time>2015-04-28T08:53:03Z</time>
      </trkpt>
      <trkpt lat="44.9398" lon="2.96047">
        <ele>1031.01</ele>
        <time>2015-04-28T08:53:13Z</time>
      </trkpt>
      <trkpt lat="44.93984" lon="2.96052">
        <ele>1029.96</ele>
        <time>2015-04-28T08:53:23Z</time>
      </trkpt>
      <trkpt lat="44.93991" lon="2.96062">
        <ele>1031.82</ele>
        <time>2015-04-28T08:53:33Z</time>
      </trkpt>
      <trkpt lat="44.94001" lon="2.96074">
        <ele>1026.26</ele>
        <time>2015-04-28T08:53:43Z</time>
      </trkpt>
      <trkpt lat="44.94008" lon="2.96081">
        <ele>1025.88</ele>
        <time>2015-04-28T08:53:53Z</time>
      </trkpt>
      <trkpt lat="44.94014" lon="2.96088">
        <ele>1029.98</ele>
        <time>2015-04-28T08:54:03Z</time>
      </trkpt>
      <trkpt lat="44.94026" lon="2.96093">
        <ele>1034.71</ele>
        <time>2015-04-28T08:54:13Z</time>
      </trkpt>
      <trkpt lat="44.9404" lon="2.96099">
        <ele>1036</ele>
        <time>2015-04-28T08:54:23Z</time>
      </trkpt>
      <trkpt lat="44.94047" lon="2.96105">
        <ele>1031.33</ele>
        <time>2015-04-28T08:54:33Z</time>
      </trkpt>
      <trkpt lat="44.94057" lon="2.9611">
        <ele>1030.06</ele>
        <time>2015-04-28T08:54:43Z</time>
      </trkpt>
      <trkpt lat="44.94061" lon="2.96114">
        <ele>1028</ele>
        <time>2015-04-28T08:54:53Z</time>
      </trkpt>
      <trkpt lat="44.94068" lon="2.96122">
        <ele>1025.86</ele>
        <time>2015-04-28T08:55:03Z</time>
      </trkpt>
      <trkpt lat="44.94081" lon="2.96128">
        <ele>1029.98</ele>
        <time>2015-04-28T08:55:13Z</time>
      </trkpt>
      <trkpt lat="44.94097" lon="2.9613">
        <ele>1038.94</ele>
        <time>2015-04-28T08:55:23Z</time>
      </trkpt>
      <trkpt lat="44.94107" lon="2.96137">
        <ele>1042.17</ele>
        <time>2015-04-28T08:55:33Z</time>
      </trkpt>
      <trkpt lat="44.94115" lon="2.96149">
        <ele>1039</ele>
        <time>2015-04-28T08:55:43Z</time>
      </trkpt>
      <trkpt lat="44.94127" lon="2.9616">
        <ele>1038.81</ele>
        <time>2015-04-28T08:55:53Z</time>
      </trkpt>
      <trkpt lat="44.94134" lon="2.96162">
        <ele>1038.24</ele>
        <time>2015-04-28T08:56:03Z</time>
      </trkpt>
      <trkpt lat="44.94148" lon="2.9617">
        <ele>1042.22</ele>
        <time>2015-04-28T08:56:13Z</time>
      </trkpt>
      <trkpt lat="44.94158" lon="2.96181">
        <ele>1041.06</ele>
        <time>2015-04-28T08:56:23Z</time>
      </trkpt>
      <trkpt lat="44.94164" lon="2.96191">
        <ele>1040.5</ele>
        <time>2015-04-28T08:56:33Z</time>
      </trkpt>
      <trkpt lat="44.94174" lon="2.962">
        <ele>1038.06</ele>
        <time>2015-04-28T08:56:43Z</time>
      </trkpt>
      <trkpt lat="44.9418" lon="2.96209">
        <ele>1035.02</ele>
        <time>2015-04-28T08:56:53Z</time>
      </trkpt>
      <trkpt lat="44.9419" lon="2.96217">
        <ele>1035.75</ele>
        <time>2015-04-28T08:57:03Z</time>
      </trkpt>
      <trkpt lat="44.942" lon="2.96223">
        <ele>1036.25</ele>
        <time>2015-04-28T08:57:13Z</time>
      </trkpt>
      <trkpt lat="44.94212" lon="2.96229">
        <ele>1042.67</ele>
        <time>2015-04-28T08:57:23Z</time>
      </trkpt>
      <trkpt lat="44.94222" lon="2.96237">
        <ele>1043.94</ele>
        <time>2015-04-28T08:57:33Z</time>
      </trkpt>
      <trkpt lat="44.94232" lon="2.96239">
        <ele>1047.93</ele>
        <time>2015-04-28T08:57:43Z</time>
      </trkpt>
      <trkpt lat="44.94234" lon="2.96239">
        <ele>1048</ele>
        <time>2015-04-28T08:57:53Z</time>
      </trkpt>
      <trkpt lat="44.9424" lon="2.96243">
        <ele>1048.99</ele>
        <time>2015-04-28T08:58:03Z</time>
      </trkpt>
      <trkpt lat="44.94252" lon="2.96245">
        <ele>1051.69</ele>
        <time>2015-04-28T08:58:13Z</time>
      </trkpt>
      <trkpt lat="44.94263" lon="2.96249">
        <ele>1046</ele>
        <time>2015-04-28T08:58:23Z</time>
      </trkpt>
      <trkpt lat="44.94276" lon="2.96248">
        <ele>1047.2</ele>
        <time>2015-04-28T08:58:33Z</time>
      </trkpt>
      <trkpt lat="44.9429" lon="2.96248">
        <ele>1044.99</ele>
        <time>2015-04-28T08:58:43Z</time>
      </trkpt>
      <trkpt lat="44.94299" lon="2.96255">
        <ele>1044.75</ele>
        <time>2015-04-28T08:58:53Z</time>
      </trkpt>
      <trkpt lat="44.94312" lon="2.96261">
        <ele>1044.91</ele>
        <time>2015-04-28T08:59:03Z</time>
      </trkpt>
      <trkpt lat="44.94322" lon="2.96269">
        <ele>1045.69</ele>
        <time>2015-04-28T08:59:13Z</time>
      </trkpt>
      <trkpt lat="44.94341" lon="2.96276">
        <ele>1054.73</ele>
        <time>2015-04-28T08:59:23Z</time>
      </trkpt>
      <trkpt lat="44.94351" lon="2.96284">
        <ele>1047.32</ele>
        <time>2015-04-28T08:59:33Z</time>
      </trkpt>
      <trkpt lat="44.94361" lon="2.9629">
        <ele>1044.87</ele>
        <time>2015-04-28T08:59:43Z</time>
      </trkpt>
      <trkpt lat="44.94374" lon="2.96295">
        <ele>1047.77</ele>
        <time>2015-04-28T08:59:53Z</time>
      </trkpt>
      <trkpt lat="44.94385" lon="2.96287">
        <ele>1051.25</ele>
        <time>2015-04-28T09:00:03Z</time>
      </trkpt>
      <trkpt lat="44.94394" lon="2.96278">
        <ele>1051.23</ele>
        <time>2015-04-28T09:00:13Z</time>
      </trkpt>
      <trkpt lat="44.94403" lon="2.96269">
        <ele>1051.08</ele>
        <time>2015-04-28T09:00:23Z</time>
      </trkpt>
      <trkpt lat="44.94411" lon="2.96254">
        <ele>1052.01</ele>
        <time>2015-04-28T09:00:33Z</time>
      </trkpt>
      <trkpt lat="44.9442" lon="2.9624">
        <ele>1053.99</ele>
        <time>2015-04-28T09:00:43Z</time>
      </trkpt>
      <trkpt lat="44.94431" lon="2.96228">
        <ele>1054.69</ele>
        <time>2015-04-28T09:00:53Z</time>
      </trkpt>
      <trkpt lat="44.94441" lon="2.96213">
        <ele>1056.75</ele>
        <time>2015-04-28T09:01:03Z</time>
      </trkpt>
      <trkpt lat="44.94447" lon="2.96201">
        <ele>1052.88</ele>
        <time>2015-04-28T09:01:13Z</time>
      </trkpt>
      <trkpt lat="44.94457" lon="2.96202">
        <ele>1047.07</ele>
        <time>2015-04-28T09:01:23Z</time>
      </trkpt>
      <trkpt lat="44.94467" lon="2.96192">
        <ele>1044.73</ele>
        <time>2015-04-28T09:01:33Z</time>
      </trkpt>
      <trkpt lat="44.94477" lon="2.96184">
        <ele>1045.74</ele>
        <time>2015-04-28T09:01:43Z</time>
      </trkpt>
      <trkpt lat="44.94484" lon="2.96174">
        <ele>1048.23</ele>
        <time>2015-04-28T09:01:53Z</time>
      </trkpt>
      <trkpt lat="44.94498" lon="2.96168">
        <ele>1045.62</ele>
        <time>2015-04-28T09:02:03Z</time>
      </trkpt>
      <trkpt lat="44.94512" lon="2.96158">
        <ele>1043.25</ele>
        <time>2015-04-28T09:02:13Z</time>
      </trkpt>
      <trkpt lat="44.94519" lon="2.96143">
        <ele>1047.64</ele>
        <time>2015-04-28T09:02:23Z</time>
      </trkpt>
      <trkpt lat="44.94527" lon="2.9613">
        <ele>1046</ele>
        <time>2015-04-28T09:02:33Z</time>
      </trkpt>
      <trkpt lat="44.94535" lon="2.96125">
        <ele>1046</ele>
        <time>2015-04-28T09:02:43Z</time>
      </trkpt>
      <trkpt lat="44.94543" lon="2.96117">
        <ele>1045.69</ele>
        <time>2015-04-28T09:02:53Z</time>
      </trkpt>
      <trkpt lat="44.94544" lon="2.96109">
        <ele>1043.16</ele>
        <time>2015-04-28T09:03:03Z</time>
      </trkpt>
      <trkpt lat="44.94552" lon="2.96103">
        <ele>1041.56</ele>
        <time>2015-04-28T09:03:13Z</time>
      </trkpt>
      <trkpt lat="44.94567" lon="2.96097">
        <ele>1048.75</ele>
        <time>2015-04-28T09:03:23Z</time>
      </trkpt>
      <trkpt lat="44.94568" lon="2.96096">
        <ele>1050</ele>
        <time>2015-04-28T09:03:33Z</time>
      </trkpt>
      <trkpt lat="44.9457" lon="2.96094">
        <ele>1050</ele>
        <time>2015-04-28T09:03:47Z</time>
      </trkpt>
      <trkpt lat="44.94584" lon="2.96086">
        <ele>1045.39</ele>
        <time>2015-04-28T09:03:57Z</time>
      </trkpt>
      <trkpt lat="44.94591" lon="2.96082">
        <ele>1039.24</ele>
        <time>2015-04-28T09:04:07Z</time>
      </trkpt>
      <trkpt lat="44.94598" lon="2.96072">
        <ele>1039.75</ele>
        <time>2015-04-28T09:04:17Z</time>
      </trkpt>
      <trkpt lat="44.94607" lon="2.96055">
        <ele>1044.98</ele>
        <time>2015-04-28T09:04:27Z</time>
      </trkpt>
      <trkpt lat="44.94614" lon="2.9605">
        <ele>1044.06</ele>
        <time>2015-04-28T09:04:37Z</time>
      </trkpt>
      <trkpt lat="44.94625" lon="2.96039">
        <ele>1044.14</ele>
        <time>2015-04-28T09:04:47Z</time>
      </trkpt>
      <trkpt lat="44.94636" lon="2.96026">
        <ele>1045.75</ele>
        <time>2015-04-28T09:04:57Z</time>
      </trkpt>
      <trkpt lat="44.94641" lon="2.96018">
        <ele>1042.25</ele>
        <time>2015-04-28T09:05:07Z</time>
      </trkpt>
      <trkpt lat="44.94654" lon="2.96009">
        <ele>1038.28</ele>
        <time>2015-04-28T09:05:17Z</time>
      </trkpt>
      <trkpt lat="44.94665" lon="2.96003">
        <ele>1037</ele>
        <time>2015-04-28T09:05:27Z</time>
      </trkpt>
      <trkpt lat="44.94677" lon="2.95999">
        <ele>1037.95</ele>
        <time>2015-04-28T09:05:37Z</time>
      </trkpt>
      <trkpt lat="44.94688" lon="2.95995">
        <ele>1043.32</ele>
        <time>2015-04-28T09:05:47Z</time>
      </trkpt>
      <trkpt lat="44.94692" lon="2.95991">
        <ele>1041.5</ele>
        <time>2015-04-28T09:05:57Z</time>
      </trkpt>
      <trkpt lat="44.94699" lon="2.95987">
        <ele>1034.44</ele>
        <time>2015-04-28T09:06:07Z</time>
      </trkpt>
      <trkpt lat="44.94708" lon="2.9598">
        <ele>1036.01</ele>
        <time>2015-04-28T09:06:17Z</time>
      </trkpt>
      <trkpt lat="44.94714" lon="2.95975">
        <ele>1036.22</ele>
        <time>2015-04-28T09:06:27Z</time>
      </trkpt>
      <trkpt lat="44.94737" lon="2.95969">
        <ele>1042.59</ele>
        <time>2015-04-28T09:06:37Z</time>
      </trkpt>
      <trkpt lat="44.94743" lon="2.95965">
        <ele>1043.01</ele>
        <time>2015-04-28T09:06:47Z</time>
      </trkpt>
      <trkpt lat="44.94756" lon="2.9596">
        <ele>1043.83</ele>
        <time>2015-04-28T09:06:57Z</time>
      </trkpt>
      <trkpt lat="44.94763" lon="2.95957">
        <ele>1036.33</ele>
        <time>2015-04-28T09:07:07Z</time>
      </trkpt>
      <trkpt lat="44.94771" lon="2.95947">
        <ele>1034.33</ele>
        <time>2015-04-28T09:07:17Z</time>
      </trkpt>
      <trkpt lat="44.94782" lon="2.95932">
        <ele>1031.81</ele>
        <time>2015-04-28T09:07:27Z</time>
      </trkpt>
      <trkpt lat="44.94789" lon="2.95914">
        <ele>1031.32</ele>
        <time>2015-04-28T09:07:37Z</time>
      </trkpt>
      <trkpt lat="44.94792" lon="2.95902">
        <ele>1025.36</ele>
        <time>2015-04-28T09:07:47Z</time>
      </trkpt>
      <trkpt lat="44.94787" lon="2.95888">
        <ele>1020.57</ele>
        <time>2015-04-28T09:07:57Z</time>
      </trkpt>
      <trkpt lat="44.94783" lon="2.95876">
        <ele>1019.14</ele>
        <time>2015-04-28T09:08:07Z</time>
      </trkpt>
      <trkpt lat="44.94779" lon="2.95859">
        <ele>1022.01</ele>
        <time>2015-04-28T09:08:17Z</time>
      </trkpt>
      <trkpt lat="44.9478" lon="2.95853">
        <ele>1022.25</ele>
        <time>2015-04-28T09:08:27Z</time>
      </trkpt>
      <trkpt lat="44.9478" lon="2.95851">
        <ele>1025</ele>
        <time>2015-04-28T09:08:37Z</time>
      </trkpt>
      <trkpt lat="44.94779" lon="2.95851">
        <ele>1025.75</ele>
        <time>2015-04-28T09:08:48Z</time>
      </trkpt>
      <trkpt lat="44.9478" lon="2.95852">
        <ele>1025</ele>
        <time>2015-04-28T09:08:58Z</time>
      </trkpt>
      <trkpt lat="44.94781" lon="2.95854">
        <ele>1023</ele>
        <time>2015-04-28T09:09:08Z</time>
      </trkpt>
      <trkpt lat="44.94781" lon="2.95852">
        <ele>1023.94</ele>
        <time>2015-04-28T09:09:18Z</time>
      </trkpt>
      <trkpt lat="44.94787" lon="2.95838">
        <ele>1024.02</ele>
        <time>2015-04-28T09:09:28Z</time>
      </trkpt>
      <trkpt lat="44.94795" lon="2.95833">
        <ele>1024.93</ele>
        <time>2015-04-28T09:09:38Z</time>
      </trkpt>
      <trkpt lat="44.94798" lon="2.95831">
        <ele>1025.26</ele>
        <time>2015-04-28T09:09:48Z</time>
      </trkpt>
      <trkpt lat="44.94798" lon="2.95829">
        <ele>1025</ele>
        <time>2015-04-28T09:10:02Z</time>
      </trkpt>
      <trkpt lat="44.94806" lon="2.95818">
        <ele>1027.95</ele>
        <time>2015-04-28T09:10:12Z</time>
      </trkpt>
      <trkpt lat="44.94815" lon="2.9581">
        <ele>1027.94</ele>
        <time>2015-04-28T09:10:22Z</time>
      </trkpt>
      <trkpt lat="44.94826" lon="2.95801">
        <ele>1028.69</ele>
        <time>2015-04-28T09:10:32Z</time>
      </trkpt>
      <trkpt lat="44.94838" lon="2.95793">
        <ele>1029.75</ele>
        <time>2015-04-28T09:10:42Z</time>
      </trkpt>
      <trkpt lat="44.94853" lon="2.95788">
        <ele>1032.98</ele>
        <time>2015-04-28T09:10:52Z</time>
      </trkpt>
      <trkpt lat="44.94857" lon="2.95786">
        <ele>1032.94</ele>
        <time>2015-04-28T09:11:02Z</time>
      </trkpt>
      <trkpt lat="44.94876" lon="2.95782">
        <ele>1036.95</ele>
        <time>2015-04-28T09:11:12Z</time>
      </trkpt>
      <trkpt lat="44.94891" lon="2.95778">
        <ele>1037.12</ele>
        <time>2015-04-28T09:11:22Z</time>
      </trkpt>
      <trkpt lat="44.94905" lon="2.95774">
        <ele>1040.7</ele>
        <time>2015-04-28T09:11:32Z</time>
      </trkpt>
      <trkpt lat="44.94918" lon="2.95772">
        <ele>1039.19</ele>
        <time>2015-04-28T09:11:42Z</time>
      </trkpt>
      <trkpt lat="44.94932" lon="2.95773">
        <ele>1040</ele>
        <time>2015-04-28T09:11:52Z</time>
      </trkpt>
      <trkpt lat="44.94945" lon="2.95774">
        <ele>1040.25</ele>
        <time>2015-04-28T09:12:02Z</time>
      </trkpt>
      <trkpt lat="44.94959" lon="2.95776">
        <ele>1041.94</ele>
        <time>2015-04-28T09:12:12Z</time>
      </trkpt>
      <trkpt lat="44.94974" lon="2.9578">
        <ele>1042.04</ele>
        <time>2015-04-28T09:12:22Z</time>
      </trkpt>
      <trkpt lat="44.94988" lon="2.95782">
        <ele>1042.06</ele>
        <time>2015-04-28T09:12:32Z</time>
      </trkpt>
      <trkpt lat="44.94999" lon="2.95788">
        <ele>1039.25</ele>
        <time>2015-04-28T09:12:42Z</time>
      </trkpt>
      <trkpt lat="44.95009" lon="2.95793">
        <ele>1038.7</ele>
        <time>2015-04-28T09:12:52Z</time>
      </trkpt>
      <trkpt lat="44.95015" lon="2.95803">
        <ele>1039</ele>
        <time>2015-04-28T09:13:02Z</time>
      </trkpt>
      <trkpt lat="44.95022" lon="2.95813">
        <ele>1041</ele>
        <time>2015-04-28T09:13:12Z</time>
      </trkpt>
      <trkpt lat="44.95035" lon="2.9582">
        <ele>1041.75</ele>
        <time>2015-04-28T09:13:22Z</time>
      </trkpt>
      <trkpt lat="44.95052" lon="2.9582">
        <ele>1045.24</ele>
        <time>2015-04-28T09:13:32Z</time>
      </trkpt>
      <trkpt lat="44.95063" lon="2.95827">
        <ele>1045.02</ele>
        <time>2015-04-28T09:13:42Z</time>
      </trkpt>
      <trkpt lat="44.95078" lon="2.95835">
        <ele>1046.73</ele>
        <time>2015-04-28T09:13:52Z</time>
      </trkpt>
      <trkpt lat="44.95092" lon="2.95844">
        <ele>1044.02</ele>
        <time>2015-04-28T09:14:02Z</time>
      </trkpt>
      <trkpt lat="44.95101" lon="2.95854">
        <ele>1046.69</ele>
        <time>2015-04-28T09:14:12Z</time>
      </trkpt>
      <trkpt lat="44.95109" lon="2.95866">
        <ele>1041.13</ele>
        <time>2015-04-28T09:14:22Z</time>
      </trkpt>
      <trkpt lat="44.95118" lon="2.95875">
        <ele>1041.69</ele>
        <time>2015-04-28T09:14:32Z</time>
      </trkpt>
      <trkpt lat="44.95129" lon="2.95883">
        <ele>1044.26</ele>
        <time>2015-04-28T09:14:42Z</time>
      </trkpt>
      <trkpt lat="44.95137" lon="2.95892">
        <ele>1045.74</ele>
        <time>2015-04-28T09:14:52Z</time>
      </trkpt>
      <trkpt lat="44.95144" lon="2.95902">
        <ele>1044.31</ele>
        <time>2015-04-28T09:15:02Z</time>
      </trkpt>
      <trkpt lat="44.95156" lon="2.95909">
        <ele>1044.06</ele>
        <time>2015-04-28T09:15:12Z</time>
      </trkpt>
      <trkpt lat="44.95166" lon="2.95919">
        <ele>1043.07</ele>
        <time>2015-04-28T09:15:22Z</time>
      </trkpt>
      <trkpt lat="44.95172" lon="2.95919">
        <ele>1046</ele>
        <time>2015-04-28T09:15:32Z</time>
      </trkpt>
      <trkpt lat="44.95166" lon="2.95909">
        <ele>1047.73</ele>
        <time>2015-04-28T09:15:42Z</time>
      </trkpt>
      <trkpt lat="44.95161" lon="2.95901">
        <ele>1047.05</ele>
        <time>2015-04-28T09:15:52Z</time>
      </trkpt>
      <trkpt lat="44.95156" lon="2.95892">
        <ele>1048.06</ele>
        <time>2015-04-28T09:16:02Z</time>
      </trkpt>
      <trkpt lat="44.95146" lon="2.95879">
        <ele>1047.31</ele>
        <time>2015-04-28T09:16:12Z</time>
      </trkpt>
      <trkpt lat="44.95134" lon="2.95866">
        <ele>1046.06</ele>
        <time>2015-04-28T09:16:22Z</time>
      </trkpt>
      <trkpt lat="44.95129" lon="2.9585">
        <ele>1042.49</ele>
        <time>2015-04-28T09:16:32Z</time>
      </trkpt>
      <trkpt lat="44.95121" lon="2.95835">
        <ele>1042.68</ele>
        <time>2015-04-28T09:16:42Z</time>
      </trkpt>
      <trkpt lat="44.95112" lon="2.95826">
        <ele>1042.31</ele>
        <time>2015-04-28T09:16:52Z</time>
      </trkpt>
      <trkpt lat="44.95103" lon="2.95822">
        <ele>1039.22</ele>
        <time>2015-04-28T09:17:02Z</time>
      </trkpt>
      <trkpt lat="44.95094" lon="2.95816">
        <ele>1038</ele>
        <time>2015-04-28T09:17:12Z</time>
      </trkpt>
      <trkpt lat="44.95086" lon="2.95807">
        <ele>1033.97</ele>
        <time>2015-04-28T09:17:22Z</time>
      </trkpt>
      <trkpt lat="44.95077" lon="2.95799">
        <ele>1033.19</ele>
        <time>2015-04-28T09:17:32Z</time>
      </trkpt>
      <trkpt lat="44.95068" lon="2.95788">
        <ele>1029.2</ele>
        <time>2015-04-28T09:17:42Z</time>
      </trkpt>
      <trkpt lat="44.9506" lon="2.95776">
        <ele>1028.03</ele>
        <time>2015-04-28T09:17:52Z</time>
      </trkpt>
      <trkpt lat="44.95049" lon="2.95761">
        <ele>1028.98</ele>
        <time>2015-04-28T09:18:02Z</time>
      </trkpt>
      <trkpt lat="44.95043" lon="2.95748">
        <ele>1031.8</ele>
        <time>2015-04-28T09:18:12Z</time>
      </trkpt>
      <trkpt lat="44.95033" lon="2.95734">
        <ele>1038.68</ele>
        <time>2015-04-28T09:18:22Z</time>
      </trkpt>
      <trkpt lat="44.95028" lon="2.95721">
        <ele>1043.61</ele>
        <time>2015-04-28T09:18:32Z</time>
      </trkpt>
      <trkpt lat="44.95021" lon="2.95705">
        <ele>1048.93</ele>
        <time>2015-04-28T09:18:42Z</time>
      </trkpt>
      <trkpt lat="44.95015" lon="2.95685">
        <ele>1050.93</ele>
        <time>2015-04-28T09:18:52Z</time>
      </trkpt>
      <trkpt lat="44.95011" lon="2.95668">
        <ele>1052.17</ele>
        <time>2015-04-28T09:19:02Z</time>
      </trkpt>
      <trkpt lat="44.9501" lon="2.95652">
        <ele>1055.91</ele>
        <time>2015-04-28T09:19:12Z</time>
      </trkpt>
      <trkpt lat="44.95017" lon="2.95638">
        <ele>1057.77</ele>
        <time>2015-04-28T09:19:22Z</time>
      </trkpt>
      <trkpt lat="44.95027" lon="2.95628">
        <ele>1058.94</ele>
        <time>2015-04-28T09:19:32Z</time>
      </trkpt>
      <trkpt lat="44.95037" lon="2.95619">
        <ele>1059</ele>
        <time>2015-04-28T09:19:42Z</time>
      </trkpt>
      <trkpt lat="44.95047" lon="2.95612">
        <ele>1060.19</ele>
        <time>2015-04-28T09:19:52Z</time>
      </trkpt>
      <trkpt lat="44.95055" lon="2.95602">
        <ele>1061.02</ele>
        <time>2015-04-28T09:20:02Z</time>
      </trkpt>
      <trkpt lat="44.95065" lon="2.95593">
        <ele>1061.06</ele>
        <time>2015-04-28T09:20:12Z</time>
      </trkpt>
      <trkpt lat="44.95074" lon="2.95582">
        <ele>1062</ele>
        <time>2015-04-28T09:20:22Z</time>
      </trkpt>
      <trkpt lat="44.95082" lon="2.95574">
        <ele>1061.06</ele>
        <time>2015-04-28T09:20:32Z</time>
      </trkpt>
      <trkpt lat="44.95089" lon="2.95565">
        <ele>1062</ele>
        <time>2015-04-28T09:20:42Z</time>
      </trkpt>
      <trkpt lat="44.95097" lon="2.95552">
        <ele>1063.44</ele>
        <time>2015-04-28T09:20:52Z</time>
      </trkpt>
      <trkpt lat="44.95104" lon="2.95538">
        <ele>1063.25</ele>
        <time>2015-04-28T09:21:02Z</time>
      </trkpt>
      <trkpt lat="44.95113" lon="2.95528">
        <ele>1063</ele>
        <time>2015-04-28T09:21:12Z</time>
      </trkpt>
      <trkpt lat="44.95117" lon="2.95519">
        <ele>1066.23</ele>
        <time>2015-04-28T09:21:22Z</time>
      </trkpt>
      <trkpt lat="44.95116" lon="2.9552">
        <ele>1067</ele>
        <time>2015-04-28T09:21:32Z</time>
      </trkpt>
      <trkpt lat="44.95112" lon="2.95514">
        <ele>1068</ele>
        <time>2015-04-28T09:21:42Z</time>
      </trkpt>
      <trkpt lat="44.95102" lon="2.95499">
        <ele>1064.75</ele>
        <time>2015-04-28T09:21:52Z</time>
      </trkpt>
      <trkpt lat="44.95093" lon="2.95488">
        <ele>1064.5</ele>
        <time>2015-04-28T09:22:02Z</time>
      </trkpt>
      <trkpt lat="44.95081" lon="2.95479">
        <ele>1065.74</ele>
        <time>2015-04-28T09:22:12Z</time>
      </trkpt>
      <trkpt lat="44.95068" lon="2.95473">
        <ele>1067.69</ele>
        <time>2015-04-28T09:22:22Z</time>
      </trkpt>
      <trkpt lat="44.95056" lon="2.95471">
        <ele>1065.78</ele>
        <time>2015-04-28T09:22:32Z</time>
      </trkpt>
      <trkpt lat="44.95046" lon="2.95465">
        <ele>1064</ele>
        <time>2015-04-28T09:22:42Z</time>
      </trkpt>
      <trkpt lat="44.95036" lon="2.9546">
        <ele>1063</ele>
        <time>2015-04-28T09:22:52Z</time>
      </trkpt>
      <trkpt lat="44.95036" lon="2.95462">
        <ele>1065.8</ele>
        <time>2015-04-28T09:23:02Z</time>
      </trkpt>
      <trkpt lat="44.95035" lon="2.95461">
        <ele>1066</ele>
        <time>2015-04-28T09:23:30Z</time>
      </trkpt>
      <trkpt lat="44.95026" lon="2.95446">
        <ele>1066.95</ele>
        <time>2015-04-28T09:23:40Z</time>
      </trkpt>
      <trkpt lat="44.95018" lon="2.9543">
        <ele>1069</ele>
        <time>2015-04-28T09:23:50Z</time>
      </trkpt>
      <trkpt lat="44.95011" lon="2.95417">
        <ele>1067.26</ele>
        <time>2015-04-28T09:24:00Z</time>
      </trkpt>
      <trkpt lat="44.95006" lon="2.9541">
        <ele>1067.69</ele>
        <time>2015-04-28T09:24:10Z</time>
      </trkpt>
      <trkpt lat="44.94998" lon="2.95393">
        <ele>1069.97</ele>
        <time>2015-04-28T09:24:20Z</time>
      </trkpt>
      <trkpt lat="44.94987" lon="2.95379">
        <ele>1069.95</ele>
        <time>2015-04-28T09:24:30Z</time>
      </trkpt>
      <trkpt lat="44.94975" lon="2.95369">
        <ele>1071.44</ele>
        <time>2015-04-28T09:24:40Z</time>
      </trkpt>
      <trkpt lat="44.94964" lon="2.95357">
        <ele>1072.26</ele>
        <time>2015-04-28T09:24:50Z</time>
      </trkpt>
      <trkpt lat="44.94952" lon="2.95348">
        <ele>1070.37</ele>
        <time>2015-04-28T09:25:00Z</time>
      </trkpt>
      <trkpt lat="44.9494" lon="2.95339">
        <ele>1072.28</ele>
        <time>2015-04-28T09:25:10Z</time>
      </trkpt>
      <trkpt lat="44.9493" lon="2.95335">
        <ele>1072.95</ele>
        <time>2015-04-28T09:25:20Z</time>
      </trkpt>
      <trkpt lat="44.9492" lon="2.95324">
        <ele>1072.45</ele>
        <time>2015-04-28T09:25:30Z</time>
      </trkpt>
      <trkpt lat="44.94909" lon="2.9531">
        <ele>1072.01</ele>
        <time>2015-04-28T09:25:40Z</time>
      </trkpt>
      <trkpt lat="44.94899" lon="2.95296">
        <ele>1072.61</ele>
        <time>2015-04-28T09:25:50Z</time>
      </trkpt>
      <trkpt lat="44.94885" lon="2.9529">
        <ele>1068.32</ele>
        <time>2015-04-28T09:26:00Z</time>
      </trkpt>
      <trkpt lat="44.94873" lon="2.95285">
        <ele>1069.93</ele>
        <time>2015-04-28T09:26:10Z</time>
      </trkpt>
      <trkpt lat="44.94862" lon="2.95281">
        <ele>1069.02</ele>
        <time>2015-04-28T09:26:20Z</time>
      </trkpt>
      <trkpt lat="44.94849" lon="2.95274">
        <ele>1066.15</ele>
        <time>2015-04-28T09:26:30Z</time>
      </trkpt>
      <trkpt lat="44.94839" lon="2.9526">
        <ele>1066.77</ele>
        <time>2015-04-28T09:26:40Z</time>
      </trkpt>
      <trkpt lat="44.94829" lon="2.95252">
        <ele>1068</ele>
        <time>2015-04-28T09:26:50Z</time>
      </trkpt>
      <trkpt lat="44.94821" lon="2.95242">
        <ele>1065.03</ele>
        <time>2015-04-28T09:27:00Z</time>
      </trkpt>
      <trkpt lat="44.94814" lon="2.95239">
        <ele>1066.98</ele>
        <time>2015-04-28T09:27:10Z</time>
      </trkpt>
      <trkpt lat="44.94808" lon="2.95232">
        <ele>1066.02</ele>
        <time>2015-04-28T09:27:20Z</time>
      </trkpt>
      <trkpt lat="44.94791" lon="2.95221">
        <ele>1065.53</ele>
        <time>2015-04-28T09:27:30Z</time>
      </trkpt>
      <trkpt lat="44.94779" lon="2.95212">
        <ele>1065.28</ele>
        <time>2015-04-28T09:27:40Z</time>
      </trkpt>
      <trkpt lat="44.94775" lon="2.95199">
        <ele>1062.25</ele>
        <time>2015-04-28T09:27:50Z</time>
      </trkpt>
      <trkpt lat="44.94768" lon="2.95191">
        <ele>1069.05</ele>
        <time>2015-04-28T09:28:00Z</time>
      </trkpt>
      <trkpt lat="44.94768" lon="2.95189">
        <ele>1069</ele>
        <time>2015-04-28T09:28:10Z</time>
      </trkpt>
      <trkpt lat="44.94766" lon="2.95189">
        <ele>1068</ele>
        <time>2015-04-28T09:28:20Z</time>
      </trkpt>
      <trkpt lat="44.94764" lon="2.95175">
        <ele>1067.25</ele>
        <time>2015-04-28T09:28:30Z</time>
      </trkpt>
      <trkpt lat="44.94762" lon="2.95166">
        <ele>1068.01</ele>
        <time>2015-04-28T09:28:40Z</time>
      </trkpt>
      <trkpt lat="44.94756" lon="2.95146">
        <ele>1068.22</ele>
        <time>2015-04-28T09:28:50Z</time>
      </trkpt>
      <trkpt lat="44.94752" lon="2.95134">
        <ele>1065.75</ele>
        <time>2015-04-28T09:29:00Z</time>
      </trkpt>
      <trkpt lat="44.94745" lon="2.95115">
        <ele>1062</ele>
        <time>2015-04-28T09:29:10Z</time>
      </trkpt>
      <trkpt lat="44.9474" lon="2.95102">
        <ele>1061.3</ele>
        <time>2015-04-28T09:29:20Z</time>
      </trkpt>
      <trkpt lat="44.94737" lon="2.95091">
        <ele>1061.31</ele>
        <time>2015-04-28T09:29:30Z</time>
      </trkpt>
      <trkpt lat="44.94733" lon="2.9507">
        <ele>1062.04</ele>
        <time>2015-04-28T09:29:40Z</time>
      </trkpt>
      <trkpt lat="44.94735" lon="2.95056">
        <ele>1059.2</ele>
        <time>2015-04-28T09:29:50Z</time>
      </trkpt>
      <trkpt lat="44.94743" lon="2.95051">
        <ele>1057.81</ele>
        <time>2015-04-28T09:30:00Z</time>
      </trkpt>
      <trkpt lat="44.94744" lon="2.95042">
        <ele>1055.01</ele>
        <time>2015-04-28T09:30:10Z</time>
      </trkpt>
      <trkpt lat="44.94744" lon="2.95044">
        <ele>1055</ele>
        <time>2015-04-28T09:30:20Z</time>
      </trkpt>
      <trkpt lat="44.94742" lon="2.95039">
        <ele>1058.87</ele>
        <time>2015-04-28T09:30:30Z</time>
      </trkpt>
      <trkpt lat="44.9475" lon="2.9503">
        <ele>1058.06</ele>
        <time>2015-04-28T09:30:40Z</time>
      </trkpt>
      <trkpt lat="44.9476" lon="2.95023">
        <ele>1057.24</ele>
        <time>2015-04-28T09:30:50Z</time>
      </trkpt>
      <trkpt lat="44.94769" lon="2.95023">
        <ele>1053.01</ele>
        <time>2015-04-28T09:31:00Z</time>
      </trkpt>
      <trkpt lat="44.94777" lon="2.95013">
        <ele>1051.81</ele>
        <time>2015-04-28T09:31:10Z</time>
      </trkpt>
      <trkpt lat="44.94786" lon="2.95002">
        <ele>1049.22</ele>
        <time>2015-04-28T09:31:20Z</time>
      </trkpt>
      <trkpt lat="44.94794" lon="2.94989">
        <ele>1058.76</ele>
        <time>2015-04-28T09:31:30Z</time>
      </trkpt>
      <trkpt lat="44.94795" lon="2.94972">
        <ele>1070.98</ele>
        <time>2015-04-28T09:31:40Z</time>
      </trkpt>
      <trkpt lat="44.94796" lon="2.94971">
        <ele>1071</ele>
        <time>2015-04-28T09:31:55Z</time>
      </trkpt>
      <trkpt lat="44.94803" lon="2.94961">
        <ele>1070.27</ele>
        <time>2015-04-28T09:32:05Z</time>
      </trkpt>
      <trkpt lat="44.94805" lon="2.94947">
        <ele>1061.33</ele>
        <time>2015-04-28T09:32:15Z</time>
      </trkpt>
      <trkpt lat="44.94806" lon="2.94936">
        <ele>1056.07</ele>
        <time>2015-04-28T09:32:25Z</time>
      </trkpt>
      <trkpt lat="44.9481" lon="2.94928">
        <ele>1055.53</ele>
        <time>2015-04-28T09:32:35Z</time>
      </trkpt>
      <trkpt lat="44.94812" lon="2.94914">
        <ele>1055.01</ele>
        <time>2015-04-28T09:32:45Z</time>
      </trkpt>
      <trkpt lat="44.94815" lon="2.94899">
        <ele>1054.32</ele>
        <time>2015-04-28T09:32:55Z</time>
      </trkpt>
      <trkpt lat="44.94819" lon="2.94883">
        <ele>1054.98</ele>
        <time>2015-04-28T09:33:05Z</time>
      </trkpt>
      <trkpt lat="44.94821" lon="2.9487">
        <ele>1049</ele>
        <time>2015-04-28T09:33:15Z</time>
      </trkpt>
      <trkpt lat="44.94823" lon="2.94856">
        <ele>1048.81</ele>
        <time>2015-04-28T09:33:25Z</time>
      </trkpt>
      <trkpt lat="44.94824" lon="2.94838">
        <ele>1045.09</ele>
        <time>2015-04-28T09:33:35Z</time>
      </trkpt>
      <trkpt lat="44.94827" lon="2.94812">
        <ele>1049</ele>
        <time>2015-04-28T09:33:45Z</time>
      </trkpt>
      <trkpt lat="44.94832" lon="2.94798">
        <ele>1049.05</ele>
        <time>2015-04-28T09:33:55Z</time>
      </trkpt>
      <trkpt lat="44.94836" lon="2.94786">
        <ele>1048.39</ele>
        <time>2015-04-28T09:34:05Z</time>
      </trkpt>
      <trkpt lat="44.94839" lon="2.94772">
        <ele>1046.02</ele>
        <time>2015-04-28T09:34:15Z</time>
      </trkpt>
      <trkpt lat="44.94841" lon="2.94747">
        <ele>1052.87</ele>
        <time>2015-04-28T09:34:25Z</time>
      </trkpt>
      <trkpt lat="44.94847" lon="2.94724">
        <ele>1057.72</ele>
        <time>2015-04-28T09:34:35Z</time>
      </trkpt>
      <trkpt lat="44.94852" lon="2.94709">
        <ele>1057.08</ele>
        <time>2015-04-28T09:34:45Z</time>
      </trkpt>
      <trkpt lat="44.94858" lon="2.94697">
        <ele>1056.25</ele>
        <time>2015-04-28T09:34:55Z</time>
      </trkpt>
      <trkpt lat="44.94865" lon="2.94686">
        <ele>1055.19</ele>
        <time>2015-04-28T09:35:05Z</time>
      </trkpt>
      <trkpt lat="44.94873" lon="2.94672">
        <ele>1057.02</ele>
        <time>2015-04-28T09:35:15Z</time>
      </trkpt>
      <trkpt lat="44.9488" lon="2.94664">
        <ele>1056.94</ele>
        <time>2015-04-28T09:35:25Z</time>
      </trkpt>
      <trkpt lat="44.94883" lon="2.94657">
        <ele>1054.25</ele>
        <time>2015-04-28T09:35:35Z</time>
      </trkpt>
      <trkpt lat="44.94892" lon="2.94648">
        <ele>1053</ele>
        <time>2015-04-28T09:35:45Z</time>
      </trkpt>
      <trkpt lat="44.949" lon="2.94642">
        <ele>1048.09</ele>
        <time>2015-04-28T09:35:55Z</time>
      </trkpt>
      <trkpt lat="44.94906" lon="2.94634">
        <ele>1050.98</ele>
        <time>2015-04-28T09:36:05Z</time>
      </trkpt>
      <trkpt lat="44.9491" lon="2.94631">
        <ele>1049.27</ele>
        <time>2015-04-28T09:36:15Z</time>
      </trkpt>
      <trkpt lat="44.94912" lon="2.94622">
        <ele>1047.37</ele>
        <time>2015-04-28T09:36:25Z</time>
      </trkpt>
      <trkpt lat="44.94921" lon="2.94615">
        <ele>1049</ele>
        <time>2015-04-28T09:36:35Z</time>
      </trkpt>
      <trkpt lat="44.94932" lon="2.94614">
        <ele>1044.02</ele>
        <time>2015-04-28T09:36:45Z</time>
      </trkpt>
      <trkpt lat="44.94944" lon="2.9461">
        <ele>1046.94</ele>
        <time>2015-04-28T09:36:55Z</time>
      </trkpt>
      <trkpt lat="44.94952" lon="2.94606">
        <ele>1045</ele>
        <time>2015-04-28T09:37:05Z</time>
      </trkpt>
      <trkpt lat="44.9496" lon="2.94601">
        <ele>1044.07</ele>
        <time>2015-04-28T09:37:15Z</time>
      </trkpt>
      <trkpt lat="44.94966" lon="2.94599">
        <ele>1040.27</ele>
        <time>2015-04-28T09:37:25Z</time>
      </trkpt>
      <trkpt lat="44.94976" lon="2.94591">
        <ele>1042.18</ele>
        <time>2015-04-28T09:37:35Z</time>
      </trkpt>
      <trkpt lat="44.94982" lon="2.94583">
        <ele>1046.79</ele>
        <time>2015-04-28T09:37:45Z</time>
      </trkpt>
      <trkpt lat="44.94991" lon="2.94577">
        <ele>1048.75</ele>
        <time>2015-04-28T09:37:55Z</time>
      </trkpt>
      <trkpt lat="44.94998" lon="2.94572">
        <ele>1048.33</ele>
        <time>2015-04-28T09:38:05Z</time>
      </trkpt>
      <trkpt lat="44.95009" lon="2.94565">
        <ele>1051.24</ele>
        <time>2015-04-28T09:38:15Z</time>
      </trkpt>
      <trkpt lat="44.95021" lon="2.94559">
        <ele>1049.16</ele>
        <time>2015-04-28T09:38:25Z</time>
      </trkpt>
      <trkpt lat="44.95036" lon="2.94556">
        <ele>1048.26</ele>
        <time>2015-04-28T09:38:35Z</time>
      </trkpt>
      <trkpt lat="44.95044" lon="2.94551">
        <ele>1044.06</ele>
        <time>2015-04-28T09:38:45Z</time>
      </trkpt>
      <trkpt lat="44.95052" lon="2.94547">
        <ele>1044</ele>
        <time>2015-04-28T09:38:55Z</time>
      </trkpt>
      <trkpt lat="44.95071" lon="2.9454">
        <ele>1050.47</ele>
        <time>2015-04-28T09:39:05Z</time>
      </trkpt>
      <trkpt lat="44.95075" lon="2.94537">
        <ele>1056</ele>
        <time>2015-04-28T09:39:15Z</time>
      </trkpt>
      <trkpt lat="44.9508" lon="2.94533">
        <ele>1060</ele>
        <time>2015-04-28T09:39:25Z</time>
      </trkpt>
      <trkpt lat="44.95081" lon="2.9453">
        <ele>1061.94</ele>
        <time>2015-04-28T09:39:35Z</time>
      </trkpt>
      <trkpt lat="44.95082" lon="2.94529">
        <ele>1062</ele>
        <time>2015-04-28T09:39:45Z</time>
      </trkpt>
      <trkpt lat="44.95083" lon="2.94521">
        <ele>1063</ele>
        <time>2015-04-28T09:39:55Z</time>
      </trkpt>
      <trkpt lat="44.95085" lon="2.94519">
        <ele>1063</ele>
        <time>2015-04-28T09:40:05Z</time>
      </trkpt>
      <trkpt lat="44.95099" lon="2.94513">
        <ele>1058</ele>
        <time>2015-04-28T09:40:15Z</time>
      </trkpt>
      <trkpt lat="44.95111" lon="2.94505">
        <ele>1054.01</ele>
        <time>2015-04-28T09:40:25Z</time>
      </trkpt>
      <trkpt lat="44.95117" lon="2.94497">
        <ele>1052.06</ele>
        <time>2015-04-28T09:40:35Z</time>
      </trkpt>
      <trkpt lat="44.95127" lon="2.94488">
        <ele>1056.9</ele>
        <time>2015-04-28T09:40:45Z</time>
      </trkpt>
      <trkpt lat="44.95135" lon="2.94475">
        <ele>1056.81</ele>
        <time>2015-04-28T09:40:55Z</time>
      </trkpt>
      <trkpt lat="44.95141" lon="2.94457">
        <ele>1058.02</ele>
        <time>2015-04-28T09:41:05Z</time>
      </trkpt>
      <trkpt lat="44.95149" lon="2.94443">
        <ele>1059.92</ele>
        <time>2015-04-28T09:41:15Z</time>
      </trkpt>
      <trkpt lat="44.95157" lon="2.94434">
        <ele>1061.93</ele>
        <time>2015-04-28T09:41:25Z</time>
      </trkpt>
      <trkpt lat="44.95159" lon="2.94429">
        <ele>1069</ele>
        <time>2015-04-28T09:41:35Z</time>
      </trkpt>
      <trkpt lat="44.9516" lon="2.94428">
        <ele>1069</ele>
        <time>2015-04-28T09:42:10Z</time>
      </trkpt>
      <trkpt lat="44.95169" lon="2.94418">
        <ele>1069.52</ele>
        <time>2015-04-28T09:42:20Z</time>
      </trkpt>
      <trkpt lat="44.95179" lon="2.94409">
        <ele>1072.17</ele>
        <time>2015-04-28T09:42:30Z</time>
      </trkpt>
      <trkpt lat="44.95186" lon="2.94403">
        <ele>1071.97</ele>
        <time>2015-04-28T09:42:40Z</time>
      </trkpt>
      <trkpt lat="44.952" lon="2.94395">
        <ele>1073.79</ele>
        <time>2015-04-28T09:42:50Z</time>
      </trkpt>
      <trkpt lat="44.95211" lon="2.9439">
        <ele>1078.8</ele>
        <time>2015-04-28T09:43:00Z</time>
      </trkpt>
      <trkpt lat="44.95217" lon="2.94396">
        <ele>1078.01</ele>
        <time>2015-04-28T09:43:10Z</time>
      </trkpt>
      <trkpt lat="44.95216" lon="2.94402">
        <ele>1079.23</ele>
        <time>2015-04-28T09:43:20Z</time>
      </trkpt>
      <trkpt lat="44.95211" lon="2.94418">
        <ele>1077.26</ele>
        <time>2015-04-28T09:43:30Z</time>
      </trkpt>
      <trkpt lat="44.95206" lon="2.94433">
        <ele>1071.96</ele>
        <time>2015-04-28T09:43:40Z</time>
      </trkpt>
      <trkpt lat="44.95211" lon="2.94444">
        <ele>1074.81</ele>
        <time>2015-04-28T09:43:50Z</time>
      </trkpt>
      <trkpt lat="44.95218" lon="2.94444">
        <ele>1077.98</ele>
        <time>2015-04-28T09:44:00Z</time>
      </trkpt>
      <trkpt lat="44.95222" lon="2.94458">
        <ele>1080.43</ele>
        <time>2015-04-28T09:44:10Z</time>
      </trkpt>
      <trkpt lat="44.95225" lon="2.94468">
        <ele>1079.75</ele>
        <time>2015-04-28T09:44:20Z</time>
      </trkpt>
      <trkpt lat="44.95227" lon="2.94482">
        <ele>1082.03</ele>
        <time>2015-04-28T09:44:30Z</time>
      </trkpt>
      <trkpt lat="44.95233" lon="2.94497">
        <ele>1085.42</ele>
        <time>2015-04-28T09:44:40Z</time>
      </trkpt>
      <trkpt lat="44.9524" lon="2.94507">
        <ele>1085.25</ele>
        <time>2015-04-28T09:44:50Z</time>
      </trkpt>
      <trkpt lat="44.95249" lon="2.94517">
        <ele>1084.99</ele>
        <time>2015-04-28T09:45:00Z</time>
      </trkpt>
      <trkpt lat="44.95257" lon="2.94528">
        <ele>1092.49</ele>
        <time>2015-04-28T09:45:10Z</time>
      </trkpt>
      <trkpt lat="44.95262" lon="2.94544">
        <ele>1095.86</ele>
        <time>2015-04-28T09:45:20Z</time>
      </trkpt>
      <trkpt lat="44.9527" lon="2.94563">
        <ele>1103.26</ele>
        <time>2015-04-28T09:45:30Z</time>
      </trkpt>
      <trkpt lat="44.95269" lon="2.94576">
        <ele>1105.75</ele>
        <time>2015-04-28T09:45:40Z</time>
      </trkpt>
      <trkpt lat="44.95265" lon="2.94588">
        <ele>1105</ele>
        <time>2015-04-28T09:45:50Z</time>
      </trkpt>
      <trkpt lat="44.95259" lon="2.94608">
        <ele>1107</ele>
        <time>2015-04-28T09:46:00Z</time>
      </trkpt>
      <trkpt lat="44.95252" lon="2.94625">
        <ele>1107.06</ele>
        <time>2015-04-28T09:46:10Z</time>
      </trkpt>
      <trkpt lat="44.95244" lon="2.94628">
        <ele>1108</ele>
        <time>2015-04-28T09:46:20Z</time>
      </trkpt>
      <trkpt lat="44.95245" lon="2.94617">
        <ele>1106.82</ele>
        <time>2015-04-28T09:46:30Z</time>
      </trkpt>
      <trkpt lat="44.95245" lon="2.9462">
        <ele>1108</ele>
        <time>2015-04-28T09:46:40Z</time>
      </trkpt>
      <trkpt lat="44.95238" lon="2.94615">
        <ele>1109.22</ele>
        <time>2015-04-28T09:46:50Z</time>
      </trkpt>
      <trkpt lat="44.95229" lon="2.94601">
        <ele>1107</ele>
        <time>2015-04-28T09:47:00Z</time>
      </trkpt>
      <trkpt lat="44.95228" lon="2.94592">
        <ele>1107.06</ele>
        <time>2015-04-28T09:47:10Z</time>
      </trkpt>
      <trkpt lat="44.95228" lon="2.94594">
        <ele>1108</ele>
        <time>2015-04-28T09:47:20Z</time>
      </trkpt>
      <trkpt lat="44.95227" lon="2.94594">
        <ele>1107</ele>
        <time>2015-04-28T09:47:35Z</time>
      </trkpt>
      <trkpt lat="44.95222" lon="2.94591">
        <ele>1109.44</ele>
        <time>2015-04-28T09:47:45Z</time>
      </trkpt>
      <trkpt lat="44.95219" lon="2.94588">
        <ele>1108.05</ele>
        <time>2015-04-28T09:47:55Z</time>
      </trkpt>
      <trkpt lat="44.95219" lon="2.94586">
        <ele>1109.75</ele>
        <time>2015-04-28T09:48:13Z</time>
      </trkpt>
      <trkpt lat="44.95219" lon="2.94577">
        <ele>1112</ele>
        <time>2015-04-28T09:48:23Z</time>
      </trkpt>
      <trkpt lat="44.95219" lon="2.94576">
        <ele>1112</ele>
        <time>2015-04-28T09:48:33Z</time>
      </trkpt>
      <trkpt lat="44.95227" lon="2.94602">
        <ele>1113.75</ele>
        <time>2015-04-28T10:20:46Z</time>
      </trkpt>
      <trkpt lat="44.95227" lon="2.94596">
        <ele>1113.25</ele>
        <time>2015-04-28T10:20:56Z</time>
      </trkpt>
      <trkpt lat="44.95229" lon="2.946">
        <ele>1113.01</ele>
        <time>2015-04-28T10:21:06Z</time>
      </trkpt>
      <trkpt lat="44.95232" lon="2.94604">
        <ele>1113.05</ele>
        <time>2015-04-28T10:21:16Z</time>
      </trkpt>
      <trkpt lat="44.95245" lon="2.94601">
        <ele>1113</ele>
        <time>2015-04-28T10:21:26Z</time>
      </trkpt>
      <trkpt lat="44.9525" lon="2.94614">
        <ele>1109.98</ele>
        <time>2015-04-28T10:21:36Z</time>
      </trkpt>
      <trkpt lat="44.95247" lon="2.94628">
        <ele>1108.82</ele>
        <time>2015-04-28T10:21:46Z</time>
      </trkpt>
      <trkpt lat="44.95243" lon="2.94644">
        <ele>1106.24</ele>
        <time>2015-04-28T10:21:56Z</time>
      </trkpt>
      <trkpt lat="44.95243" lon="2.94655">
        <ele>1104.13</ele>
        <time>2015-04-28T10:22:06Z</time>
      </trkpt>
      <trkpt lat="44.95245" lon="2.9465">
        <ele>1105</ele>
        <time>2015-04-28T10:22:16Z</time>
      </trkpt>
      <trkpt lat="44.95246" lon="2.94648">
        <ele>1106.02</ele>
        <time>2015-04-28T10:22:26Z</time>
      </trkpt>
      <trkpt lat="44.95247" lon="2.94653">
        <ele>1104.27</ele>
        <time>2015-04-28T10:22:36Z</time>
      </trkpt>
      <trkpt lat="44.95251" lon="2.94669">
        <ele>1106</ele>
        <time>2015-04-28T10:22:46Z</time>
      </trkpt>
      <trkpt lat="44.95255" lon="2.94682">
        <ele>1103.01</ele>
        <time>2015-04-28T10:22:56Z</time>
      </trkpt>
      <trkpt lat="44.95255" lon="2.947">
        <ele>1102.05</ele>
        <time>2015-04-28T10:23:06Z</time>
      </trkpt>
      <trkpt lat="44.95256" lon="2.94715">
        <ele>1099.38</ele>
        <time>2015-04-28T10:23:16Z</time>
      </trkpt>
      <trkpt lat="44.95257" lon="2.94728">
        <ele>1095.16</ele>
        <time>2015-04-28T10:23:26Z</time>
      </trkpt>
      <trkpt lat="44.95257" lon="2.94733">
        <ele>1093.75</ele>
        <time>2015-04-28T10:23:36Z</time>
      </trkpt>
      <trkpt lat="44.95268" lon="2.94721">
        <ele>1099.48</ele>
        <time>2015-04-28T10:23:46Z</time>
      </trkpt>
      <trkpt lat="44.95281" lon="2.9471">
        <ele>1102.06</ele>
        <time>2015-04-28T10:23:56Z</time>
      </trkpt>
      <trkpt lat="44.95293" lon="2.947">
        <ele>1102</ele>
        <time>2015-04-28T10:24:06Z</time>
      </trkpt>
      <trkpt lat="44.95301" lon="2.9469">
        <ele>1104.01</ele>
        <time>2015-04-28T10:24:16Z</time>
      </trkpt>
      <trkpt lat="44.9531" lon="2.94678">
        <ele>1101</ele>
        <time>2015-04-28T10:24:26Z</time>
      </trkpt>
      <trkpt lat="44.9532" lon="2.94664">
        <ele>1102.06</ele>
        <time>2015-04-28T10:24:36Z</time>
      </trkpt>
      <trkpt lat="44.95328" lon="2.9465">
        <ele>1104</ele>
        <time>2015-04-28T10:24:46Z</time>
      </trkpt>
      <trkpt lat="44.95335" lon="2.94634">
        <ele>1104</ele>
        <time>2015-04-28T10:24:56Z</time>
      </trkpt>
      <trkpt lat="44.95345" lon="2.94619">
        <ele>1103.81</ele>
        <time>2015-04-28T10:25:06Z</time>
      </trkpt>
      <trkpt lat="44.95352" lon="2.94602">
        <ele>1103</ele>
        <time>2015-04-28T10:25:16Z</time>
      </trkpt>
      <trkpt lat="44.95381" lon="2.94549">
        <ele>1102.25</ele>
        <time>2015-04-28T10:25:48Z</time>
      </trkpt>
      <trkpt lat="44.95381" lon="2.94537">
        <ele>1103.06</ele>
        <time>2015-04-28T10:25:58Z</time>
      </trkpt>
      <trkpt lat="44.95386" lon="2.94523">
        <ele>1101</ele>
        <time>2015-04-28T10:26:08Z</time>
      </trkpt>
      <trkpt lat="44.95393" lon="2.9451">
        <ele>1098.81</ele>
        <time>2015-04-28T10:26:18Z</time>
      </trkpt>
      <trkpt lat="44.95396" lon="2.94493">
        <ele>1099.75</ele>
        <time>2015-04-28T10:26:28Z</time>
      </trkpt>
      <trkpt lat="44.95401" lon="2.94476">
        <ele>1100</ele>
        <time>2015-04-28T10:26:38Z</time>
      </trkpt>
      <trkpt lat="44.95404" lon="2.9446">
        <ele>1099.75</ele>
        <time>2015-04-28T10:26:48Z</time>
      </trkpt>
      <trkpt lat="44.95407" lon="2.94445">
        <ele>1099</ele>
        <time>2015-04-28T10:26:58Z</time>
      </trkpt>
      <trkpt lat="44.95412" lon="2.9443">
        <ele>1099</ele>
        <time>2015-04-28T10:27:08Z</time>
      </trkpt>
      <trkpt lat="44.95418" lon="2.94415">
        <ele>1097.94</ele>
        <time>2015-04-28T10:27:18Z</time>
      </trkpt>
      <trkpt lat="44.95424" lon="2.94399">
        <ele>1099</ele>
        <time>2015-04-28T10:27:28Z</time>
      </trkpt>
      <trkpt lat="44.95424" lon="2.94381">
        <ele>1099.94</ele>
        <time>2015-04-28T10:27:38Z</time>
      </trkpt>
      <trkpt lat="44.95422" lon="2.94365">
        <ele>1098</ele>
        <time>2015-04-28T10:27:48Z</time>
      </trkpt>
      <trkpt lat="44.95419" lon="2.94356">
        <ele>1096.25</ele>
        <time>2015-04-28T10:27:58Z</time>
      </trkpt>
      <trkpt lat="44.95419" lon="2.94341">
        <ele>1091.03</ele>
        <time>2015-04-28T10:28:08Z</time>
      </trkpt>
      <trkpt lat="44.95423" lon="2.94326">
        <ele>1090.19</ele>
        <time>2015-04-28T10:28:18Z</time>
      </trkpt>
      <trkpt lat="44.95426" lon="2.9431">
        <ele>1087.25</ele>
        <time>2015-04-28T10:28:28Z</time>
      </trkpt>
      <trkpt lat="44.9543" lon="2.94299">
        <ele>1083.38</ele>
        <time>2015-04-28T10:28:38Z</time>
      </trkpt>
      <trkpt lat="44.95433" lon="2.94285">
        <ele>1087.03</ele>
        <time>2015-04-28T10:28:48Z</time>
      </trkpt>
      <trkpt lat="44.95439" lon="2.94266">
        <ele>1088.93</ele>
        <time>2015-04-28T10:28:58Z</time>
      </trkpt>
      <trkpt lat="44.95448" lon="2.9425">
        <ele>1088.13</ele>
        <time>2015-04-28T10:29:08Z</time>
      </trkpt>
      <trkpt lat="44.95458" lon="2.9424">
        <ele>1088</ele>
        <time>2015-04-28T10:29:18Z</time>
      </trkpt>
      <trkpt lat="44.95466" lon="2.94228">
        <ele>1088</ele>
        <time>2015-04-28T10:29:28Z</time>
      </trkpt>
      <trkpt lat="44.95475" lon="2.94219">
        <ele>1090.73</ele>
        <time>2015-04-28T10:29:38Z</time>
      </trkpt>
      <trkpt lat="44.95486" lon="2.94205">
        <ele>1085</ele>
        <time>2015-04-28T10:29:48Z</time>
      </trkpt>
      <trkpt lat="44.9549" lon="2.9419">
        <ele>1082.26</ele>
        <time>2015-04-28T10:29:58Z</time>
      </trkpt>
      <trkpt lat="44.95501" lon="2.94184">
        <ele>1083.12</ele>
        <time>2015-04-28T10:30:08Z</time>
      </trkpt>
      <trkpt lat="44.9551" lon="2.94184">
        <ele>1083.02</ele>
        <time>2015-04-28T10:30:18Z</time>
      </trkpt>
      <trkpt lat="44.95521" lon="2.94186">
        <ele>1084</ele>
        <time>2015-04-28T10:30:28Z</time>
      </trkpt>
      <trkpt lat="44.95534" lon="2.94188">
        <ele>1082.81</ele>
        <time>2015-04-28T10:30:38Z</time>
      </trkpt>
      <trkpt lat="44.95541" lon="2.9419">
        <ele>1077.06</ele>
        <time>2015-04-28T10:30:48Z</time>
      </trkpt>
      <trkpt lat="44.95552" lon="2.94192">
        <ele>1076.75</ele>
        <time>2015-04-28T10:30:58Z</time>
      </trkpt>
      <trkpt lat="44.95556" lon="2.94189">
        <ele>1083.73</ele>
        <time>2015-04-28T10:31:08Z</time>
      </trkpt>
      <trkpt lat="44.95557" lon="2.94189">
        <ele>1084.98</ele>
        <time>2015-04-28T10:31:18Z</time>
      </trkpt>
      <trkpt lat="44.95563" lon="2.94189">
        <ele>1086.92</ele>
        <time>2015-04-28T10:31:28Z</time>
      </trkpt>
      <trkpt lat="44.9557" lon="2.94186">
        <ele>1086.95</ele>
        <time>2015-04-28T10:31:38Z</time>
      </trkpt>
      <trkpt lat="44.95575" lon="2.94182">
        <ele>1085.27</ele>
        <time>2015-04-28T10:31:48Z</time>
      </trkpt>
      <trkpt lat="44.95587" lon="2.94174">
        <ele>1084.94</ele>
        <time>2015-04-28T10:31:58Z</time>
      </trkpt>
      <trkpt lat="44.95598" lon="2.94162">
        <ele>1086.25</ele>
        <time>2015-04-28T10:32:08Z</time>
      </trkpt>
      <trkpt lat="44.95607" lon="2.94151">
        <ele>1084.2</ele>
        <time>2015-04-28T10:32:18Z</time>
      </trkpt>
      <trkpt lat="44.95615" lon="2.94141">
        <ele>1083.75</ele>
        <time>2015-04-28T10:32:28Z</time>
      </trkpt>
      <trkpt lat="44.95623" lon="2.94128">
        <ele>1084</ele>
        <time>2015-04-28T10:32:38Z</time>
      </trkpt>
      <trkpt lat="44.95626" lon="2.9412">
        <ele>1080</ele>
        <time>2015-04-28T10:32:48Z</time>
      </trkpt>
      <trkpt lat="44.95635" lon="2.94108">
        <ele>1083.98</ele>
        <time>2015-04-28T10:32:58Z</time>
      </trkpt>
      <trkpt lat="44.95643" lon="2.94094">
        <ele>1083.01</ele>
        <time>2015-04-28T10:33:08Z</time>
      </trkpt>
      <trkpt lat="44.95651" lon="2.94079">
        <ele>1081.25</ele>
        <time>2015-04-28T10:33:18Z</time>
      </trkpt>
      <trkpt lat="44.95657" lon="2.94067">
        <ele>1082.25</ele>
        <time>2015-04-28T10:33:28Z</time>
      </trkpt>
      <trkpt lat="44.95664" lon="2.9406">
        <ele>1080.74</ele>
        <time>2015-04-28T10:33:38Z</time>
      </trkpt>
      <trkpt lat="44.95673" lon="2.94049">
        <ele>1078.98</ele>
        <time>2015-04-28T10:33:48Z</time>
      </trkpt>
      <trkpt lat="44.95684" lon="2.94043">
        <ele>1074.02</ele>
        <time>2015-04-28T10:33:58Z</time>
      </trkpt>
      <trkpt lat="44.95697" lon="2.94041">
        <ele>1075</ele>
        <time>2015-04-28T10:34:08Z</time>
      </trkpt>
      <trkpt lat="44.95711" lon="2.94039">
        <ele>1073</ele>
        <time>2015-04-28T10:34:18Z</time>
      </trkpt>
      <trkpt lat="44.95723" lon="2.94036">
        <ele>1071.99</ele>
        <time>2015-04-28T10:34:28Z</time>
      </trkpt>
      <trkpt lat="44.95734" lon="2.94025">
        <ele>1070.08</ele>
        <time>2015-04-28T10:34:38Z</time>
      </trkpt>
      <trkpt lat="44.95743" lon="2.94016">
        <ele>1067.07</ele>
        <time>2015-04-28T10:34:48Z</time>
      </trkpt>
      <trkpt lat="44.9575" lon="2.94014">
        <ele>1066.73</ele>
        <time>2015-04-28T10:34:58Z</time>
      </trkpt>
      <trkpt lat="44.95753" lon="2.94016">
        <ele>1065.25</ele>
        <time>2015-04-28T10:35:08Z</time>
      </trkpt>
      <trkpt lat="44.95766" lon="2.94008">
        <ele>1062.23</ele>
        <time>2015-04-28T10:35:18Z</time>
      </trkpt>
      <trkpt lat="44.95772" lon="2.94003">
        <ele>1065</ele>
        <time>2015-04-28T10:35:28Z</time>
      </trkpt>
      <trkpt lat="44.9578" lon="2.93982">
        <ele>1061.77</ele>
        <time>2015-04-28T10:35:38Z</time>
      </trkpt>
      <trkpt lat="44.9578" lon="2.93972">
        <ele>1063.27</ele>
        <time>2015-04-28T10:35:48Z</time>
      </trkpt>
      <trkpt lat="44.95778" lon="2.93968">
        <ele>1062.06</ele>
        <time>2015-04-28T10:35:58Z</time>
      </trkpt>
      <trkpt lat="44.95771" lon="2.93956">
        <ele>1059.01</ele>
        <time>2015-04-28T10:36:08Z</time>
      </trkpt>
      <trkpt lat="44.95766" lon="2.93951">
        <ele>1058</ele>
        <time>2015-04-28T10:36:18Z</time>
      </trkpt>
      <trkpt lat="44.95761" lon="2.93936">
        <ele>1057</ele>
        <time>2015-04-28T10:36:28Z</time>
      </trkpt>
      <trkpt lat="44.95759" lon="2.93935">
        <ele>1056.25</ele>
        <time>2015-04-28T10:36:38Z</time>
      </trkpt>
      <trkpt lat="44.95758" lon="2.93935">
        <ele>1054.94</ele>
        <time>2015-04-28T10:37:43Z</time>
      </trkpt>
      <trkpt lat="44.95757" lon="2.93934">
        <ele>1054.75</ele>
        <time>2015-04-28T10:38:23Z</time>
      </trkpt>
      <trkpt lat="44.95752" lon="2.93928">
        <ele>1053.08</ele>
        <time>2015-04-28T10:38:33Z</time>
      </trkpt>
      <trkpt lat="44.95752" lon="2.93926">
        <ele>1053</ele>
        <time>2015-04-28T10:38:43Z</time>
      </trkpt>
      <trkpt lat="44.95751" lon="2.93916">
        <ele>1052.25</ele>
        <time>2015-04-28T10:38:53Z</time>
      </trkpt>
      <trkpt lat="44.95747" lon="2.93904">
        <ele>1057.65</ele>
        <time>2015-04-28T10:39:03Z</time>
      </trkpt>
      <trkpt lat="44.95743" lon="2.93895">
        <ele>1061.68</ele>
        <time>2015-04-28T10:39:13Z</time>
      </trkpt>
      <trkpt lat="44.95741" lon="2.93888">
        <ele>1062.25</ele>
        <time>2015-04-28T10:39:23Z</time>
      </trkpt>
      <trkpt lat="44.95737" lon="2.93873">
        <ele>1058.99</ele>
        <time>2015-04-28T10:39:33Z</time>
      </trkpt>
      <trkpt lat="44.95735" lon="2.93858">
        <ele>1057.25</ele>
        <time>2015-04-28T10:39:43Z</time>
      </trkpt>
      <trkpt lat="44.9573" lon="2.93842">
        <ele>1055.17</ele>
        <time>2015-04-28T10:39:53Z</time>
      </trkpt>
      <trkpt lat="44.95728" lon="2.93813">
        <ele>1057.25</ele>
        <time>2015-04-28T10:40:03Z</time>
      </trkpt>
      <trkpt lat="44.95729" lon="2.93792">
        <ele>1052.01</ele>
        <time>2015-04-28T10:40:13Z</time>
      </trkpt>
      <trkpt lat="44.95732" lon="2.93776">
        <ele>1051</ele>
        <time>2015-04-28T10:40:23Z</time>
      </trkpt>
      <trkpt lat="44.95736" lon="2.93761">
        <ele>1051.79</ele>
        <time>2015-04-28T10:40:33Z</time>
      </trkpt>
      <trkpt lat="44.95739" lon="2.93747">
        <ele>1049.06</ele>
        <time>2015-04-28T10:40:43Z</time>
      </trkpt>
      <trkpt lat="44.95742" lon="2.93738">
        <ele>1051.68</ele>
        <time>2015-04-28T10:40:53Z</time>
      </trkpt>
      <trkpt lat="44.95743" lon="2.93734">
        <ele>1053</ele>
        <time>2015-04-28T10:41:03Z</time>
      </trkpt>
      <trkpt lat="44.95748" lon="2.93719">
        <ele>1047.33</ele>
        <time>2015-04-28T10:41:13Z</time>
      </trkpt>
      <trkpt lat="44.95759" lon="2.937">
        <ele>1044.7</ele>
        <time>2015-04-28T10:41:23Z</time>
      </trkpt>
      <trkpt lat="44.95766" lon="2.93688">
        <ele>1040.82</ele>
        <time>2015-04-28T10:41:33Z</time>
      </trkpt>
      <trkpt lat="44.95773" lon="2.93678">
        <ele>1036.7</ele>
        <time>2015-04-28T10:41:43Z</time>
      </trkpt>
      <trkpt lat="44.95778" lon="2.93669">
        <ele>1040.67</ele>
        <time>2015-04-28T10:41:53Z</time>
      </trkpt>
      <trkpt lat="44.95786" lon="2.93656">
        <ele>1039.25</ele>
        <time>2015-04-28T10:42:03Z</time>
      </trkpt>
      <trkpt lat="44.95797" lon="2.9365">
        <ele>1034</ele>
        <time>2015-04-28T10:42:13Z</time>
      </trkpt>
      <trkpt lat="44.95807" lon="2.93637">
        <ele>1033.33</ele>
        <time>2015-04-28T10:42:23Z</time>
      </trkpt>
      <trkpt lat="44.95813" lon="2.9362">
        <ele>1038.74</ele>
        <time>2015-04-28T10:42:33Z</time>
      </trkpt>
      <trkpt lat="44.95813" lon="2.93614">
        <ele>1039.99</ele>
        <time>2015-04-28T10:42:43Z</time>
      </trkpt>
      <trkpt lat="44.95814" lon="2.93609">
        <ele>1040.98</ele>
        <time>2015-04-28T10:42:53Z</time>
      </trkpt>
      <trkpt lat="44.9582" lon="2.93599">
        <ele>1032.59</ele>
        <time>2015-04-28T10:43:03Z</time>
      </trkpt>
      <trkpt lat="44.95825" lon="2.93584">
        <ele>1034.17</ele>
        <time>2015-04-28T10:43:13Z</time>
      </trkpt>
      <trkpt lat="44.95826" lon="2.93569">
        <ele>1032.79</ele>
        <time>2015-04-28T10:43:23Z</time>
      </trkpt>
      <trkpt lat="44.95835" lon="2.93558">
        <ele>1027.08</ele>
        <time>2015-04-28T10:43:33Z</time>
      </trkpt>
      <trkpt lat="44.95847" lon="2.93546">
        <ele>1029.73</ele>
        <time>2015-04-28T10:43:43Z</time>
      </trkpt>
      <trkpt lat="44.95858" lon="2.93538">
        <ele>1028.92</ele>
        <time>2015-04-28T10:43:53Z</time>
      </trkpt>
      <trkpt lat="44.95865" lon="2.93532">
        <ele>1032.98</ele>
        <time>2015-04-28T10:44:03Z</time>
      </trkpt>
      <trkpt lat="44.95868" lon="2.9353">
        <ele>1035</ele>
        <time>2015-04-28T10:44:13Z</time>
      </trkpt>
      <trkpt lat="44.95874" lon="2.93524">
        <ele>1030.89</ele>
        <time>2015-04-28T10:44:23Z</time>
      </trkpt>
      <trkpt lat="44.95879" lon="2.93519">
        <ele>1030.99</ele>
        <time>2015-04-28T10:44:33Z</time>
      </trkpt>
      <trkpt lat="44.95888" lon="2.93508">
        <ele>1028.25</ele>
        <time>2015-04-28T10:44:43Z</time>
      </trkpt>
      <trkpt lat="44.95896" lon="2.93495">
        <ele>1032.98</ele>
        <time>2015-04-28T10:44:53Z</time>
      </trkpt>
      <trkpt lat="44.95903" lon="2.93479">
        <ele>1033</ele>
        <time>2015-04-28T10:45:03Z</time>
      </trkpt>
      <trkpt lat="44.95909" lon="2.93465">
        <ele>1032.02</ele>
        <time>2015-04-28T10:45:13Z</time>
      </trkpt>
      <trkpt lat="44.95916" lon="2.93465">
        <ele>1028.96</ele>
        <time>2015-04-28T10:45:23Z</time>
      </trkpt>
      <trkpt lat="44.95926" lon="2.93465">
        <ele>1024</ele>
        <time>2015-04-28T10:45:33Z</time>
      </trkpt>
      <trkpt lat="44.9594" lon="2.93467">
        <ele>1029.12</ele>
        <time>2015-04-28T10:45:43Z</time>
      </trkpt>
      <trkpt lat="44.95955" lon="2.9347">
        <ele>1028.74</ele>
        <time>2015-04-28T10:45:53Z</time>
      </trkpt>
      <trkpt lat="44.95964" lon="2.93472">
        <ele>1029.02</ele>
        <time>2015-04-28T10:46:03Z</time>
      </trkpt>
      <trkpt lat="44.95977" lon="2.93471">
        <ele>1031.93</ele>
        <time>2015-04-28T10:46:13Z</time>
      </trkpt>
      <trkpt lat="44.95988" lon="2.93469">
        <ele>1033</ele>
        <time>2015-04-28T10:46:23Z</time>
      </trkpt>
      <trkpt lat="44.95998" lon="2.93469">
        <ele>1031.06</ele>
        <time>2015-04-28T10:46:33Z</time>
      </trkpt>
      <trkpt lat="44.96009" lon="2.9346">
        <ele>1033.93</ele>
        <time>2015-04-28T10:46:43Z</time>
      </trkpt>
      <trkpt lat="44.96017" lon="2.93458">
        <ele>1030.99</ele>
        <time>2015-04-28T10:46:53Z</time>
      </trkpt>
      <trkpt lat="44.96027" lon="2.93444">
        <ele>1033</ele>
        <time>2015-04-28T10:47:03Z</time>
      </trkpt>
      <trkpt lat="44.9604" lon="2.93433">
        <ele>1035.01</ele>
        <time>2015-04-28T10:47:13Z</time>
      </trkpt>
      <trkpt lat="44.96053" lon="2.93428">
        <ele>1037.24</ele>
        <time>2015-04-28T10:47:23Z</time>
      </trkpt>
      <trkpt lat="44.96064" lon="2.93431">
        <ele>1035.26</ele>
        <time>2015-04-28T10:47:33Z</time>
      </trkpt>
      <trkpt lat="44.96077" lon="2.93425">
        <ele>1035.94</ele>
        <time>2015-04-28T10:47:43Z</time>
      </trkpt>
      <trkpt lat="44.96089" lon="2.93423">
        <ele>1035.92</ele>
        <time>2015-04-28T10:47:53Z</time>
      </trkpt>
      <trkpt lat="44.96098" lon="2.93422">
        <ele>1035</ele>
        <time>2015-04-28T10:48:03Z</time>
      </trkpt>
      <trkpt lat="44.9611" lon="2.93416">
        <ele>1036.26</ele>
        <time>2015-04-28T10:48:13Z</time>
      </trkpt>
      <trkpt lat="44.96124" lon="2.93413">
        <ele>1036</ele>
        <time>2015-04-28T10:48:23Z</time>
      </trkpt>
      <trkpt lat="44.96133" lon="2.93411">
        <ele>1034.13</ele>
        <time>2015-04-28T10:48:33Z</time>
      </trkpt>
      <trkpt lat="44.9614" lon="2.93412">
        <ele>1031.82</ele>
        <time>2015-04-28T10:48:43Z</time>
      </trkpt>
      <trkpt lat="44.96147" lon="2.93408">
        <ele>1033.77</ele>
        <time>2015-04-28T10:48:53Z</time>
      </trkpt>
      <trkpt lat="44.96156" lon="2.93408">
        <ele>1034</ele>
        <time>2015-04-28T10:49:03Z</time>
      </trkpt>
      <trkpt lat="44.96165" lon="2.93403">
        <ele>1038</ele>
        <time>2015-04-28T10:49:13Z</time>
      </trkpt>
      <trkpt lat="44.96178" lon="2.93405">
        <ele>1033.02</ele>
        <time>2015-04-28T10:49:23Z</time>
      </trkpt>
      <trkpt lat="44.96183" lon="2.93403">
        <ele>1036.75</ele>
        <time>2015-04-28T10:49:33Z</time>
      </trkpt>
      <trkpt lat="44.9619" lon="2.934">
        <ele>1037.06</ele>
        <time>2015-04-28T10:49:43Z</time>
      </trkpt>
      <trkpt lat="44.96197" lon="2.93399">
        <ele>1038.68</ele>
        <time>2015-04-28T10:49:53Z</time>
      </trkpt>
      <trkpt lat="44.96218" lon="2.93401">
        <ele>1041.02</ele>
        <time>2015-04-28T10:50:03Z</time>
      </trkpt>
      <trkpt lat="44.96231" lon="2.93401">
        <ele>1041.31</ele>
        <time>2015-04-28T10:50:13Z</time>
      </trkpt>
      <trkpt lat="44.96243" lon="2.93402">
        <ele>1040</ele>
        <time>2015-04-28T10:50:23Z</time>
      </trkpt>
      <trkpt lat="44.96255" lon="2.93401">
        <ele>1040.98</ele>
        <time>2015-04-28T10:50:33Z</time>
      </trkpt>
      <trkpt lat="44.9626" lon="2.93404">
        <ele>1038.07</ele>
        <time>2015-04-28T10:50:43Z</time>
      </trkpt>
      <trkpt lat="44.96269" lon="2.93411">
        <ele>1035.82</ele>
        <time>2015-04-28T10:50:53Z</time>
      </trkpt>
      <trkpt lat="44.96282" lon="2.93418">
        <ele>1037.45</ele>
        <time>2015-04-28T10:51:03Z</time>
      </trkpt>
      <trkpt lat="44.96292" lon="2.93425">
        <ele>1037.25</ele>
        <time>2015-04-28T10:51:13Z</time>
      </trkpt>
      <trkpt lat="44.963" lon="2.93432">
        <ele>1036.94</ele>
        <time>2015-04-28T10:51:23Z</time>
      </trkpt>
      <trkpt lat="44.96307" lon="2.93438">
        <ele>1039.68</ele>
        <time>2015-04-28T10:51:33Z</time>
      </trkpt>
      <trkpt lat="44.96322" lon="2.93443">
        <ele>1044.98</ele>
        <time>2015-04-28T10:51:43Z</time>
      </trkpt>
      <trkpt lat="44.96327" lon="2.93444">
        <ele>1048.93</ele>
        <time>2015-04-28T10:51:53Z</time>
      </trkpt>
      <trkpt lat="44.96328" lon="2.93445">
        <ele>1049.06</ele>
        <time>2015-04-28T10:52:03Z</time>
      </trkpt>
      <trkpt lat="44.96337" lon="2.93447">
        <ele>1052.65</ele>
        <time>2015-04-28T10:52:13Z</time>
      </trkpt>
      <trkpt lat="44.96347" lon="2.93452">
        <ele>1051.06</ele>
        <time>2015-04-28T10:52:23Z</time>
      </trkpt>
      <trkpt lat="44.96356" lon="2.93456">
        <ele>1039.72</ele>
        <time>2015-04-28T10:52:33Z</time>
      </trkpt>
      <trkpt lat="44.96365" lon="2.93459">
        <ele>1041.97</ele>
        <time>2015-04-28T10:52:43Z</time>
      </trkpt>
      <trkpt lat="44.96377" lon="2.93456">
        <ele>1047.45</ele>
        <time>2015-04-28T10:52:53Z</time>
      </trkpt>
      <trkpt lat="44.96388" lon="2.93457">
        <ele>1046.69</ele>
        <time>2015-04-28T10:53:03Z</time>
      </trkpt>
      <trkpt lat="44.96405" lon="2.93458">
        <ele>1047.92</ele>
        <time>2015-04-28T10:53:13Z</time>
      </trkpt>
      <trkpt lat="44.96412" lon="2.93458">
        <ele>1050</ele>
        <time>2015-04-28T10:53:23Z</time>
      </trkpt>
      <trkpt lat="44.96415" lon="2.93457">
        <ele>1050.06</ele>
        <time>2015-04-28T10:53:33Z</time>
      </trkpt>
      <trkpt lat="44.96435" lon="2.93451">
        <ele>1049.02</ele>
        <time>2015-04-28T10:53:43Z</time>
      </trkpt>
      <trkpt lat="44.96448" lon="2.93451">
        <ele>1050.75</ele>
        <time>2015-04-28T10:53:53Z</time>
      </trkpt>
      <trkpt lat="44.96459" lon="2.93448">
        <ele>1050.53</ele>
        <time>2015-04-28T10:54:03Z</time>
      </trkpt>
      <trkpt lat="44.96473" lon="2.93446">
        <ele>1049.75</ele>
        <time>2015-04-28T10:54:13Z</time>
      </trkpt>
      <trkpt lat="44.96487" lon="2.93445">
        <ele>1054.24</ele>
        <time>2015-04-28T10:54:23Z</time>
      </trkpt>
      <trkpt lat="44.96494" lon="2.93446">
        <ele>1057</ele>
        <time>2015-04-28T10:54:33Z</time>
      </trkpt>
      <trkpt lat="44.96504" lon="2.93451">
        <ele>1059.23</ele>
        <time>2015-04-28T10:54:43Z</time>
      </trkpt>
      <trkpt lat="44.9651" lon="2.93443">
        <ele>1059.94</ele>
        <time>2015-04-28T10:54:53Z</time>
      </trkpt>
      <trkpt lat="44.96515" lon="2.9343">
        <ele>1059.07</ele>
        <time>2015-04-28T10:55:03Z</time>
      </trkpt>
      <trkpt lat="44.96522" lon="2.93422">
        <ele>1059.24</ele>
        <time>2015-04-28T10:55:13Z</time>
      </trkpt>
      <trkpt lat="44.96524" lon="2.93421">
        <ele>1061.98</ele>
        <time>2015-04-28T10:55:23Z</time>
      </trkpt>
      <trkpt lat="44.96524" lon="2.93423">
        <ele>1062</ele>
        <time>2015-04-28T10:55:35Z</time>
      </trkpt>
      <trkpt lat="44.96519" lon="2.93435">
        <ele>1062.75</ele>
        <time>2015-04-28T10:55:45Z</time>
      </trkpt>
      <trkpt lat="44.96511" lon="2.93451">
        <ele>1064.5</ele>
        <time>2015-04-28T10:55:55Z</time>
      </trkpt>
      <trkpt lat="44.96513" lon="2.93462">
        <ele>1065.94</ele>
        <time>2015-04-28T10:56:05Z</time>
      </trkpt>
      <trkpt lat="44.96514" lon="2.93459">
        <ele>1066.98</ele>
        <time>2015-04-28T10:56:15Z</time>
      </trkpt>
      <trkpt lat="44.96516" lon="2.93458">
        <ele>1065.44</ele>
        <time>2015-04-28T10:57:00Z</time>
      </trkpt>
      <trkpt lat="44.96518" lon="2.93459">
        <ele>1063</ele>
        <time>2015-04-28T10:57:10Z</time>
      </trkpt>
      <trkpt lat="44.96519" lon="2.9345">
        <ele>1065</ele>
        <time>2015-04-28T10:57:20Z</time>
      </trkpt>
      <trkpt lat="44.96522" lon="2.93435">
        <ele>1064.06</ele>
        <time>2015-04-28T10:57:30Z</time>
      </trkpt>
      <trkpt lat="44.96525" lon="2.93423">
        <ele>1064.02</ele>
        <time>2015-04-28T10:57:40Z</time>
      </trkpt>
      <trkpt lat="44.96532" lon="2.93411">
        <ele>1063.7</ele>
        <time>2015-04-28T10:57:50Z</time>
      </trkpt>
      <trkpt lat="44.96543" lon="2.93399">
        <ele>1063.06</ele>
        <time>2015-04-28T10:58:00Z</time>
      </trkpt>
      <trkpt lat="44.96553" lon="2.93389">
        <ele>1064.92</ele>
        <time>2015-04-28T10:58:10Z</time>
      </trkpt>
      <trkpt lat="44.96565" lon="2.93381">
        <ele>1065.18</ele>
        <time>2015-04-28T10:58:20Z</time>
      </trkpt>
      <trkpt lat="44.96576" lon="2.93376">
        <ele>1068.98</ele>
        <time>2015-04-28T10:58:30Z</time>
      </trkpt>
      <trkpt lat="44.96571" lon="2.9337">
        <ele>1070.01</ele>
        <time>2015-04-28T10:58:40Z</time>
      </trkpt>
      <trkpt lat="44.96578" lon="2.93379">
        <ele>1070.25</ele>
        <time>2015-04-28T10:58:50Z</time>
      </trkpt>
      <trkpt lat="44.9658" lon="2.93399">
        <ele>1070.03</ele>
        <time>2015-04-28T10:59:00Z</time>
      </trkpt>
      <trkpt lat="44.96576" lon="2.93413">
        <ele>1069.7</ele>
        <time>2015-04-28T10:59:10Z</time>
      </trkpt>
      <trkpt lat="44.96571" lon="2.9343">
        <ele>1067.08</ele>
        <time>2015-04-28T10:59:20Z</time>
      </trkpt>
      <trkpt lat="44.96567" lon="2.93447">
        <ele>1067.43</ele>
        <time>2015-04-28T10:59:30Z</time>
      </trkpt>
      <trkpt lat="44.96563" lon="2.93464">
        <ele>1068.25</ele>
        <time>2015-04-28T10:59:40Z</time>
      </trkpt>
      <trkpt lat="44.96558" lon="2.93478">
        <ele>1067.06</ele>
        <time>2015-04-28T10:59:50Z</time>
      </trkpt>
      <trkpt lat="44.96553" lon="2.93492">
        <ele>1068.98</ele>
        <time>2015-04-28T11:00:00Z</time>
      </trkpt>
      <trkpt lat="44.96548" lon="2.93507">
        <ele>1073.24</ele>
        <time>2015-04-28T11:00:10Z</time>
      </trkpt>
      <trkpt lat="44.96547" lon="2.93517">
        <ele>1072</ele>
        <time>2015-04-28T11:00:20Z</time>
      </trkpt>
      <trkpt lat="44.96543" lon="2.93532">
        <ele>1073.76</ele>
        <time>2015-04-28T11:00:30Z</time>
      </trkpt>
      <trkpt lat="44.96542" lon="2.93534">
        <ele>1074</ele>
        <time>2015-04-28T11:00:56Z</time>
      </trkpt>
      <trkpt lat="44.96539" lon="2.93549">
        <ele>1074.99</ele>
        <time>2015-04-28T11:01:06Z</time>
      </trkpt>
      <trkpt lat="44.96537" lon="2.93566">
        <ele>1073.39</ele>
        <time>2015-04-28T11:01:16Z</time>
      </trkpt>
      <trkpt lat="44.9654" lon="2.93583">
        <ele>1076.99</ele>
        <time>2015-04-28T11:01:26Z</time>
      </trkpt>
      <trkpt lat="44.96545" lon="2.93598">
        <ele>1077.25</ele>
        <time>2015-04-28T11:01:36Z</time>
      </trkpt>
      <trkpt lat="44.96551" lon="2.93611">
        <ele>1081.68</ele>
        <time>2015-04-28T11:01:46Z</time>
      </trkpt>
      <trkpt lat="44.96557" lon="2.93624">
        <ele>1078.87</ele>
        <time>2015-04-28T11:01:56Z</time>
      </trkpt>
      <trkpt lat="44.96561" lon="2.93636">
        <ele>1078.98</ele>
        <time>2015-04-28T11:02:06Z</time>
      </trkpt>
      <trkpt lat="44.96565" lon="2.93653">
        <ele>1083.72</ele>
        <time>2015-04-28T11:02:16Z</time>
      </trkpt>
      <trkpt lat="44.96567" lon="2.93671">
        <ele>1083.99</ele>
        <time>2015-04-28T11:02:26Z</time>
      </trkpt>
      <trkpt lat="44.96569" lon="2.93689">
        <ele>1086.05</ele>
        <time>2015-04-28T11:02:36Z</time>
      </trkpt>
      <trkpt lat="44.96572" lon="2.93702">
        <ele>1086.06</ele>
        <time>2015-04-28T11:02:46Z</time>
      </trkpt>
      <trkpt lat="44.96575" lon="2.93721">
        <ele>1086.25</ele>
        <time>2015-04-28T11:02:56Z</time>
      </trkpt>
      <trkpt lat="44.96581" lon="2.93736">
        <ele>1089.86</ele>
        <time>2015-04-28T11:03:06Z</time>
      </trkpt>
      <trkpt lat="44.96584" lon="2.93754">
        <ele>1093.73</ele>
        <time>2015-04-28T11:03:16Z</time>
      </trkpt>
      <trkpt lat="44.96588" lon="2.93771">
        <ele>1094.19</ele>
        <time>2015-04-28T11:03:26Z</time>
      </trkpt>
      <trkpt lat="44.96592" lon="2.93787">
        <ele>1093.03</ele>
        <time>2015-04-28T11:03:36Z</time>
      </trkpt>
      <trkpt lat="44.96596" lon="2.93801">
        <ele>1093</ele>
        <time>2015-04-28T11:03:46Z</time>
      </trkpt>
      <trkpt lat="44.96605" lon="2.93815">
        <ele>1094.74</ele>
        <time>2015-04-28T11:03:56Z</time>
      </trkpt>
      <trkpt lat="44.96613" lon="2.93831">
        <ele>1096</ele>
        <time>2015-04-28T11:04:06Z</time>
      </trkpt>
      <trkpt lat="44.96618" lon="2.93848">
        <ele>1098.92</ele>
        <time>2015-04-28T11:04:16Z</time>
      </trkpt>
      <trkpt lat="44.96619" lon="2.93865">
        <ele>1096.07</ele>
        <time>2015-04-28T11:04:26Z</time>
      </trkpt>
      <trkpt lat="44.96625" lon="2.93878">
        <ele>1095.2</ele>
        <time>2015-04-28T11:04:36Z</time>
      </trkpt>
      <trkpt lat="44.96634" lon="2.9389">
        <ele>1094.05</ele>
        <time>2015-04-28T11:04:46Z</time>
      </trkpt>
      <trkpt lat="44.96641" lon="2.93902">
        <ele>1092.07</ele>
        <time>2015-04-28T11:04:56Z</time>
      </trkpt>
      <trkpt lat="44.96649" lon="2.93916">
        <ele>1093.75</ele>
        <time>2015-04-28T11:05:06Z</time>
      </trkpt>
      <trkpt lat="44.96657" lon="2.93928">
        <ele>1095</ele>
        <time>2015-04-28T11:05:16Z</time>
      </trkpt>
      <trkpt lat="44.96659" lon="2.93929">
        <ele>1096</ele>
        <time>2015-04-28T11:05:26Z</time>
      </trkpt>
      <trkpt lat="44.96665" lon="2.93941">
        <ele>1097.94</ele>
        <time>2015-04-28T11:05:36Z</time>
      </trkpt>
      <trkpt lat="44.96662" lon="2.93934">
        <ele>1098.24</ele>
        <time>2015-04-28T11:05:46Z</time>
      </trkpt>
      <trkpt lat="44.96672" lon="2.93931">
        <ele>1098.75</ele>
        <time>2015-04-28T11:05:56Z</time>
      </trkpt>
      <trkpt lat="44.96683" lon="2.93929">
        <ele>1097.02</ele>
        <time>2015-04-28T11:06:06Z</time>
      </trkpt>
      <trkpt lat="44.96697" lon="2.93927">
        <ele>1097.19</ele>
        <time>2015-04-28T11:06:16Z</time>
      </trkpt>
      <trkpt lat="44.96706" lon="2.93925">
        <ele>1098.75</ele>
        <time>2015-04-28T11:06:26Z</time>
      </trkpt>
      <trkpt lat="44.96707" lon="2.93924">
        <ele>1096</ele>
        <time>2015-04-28T11:06:36Z</time>
      </trkpt>
      <trkpt lat="44.96707" lon="2.93922">
        <ele>1096</ele>
        <time>2015-04-28T11:06:50Z</time>
      </trkpt>
      <trkpt lat="44.96708" lon="2.93922">
        <ele>1096</ele>
        <time>2015-04-28T11:07:12Z</time>
      </trkpt>
      <trkpt lat="44.96721" lon="2.93922">
        <ele>1094.94</ele>
        <time>2015-04-28T11:07:22Z</time>
      </trkpt>
      <trkpt lat="44.96734" lon="2.93916">
        <ele>1095.05</ele>
        <time>2015-04-28T11:07:32Z</time>
      </trkpt>
      <trkpt lat="44.96741" lon="2.93913">
        <ele>1097.06</ele>
        <time>2015-04-28T11:07:42Z</time>
      </trkpt>
      <trkpt lat="44.96741" lon="2.93914">
        <ele>1097.05</ele>
        <time>2015-04-28T11:08:17Z</time>
      </trkpt>
      <trkpt lat="44.96743" lon="2.93914">
        <ele>1096</ele>
        <time>2015-04-28T11:08:27Z</time>
      </trkpt>
      <trkpt lat="44.96744" lon="2.93914">
        <ele>1096</ele>
        <time>2015-04-28T11:09:10Z</time>
      </trkpt>
      <trkpt lat="44.96757" lon="2.93909">
        <ele>1099</ele>
        <time>2015-04-28T11:09:20Z</time>
      </trkpt>
      <trkpt lat="44.96773" lon="2.93901">
        <ele>1101.73</ele>
        <time>2015-04-28T11:09:30Z</time>
      </trkpt>
      <trkpt lat="44.96786" lon="2.93895">
        <ele>1099.25</ele>
        <time>2015-04-28T11:09:40Z</time>
      </trkpt>
      <trkpt lat="44.96794" lon="2.93887">
        <ele>1099.94</ele>
        <time>2015-04-28T11:09:50Z</time>
      </trkpt>
      <trkpt lat="44.96803" lon="2.93882">
        <ele>1100.07</ele>
        <time>2015-04-28T11:10:00Z</time>
      </trkpt>
      <trkpt lat="44.96816" lon="2.93881">
        <ele>1100.28</ele>
        <time>2015-04-28T11:10:10Z</time>
      </trkpt>
      <trkpt lat="44.96827" lon="2.93879">
        <ele>1099</ele>
        <time>2015-04-28T11:10:20Z</time>
      </trkpt>
      <trkpt lat="44.96836" lon="2.93876">
        <ele>1098</ele>
        <time>2015-04-28T11:10:30Z</time>
      </trkpt>
      <trkpt lat="44.9685" lon="2.93873">
        <ele>1096.25</ele>
        <time>2015-04-28T11:10:40Z</time>
      </trkpt>
      <trkpt lat="44.96864" lon="2.93868">
        <ele>1094.06</ele>
        <time>2015-04-28T11:10:50Z</time>
      </trkpt>
      <trkpt lat="44.96879" lon="2.93865">
        <ele>1095.98</ele>
        <time>2015-04-28T11:11:00Z</time>
      </trkpt>
      <trkpt lat="44.9689" lon="2.93861">
        <ele>1095.09</ele>
        <time>2015-04-28T11:11:10Z</time>
      </trkpt>
      <trkpt lat="44.96903" lon="2.93859">
        <ele>1094.28</ele>
        <time>2015-04-28T11:11:20Z</time>
      </trkpt>
      <trkpt lat="44.96916" lon="2.93855">
        <ele>1094.05</ele>
        <time>2015-04-28T11:11:30Z</time>
      </trkpt>
      <trkpt lat="44.96927" lon="2.93853">
        <ele>1094.05</ele>
        <time>2015-04-28T11:11:40Z</time>
      </trkpt>
      <trkpt lat="44.96936" lon="2.9385">
        <ele>1093.01</ele>
        <time>2015-04-28T11:11:50Z</time>
      </trkpt>
      <trkpt lat="44.96949" lon="2.93847">
        <ele>1095.99</ele>
        <time>2015-04-28T11:12:00Z</time>
      </trkpt>
      <trkpt lat="44.9695" lon="2.93848">
        <ele>1096</ele>
        <time>2015-04-28T11:12:16Z</time>
      </trkpt>
      <trkpt lat="44.96951" lon="2.9385">
        <ele>1096.06</ele>
        <time>2015-04-28T11:12:26Z</time>
      </trkpt>
      <trkpt lat="44.96956" lon="2.93848">
        <ele>1095.26</ele>
        <time>2015-04-28T11:12:36Z</time>
      </trkpt>
      <trkpt lat="44.9697" lon="2.93844">
        <ele>1093.75</ele>
        <time>2015-04-28T11:12:46Z</time>
      </trkpt>
      <trkpt lat="44.96982" lon="2.93842">
        <ele>1094</ele>
        <time>2015-04-28T11:12:56Z</time>
      </trkpt>
      <trkpt lat="44.96993" lon="2.9384">
        <ele>1095.94</ele>
        <time>2015-04-28T11:13:06Z</time>
      </trkpt>
      <trkpt lat="44.97006" lon="2.93838">
        <ele>1094.25</ele>
        <time>2015-04-28T11:13:16Z</time>
      </trkpt>
      <trkpt lat="44.97009" lon="2.9384">
        <ele>1094</ele>
        <time>2015-04-28T11:13:26Z</time>
      </trkpt>
      <trkpt lat="44.9701" lon="2.9384">
        <ele>1093.95</ele>
        <time>2015-04-28T11:14:04Z</time>
      </trkpt>
      <trkpt lat="44.97024" lon="2.93841">
        <ele>1091.26</ele>
        <time>2015-04-28T11:14:14Z</time>
      </trkpt>
      <trkpt lat="44.97035" lon="2.93841">
        <ele>1093</ele>
        <time>2015-04-28T11:14:24Z</time>
      </trkpt>
      <trkpt lat="44.97044" lon="2.93839">
        <ele>1093</ele>
        <time>2015-04-28T11:14:34Z</time>
      </trkpt>
      <trkpt lat="44.97045" lon="2.93839">
        <ele>1090.75</ele>
        <time>2015-04-28T11:15:06Z</time>
      </trkpt>
      <trkpt lat="44.97059" lon="2.93827">
        <ele>1087.94</ele>
        <time>2015-04-28T11:15:16Z</time>
      </trkpt>
      <trkpt lat="44.97066" lon="2.93816">
        <ele>1089</ele>
        <time>2015-04-28T11:15:26Z</time>
      </trkpt>
      <trkpt lat="44.97074" lon="2.93807">
        <ele>1093.93</ele>
        <time>2015-04-28T11:15:36Z</time>
      </trkpt>
      <trkpt lat="44.97084" lon="2.93799">
        <ele>1095.75</ele>
        <time>2015-04-28T11:15:46Z</time>
      </trkpt>
      <trkpt lat="44.97088" lon="2.93798">
        <ele>1092</ele>
        <time>2015-04-28T11:15:56Z</time>
      </trkpt>
      <trkpt lat="44.97087" lon="2.93797">
        <ele>1092.98</ele>
        <time>2015-04-28T11:16:06Z</time>
      </trkpt>
      <trkpt lat="44.97089" lon="2.93796">
        <ele>1092.06</ele>
        <time>2015-04-28T11:16:23Z</time>
      </trkpt>
      <trkpt lat="44.971" lon="2.93788">
        <ele>1094.25</ele>
        <time>2015-04-28T11:16:33Z</time>
      </trkpt>
      <trkpt lat="44.97111" lon="2.93786">
        <ele>1094</ele>
        <time>2015-04-28T11:16:43Z</time>
      </trkpt>
      <trkpt lat="44.97114" lon="2.93791">
        <ele>1093</ele>
        <time>2015-04-28T11:16:53Z</time>
      </trkpt>
      <trkpt lat="44.97116" lon="2.9379">
        <ele>1093.25</ele>
        <time>2015-04-28T11:17:10Z</time>
      </trkpt>
      <trkpt lat="44.97119" lon="2.93789">
        <ele>1094.94</ele>
        <time>2015-04-28T11:17:20Z</time>
      </trkpt>
      <trkpt lat="44.9712" lon="2.9379">
        <ele>1094.25</ele>
        <time>2015-04-28T11:17:40Z</time>
      </trkpt>
      <trkpt lat="44.9713" lon="2.93799">
        <ele>1093</ele>
        <time>2015-04-28T11:17:50Z</time>
      </trkpt>
      <trkpt lat="44.97139" lon="2.93802">
        <ele>1093</ele>
        <time>2015-04-28T11:18:00Z</time>
      </trkpt>
      <trkpt lat="44.97151" lon="2.93807">
        <ele>1091.02</ele>
        <time>2015-04-28T11:18:10Z</time>
      </trkpt>
      <trkpt lat="44.97163" lon="2.93813">
        <ele>1091</ele>
        <time>2015-04-28T11:18:20Z</time>
      </trkpt>
      <trkpt lat="44.97176" lon="2.93821">
        <ele>1091.02</ele>
        <time>2015-04-28T11:18:30Z</time>
      </trkpt>
      <trkpt lat="44.97186" lon="2.9383">
        <ele>1090</ele>
        <time>2015-04-28T11:18:40Z</time>
      </trkpt>
      <trkpt lat="44.97195" lon="2.93838">
        <ele>1090.06</ele>
        <time>2015-04-28T11:18:50Z</time>
      </trkpt>
      <trkpt lat="44.97208" lon="2.93844">
        <ele>1090.25</ele>
        <time>2015-04-28T11:19:00Z</time>
      </trkpt>
      <trkpt lat="44.97221" lon="2.93851">
        <ele>1092.73</ele>
        <time>2015-04-28T11:19:10Z</time>
      </trkpt>
      <trkpt lat="44.97228" lon="2.9386">
        <ele>1091.94</ele>
        <time>2015-04-28T11:19:20Z</time>
      </trkpt>
      <trkpt lat="44.97229" lon="2.93859">
        <ele>1092.75</ele>
        <time>2015-04-28T11:19:30Z</time>
      </trkpt>
      <trkpt lat="44.97238" lon="2.93861">
        <ele>1093.06</ele>
        <time>2015-04-28T11:19:40Z</time>
      </trkpt>
      <trkpt lat="44.9724" lon="2.9386">
        <ele>1093</ele>
        <time>2015-04-28T11:19:50Z</time>
      </trkpt>
      <trkpt lat="44.97239" lon="2.93861">
        <ele>1092.26</ele>
        <time>2015-04-28T11:20:11Z</time>
      </trkpt>
      <trkpt lat="44.97237" lon="2.93861">
        <ele>1092</ele>
        <time>2015-04-28T11:20:21Z</time>
      </trkpt>
      <trkpt lat="44.97238" lon="2.9386">
        <ele>1092.25</ele>
        <time>2015-04-28T11:21:09Z</time>
      </trkpt>
      <trkpt lat="44.97237" lon="2.93861">
        <ele>1091.25</ele>
        <time>2015-04-28T11:21:49Z</time>
      </trkpt>
      <trkpt lat="44.97237" lon="2.93861">
        <ele>1092</ele>
        <time>2015-04-28T11:21:59Z</time>
      </trkpt>
      <trkpt lat="44.97239" lon="2.93861">
        <ele>1090.06</ele>
        <time>2015-04-28T11:22:09Z</time>
      </trkpt>
      <trkpt lat="44.97248" lon="2.93846">
        <ele>1089</ele>
        <time>2015-04-28T11:22:19Z</time>
      </trkpt>
      <trkpt lat="44.97256" lon="2.93831">
        <ele>1089.8</ele>
        <time>2015-04-28T11:22:29Z</time>
      </trkpt>
      <trkpt lat="44.97262" lon="2.93816">
        <ele>1089.01</ele>
        <time>2015-04-28T11:22:39Z</time>
      </trkpt>
      <trkpt lat="44.97265" lon="2.93811">
        <ele>1090</ele>
        <time>2015-04-28T11:22:49Z</time>
      </trkpt>
      <trkpt lat="44.97272" lon="2.93817">
        <ele>1088.25</ele>
        <time>2015-04-28T11:22:59Z</time>
      </trkpt>
      <trkpt lat="44.97283" lon="2.93828">
        <ele>1090</ele>
        <time>2015-04-28T11:23:09Z</time>
      </trkpt>
      <trkpt lat="44.97293" lon="2.93838">
        <ele>1092.75</ele>
        <time>2015-04-28T11:23:19Z</time>
      </trkpt>
      <trkpt lat="44.97306" lon="2.93845">
        <ele>1093.67</ele>
        <time>2015-04-28T11:23:29Z</time>
      </trkpt>
      <trkpt lat="44.97318" lon="2.93852">
        <ele>1089.06</ele>
        <time>2015-04-28T11:23:39Z</time>
      </trkpt>
      <trkpt lat="44.97331" lon="2.93855">
        <ele>1092.17</ele>
        <time>2015-04-28T11:23:49Z</time>
      </trkpt>
      <trkpt lat="44.97339" lon="2.93844">
        <ele>1094.76</ele>
        <time>2015-04-28T11:23:59Z</time>
      </trkpt>
      <trkpt lat="44.97337" lon="2.93835">
        <ele>1095.94</ele>
        <time>2015-04-28T11:24:09Z</time>
      </trkpt>
      <trkpt lat="44.97334" lon="2.93817">
        <ele>1096.81</ele>
        <time>2015-04-28T11:24:19Z</time>
      </trkpt>
      <trkpt lat="44.97332" lon="2.93796">
        <ele>1097.74</ele>
        <time>2015-04-28T11:24:29Z</time>
      </trkpt>
      <trkpt lat="44.97331" lon="2.93777">
        <ele>1098.03</ele>
        <time>2015-04-28T11:24:39Z</time>
      </trkpt>
      <trkpt lat="44.97327" lon="2.93761">
        <ele>1100.75</ele>
        <time>2015-04-28T11:24:49Z</time>
      </trkpt>
      <trkpt lat="44.97324" lon="2.93739">
        <ele>1100.95</ele>
        <time>2015-04-28T11:24:59Z</time>
      </trkpt>
      <trkpt lat="44.97323" lon="2.93723">
        <ele>1100.67</ele>
        <time>2015-04-28T11:25:09Z</time>
      </trkpt>
      <trkpt lat="44.97321" lon="2.93703">
        <ele>1101.5</ele>
        <time>2015-04-28T11:25:19Z</time>
      </trkpt>
      <trkpt lat="44.97323" lon="2.93685">
        <ele>1098.31</ele>
        <time>2015-04-28T11:25:29Z</time>
      </trkpt>
      <trkpt lat="44.97329" lon="2.93666">
        <ele>1097.01</ele>
        <time>2015-04-28T11:25:39Z</time>
      </trkpt>
      <trkpt lat="44.97335" lon="2.93649">
        <ele>1097.75</ele>
        <time>2015-04-28T11:25:49Z</time>
      </trkpt>
      <trkpt lat="44.97337" lon="2.93632">
        <ele>1099.94</ele>
        <time>2015-04-28T11:25:59Z</time>
      </trkpt>
      <trkpt lat="44.97338" lon="2.93614">
        <ele>1101.06</ele>
        <time>2015-04-28T11:26:09Z</time>
      </trkpt>
      <trkpt lat="44.97337" lon="2.93597">
        <ele>1101.98</ele>
        <time>2015-04-28T11:26:19Z</time>
      </trkpt>
      <trkpt lat="44.97337" lon="2.93582">
        <ele>1100.06</ele>
        <time>2015-04-28T11:26:29Z</time>
      </trkpt>
      <trkpt lat="44.97332" lon="2.93564">
        <ele>1101.8</ele>
        <time>2015-04-28T11:26:39Z</time>
      </trkpt>
      <trkpt lat="44.97326" lon="2.93546">
        <ele>1099.12</ele>
        <time>2015-04-28T11:26:49Z</time>
      </trkpt>
      <trkpt lat="44.97323" lon="2.93526">
        <ele>1102</ele>
        <time>2015-04-28T11:26:59Z</time>
      </trkpt>
      <trkpt lat="44.97327" lon="2.93516">
        <ele>1099.68</ele>
        <time>2015-04-28T11:27:09Z</time>
      </trkpt>
      <trkpt lat="44.97327" lon="2.93514">
        <ele>1099.25</ele>
        <time>2015-04-28T11:27:22Z</time>
      </trkpt>
      <trkpt lat="44.97315" lon="2.93511">
        <ele>1100.23</ele>
        <time>2015-04-28T11:27:32Z</time>
      </trkpt>
      <trkpt lat="44.97308" lon="2.93515">
        <ele>1098.02</ele>
        <time>2015-04-28T11:27:42Z</time>
      </trkpt>
      <trkpt lat="44.9731" lon="2.93514">
        <ele>1097</ele>
        <time>2015-04-28T11:27:54Z</time>
      </trkpt>
      <trkpt lat="44.97324" lon="2.9351">
        <ele>1096.75</ele>
        <time>2015-04-28T11:28:04Z</time>
      </trkpt>
      <trkpt lat="44.97335" lon="2.93505">
        <ele>1098.7</ele>
        <time>2015-04-28T11:28:14Z</time>
      </trkpt>
      <trkpt lat="44.97347" lon="2.93495">
        <ele>1099.98</ele>
        <time>2015-04-28T11:28:24Z</time>
      </trkpt>
      <trkpt lat="44.97359" lon="2.93487">
        <ele>1102</ele>
        <time>2015-04-28T11:28:34Z</time>
      </trkpt>
      <trkpt lat="44.9737" lon="2.93481">
        <ele>1101</ele>
        <time>2015-04-28T11:28:44Z</time>
      </trkpt>
      <trkpt lat="44.97383" lon="2.93472">
        <ele>1096.07</ele>
        <time>2015-04-28T11:28:54Z</time>
      </trkpt>
      <trkpt lat="44.97394" lon="2.93464">
        <ele>1099</ele>
        <time>2015-04-28T11:29:04Z</time>
      </trkpt>
      <trkpt lat="44.97404" lon="2.93458">
        <ele>1098.25</ele>
        <time>2015-04-28T11:29:14Z</time>
      </trkpt>
      <trkpt lat="44.97413" lon="2.93453">
        <ele>1096.27</ele>
        <time>2015-04-28T11:29:24Z</time>
      </trkpt>
      <trkpt lat="44.97425" lon="2.93446">
        <ele>1095.95</ele>
        <time>2015-04-28T11:29:34Z</time>
      </trkpt>
      <trkpt lat="44.97435" lon="2.93438">
        <ele>1097.78</ele>
        <time>2015-04-28T11:29:44Z</time>
      </trkpt>
      <trkpt lat="44.97448" lon="2.9343">
        <ele>1095.05</ele>
        <time>2015-04-28T11:29:54Z</time>
      </trkpt>
      <trkpt lat="44.97461" lon="2.93423">
        <ele>1096.94</ele>
        <time>2015-04-28T11:30:04Z</time>
      </trkpt>
      <trkpt lat="44.97473" lon="2.93415">
        <ele>1098.37</ele>
        <time>2015-04-28T11:30:14Z</time>
      </trkpt>
      <trkpt lat="44.97487" lon="2.93404">
        <ele>1094.76</ele>
        <time>2015-04-28T11:30:24Z</time>
      </trkpt>
      <trkpt lat="44.97498" lon="2.93399">
        <ele>1094</ele>
        <time>2015-04-28T11:30:34Z</time>
      </trkpt>
      <trkpt lat="44.97509" lon="2.93392">
        <ele>1094.92</ele>
        <time>2015-04-28T11:30:44Z</time>
      </trkpt>
      <trkpt lat="44.97519" lon="2.93383">
        <ele>1095.19</ele>
        <time>2015-04-28T11:30:54Z</time>
      </trkpt>
      <trkpt lat="44.97531" lon="2.93373">
        <ele>1097.25</ele>
        <time>2015-04-28T11:31:04Z</time>
      </trkpt>
      <trkpt lat="44.97543" lon="2.93362">
        <ele>1097</ele>
        <time>2015-04-28T11:31:14Z</time>
      </trkpt>
      <trkpt lat="44.97551" lon="2.93349">
        <ele>1097</ele>
        <time>2015-04-28T11:31:24Z</time>
      </trkpt>
      <trkpt lat="44.97558" lon="2.93334">
        <ele>1099.95</ele>
        <time>2015-04-28T11:31:34Z</time>
      </trkpt>
      <trkpt lat="44.97564" lon="2.93319">
        <ele>1099.39</ele>
        <time>2015-04-28T11:31:44Z</time>
      </trkpt>
      <trkpt lat="44.97573" lon="2.93309">
        <ele>1097.06</ele>
        <time>2015-04-28T11:31:54Z</time>
      </trkpt>
      <trkpt lat="44.97584" lon="2.93298">
        <ele>1096.01</ele>
        <time>2015-04-28T11:32:04Z</time>
      </trkpt>
      <trkpt lat="44.97594" lon="2.93288">
        <ele>1098.01</ele>
        <time>2015-04-28T11:32:14Z</time>
      </trkpt>
      <trkpt lat="44.97606" lon="2.93281">
        <ele>1096.48</ele>
        <time>2015-04-28T11:32:24Z</time>
      </trkpt>
      <trkpt lat="44.97618" lon="2.93273">
        <ele>1097.23</ele>
        <time>2015-04-28T11:32:34Z</time>
      </trkpt>
      <trkpt lat="44.9763" lon="2.93263">
        <ele>1095.77</ele>
        <time>2015-04-28T11:32:44Z</time>
      </trkpt>
      <trkpt lat="44.97641" lon="2.93255">
        <ele>1096.67</ele>
        <time>2015-04-28T11:32:54Z</time>
      </trkpt>
      <trkpt lat="44.97652" lon="2.93247">
        <ele>1097.25</ele>
        <time>2015-04-28T11:33:04Z</time>
      </trkpt>
      <trkpt lat="44.97661" lon="2.93244">
        <ele>1096</ele>
        <time>2015-04-28T11:33:14Z</time>
      </trkpt>
      <trkpt lat="44.97661" lon="2.93242">
        <ele>1093</ele>
        <time>2015-04-28T11:33:26Z</time>
      </trkpt>
      <trkpt lat="44.97667" lon="2.93238">
        <ele>1090.06</ele>
        <time>2015-04-28T11:33:36Z</time>
      </trkpt>
      <trkpt lat="44.97665" lon="2.93238">
        <ele>1089.99</ele>
        <time>2015-04-28T11:33:46Z</time>
      </trkpt>
      <trkpt lat="44.97675" lon="2.93235">
        <ele>1090.95</ele>
        <time>2015-04-28T11:33:56Z</time>
      </trkpt>
      <trkpt lat="44.97691" lon="2.93234">
        <ele>1091.07</ele>
        <time>2015-04-28T11:34:06Z</time>
      </trkpt>
      <trkpt lat="44.97705" lon="2.93231">
        <ele>1088.19</ele>
        <time>2015-04-28T11:34:16Z</time>
      </trkpt>
      <trkpt lat="44.97719" lon="2.93228">
        <ele>1086</ele>
        <time>2015-04-28T11:34:26Z</time>
      </trkpt>
      <trkpt lat="44.97747" lon="2.93225">
        <ele>1074</ele>
        <time>2015-04-28T11:34:58Z</time>
      </trkpt>
      <trkpt lat="44.97769" lon="2.93217">
        <ele>1082.26</ele>
        <time>2015-04-28T11:35:08Z</time>
      </trkpt>
      <trkpt lat="44.97781" lon="2.93208">
        <ele>1080.25</ele>
        <time>2015-04-28T11:35:18Z</time>
      </trkpt>
      <trkpt lat="44.97791" lon="2.932">
        <ele>1079.27</ele>
        <time>2015-04-28T11:35:28Z</time>
      </trkpt>
      <trkpt lat="44.97803" lon="2.93192">
        <ele>1079.75</ele>
        <time>2015-04-28T11:35:38Z</time>
      </trkpt>
      <trkpt lat="44.97814" lon="2.93185">
        <ele>1079.75</ele>
        <time>2015-04-28T11:35:48Z</time>
      </trkpt>
      <trkpt lat="44.97825" lon="2.93177">
        <ele>1078.99</ele>
        <time>2015-04-28T11:35:58Z</time>
      </trkpt>
      <trkpt lat="44.97836" lon="2.93168">
        <ele>1080.94</ele>
        <time>2015-04-28T11:36:08Z</time>
      </trkpt>
      <trkpt lat="44.97847" lon="2.93158">
        <ele>1080.81</ele>
        <time>2015-04-28T11:36:18Z</time>
      </trkpt>
      <trkpt lat="44.97859" lon="2.93149">
        <ele>1080.24</ele>
        <time>2015-04-28T11:36:28Z</time>
      </trkpt>
      <trkpt lat="44.97868" lon="2.93138">
        <ele>1078.27</ele>
        <time>2015-04-28T11:36:38Z</time>
      </trkpt>
      <trkpt lat="44.9788" lon="2.93129">
        <ele>1081.92</ele>
        <time>2015-04-28T11:36:48Z</time>
      </trkpt>
      <trkpt lat="44.97889" lon="2.93116">
        <ele>1082</ele>
        <time>2015-04-28T11:36:58Z</time>
      </trkpt>
      <trkpt lat="44.97899" lon="2.93108">
        <ele>1079.02</ele>
        <time>2015-04-28T11:37:08Z</time>
      </trkpt>
      <trkpt lat="44.97908" lon="2.93095">
        <ele>1079.24</ele>
        <time>2015-04-28T11:37:18Z</time>
      </trkpt>
      <trkpt lat="44.97913" lon="2.93096">
        <ele>1078.81</ele>
        <time>2015-04-28T11:37:28Z</time>
      </trkpt>
      <trkpt lat="44.97928" lon="2.93096">
        <ele>1079.93</ele>
        <time>2015-04-28T11:37:38Z</time>
      </trkpt>
      <trkpt lat="44.97941" lon="2.93095">
        <ele>1083</ele>
        <time>2015-04-28T11:37:48Z</time>
      </trkpt>
      <trkpt lat="44.97954" lon="2.93097">
        <ele>1084.95</ele>
        <time>2015-04-28T11:37:58Z</time>
      </trkpt>
      <trkpt lat="44.97967" lon="2.93099">
        <ele>1086.92</ele>
        <time>2015-04-28T11:38:08Z</time>
      </trkpt>
      <trkpt lat="44.9798" lon="2.93101">
        <ele>1086.05</ele>
        <time>2015-04-28T11:38:18Z</time>
      </trkpt>
      <trkpt lat="44.97991" lon="2.93102">
        <ele>1086.87</ele>
        <time>2015-04-28T11:38:28Z</time>
      </trkpt>
      <trkpt lat="44.98004" lon="2.93105">
        <ele>1084.07</ele>
        <time>2015-04-28T11:38:38Z</time>
      </trkpt>
      <trkpt lat="44.98016" lon="2.93108">
        <ele>1087.98</ele>
        <time>2015-04-28T11:38:48Z</time>
      </trkpt>
      <trkpt lat="44.98026" lon="2.93111">
        <ele>1086.95</ele>
        <time>2015-04-28T11:38:58Z</time>
      </trkpt>
      <trkpt lat="44.98026" lon="2.9311">
        <ele>1087.25</ele>
        <time>2015-04-28T11:39:24Z</time>
      </trkpt>
      <trkpt lat="44.98026" lon="2.93107">
        <ele>1087.94</ele>
        <time>2015-04-28T11:39:58Z</time>
      </trkpt>
      <trkpt lat="44.98043" lon="2.9309">
        <ele>1086.28</ele>
        <time>2015-04-28T11:40:08Z</time>
      </trkpt>
      <trkpt lat="44.98055" lon="2.93076">
        <ele>1087.72</ele>
        <time>2015-04-28T11:40:18Z</time>
      </trkpt>
      <trkpt lat="44.98065" lon="2.93064">
        <ele>1087.94</ele>
        <time>2015-04-28T11:40:28Z</time>
      </trkpt>
      <trkpt lat="44.98076" lon="2.93056">
        <ele>1089.75</ele>
        <time>2015-04-28T11:40:38Z</time>
      </trkpt>
      <trkpt lat="44.98088" lon="2.93049">
        <ele>1089.24</ele>
        <time>2015-04-28T11:40:48Z</time>
      </trkpt>
      <trkpt lat="44.98102" lon="2.93041">
        <ele>1093.93</ele>
        <time>2015-04-28T11:40:58Z</time>
      </trkpt>
      <trkpt lat="44.98113" lon="2.93033">
        <ele>1093.25</ele>
        <time>2015-04-28T11:41:08Z</time>
      </trkpt>
      <trkpt lat="44.98118" lon="2.93027">
        <ele>1089.13</ele>
        <time>2015-04-28T11:41:18Z</time>
      </trkpt>
      <trkpt lat="44.98132" lon="2.9302">
        <ele>1095.74</ele>
        <time>2015-04-28T11:41:28Z</time>
      </trkpt>
      <trkpt lat="44.98144" lon="2.93008">
        <ele>1096.23</ele>
        <time>2015-04-28T11:41:38Z</time>
      </trkpt>
      <trkpt lat="44.98156" lon="2.93">
        <ele>1095.24</ele>
        <time>2015-04-28T11:41:48Z</time>
      </trkpt>
      <trkpt lat="44.98168" lon="2.93">
        <ele>1096.01</ele>
        <time>2015-04-28T11:41:58Z</time>
      </trkpt>
      <trkpt lat="44.98184" lon="2.93001">
        <ele>1099.19</ele>
        <time>2015-04-28T11:42:08Z</time>
      </trkpt>
      <trkpt lat="44.98196" lon="2.93004">
        <ele>1103.6</ele>
        <time>2015-04-28T11:42:18Z</time>
      </trkpt>
      <trkpt lat="44.98207" lon="2.93008">
        <ele>1106.95</ele>
        <time>2015-04-28T11:42:28Z</time>
      </trkpt>
      <trkpt lat="44.98216" lon="2.93024">
        <ele>1106.55</ele>
        <time>2015-04-28T11:42:38Z</time>
      </trkpt>
      <trkpt lat="44.98219" lon="2.93039">
        <ele>1101.95</ele>
        <time>2015-04-28T11:42:48Z</time>
      </trkpt>
      <trkpt lat="44.98222" lon="2.93056">
        <ele>1100.26</ele>
        <time>2015-04-28T11:42:58Z</time>
      </trkpt>
      <trkpt lat="44.98224" lon="2.93071">
        <ele>1096.19</ele>
        <time>2015-04-28T11:43:08Z</time>
      </trkpt>
      <trkpt lat="44.9823" lon="2.93087">
        <ele>1099.78</ele>
        <time>2015-04-28T11:43:18Z</time>
      </trkpt>
      <trkpt lat="44.98235" lon="2.93099">
        <ele>1096.77</ele>
        <time>2015-04-28T11:43:28Z</time>
      </trkpt>
      <trkpt lat="44.98239" lon="2.93116">
        <ele>1097.15</ele>
        <time>2015-04-28T11:43:38Z</time>
      </trkpt>
      <trkpt lat="44.98247" lon="2.93131">
        <ele>1096.25</ele>
        <time>2015-04-28T11:43:48Z</time>
      </trkpt>
      <trkpt lat="44.9825" lon="2.93146">
        <ele>1098.99</ele>
        <time>2015-04-28T11:43:58Z</time>
      </trkpt>
      <trkpt lat="44.98255" lon="2.93161">
        <ele>1099.25</ele>
        <time>2015-04-28T11:44:08Z</time>
      </trkpt>
      <trkpt lat="44.9826" lon="2.93176">
        <ele>1100</ele>
        <time>2015-04-28T11:44:18Z</time>
      </trkpt>
      <trkpt lat="44.98289" lon="2.93219">
        <ele>1101.75</ele>
        <time>2015-04-28T11:44:59Z</time>
      </trkpt>
      <trkpt lat="44.98293" lon="2.93244">
        <ele>1094.93</ele>
        <time>2015-04-28T11:45:09Z</time>
      </trkpt>
      <trkpt lat="44.98293" lon="2.93248">
        <ele>1094.01</ele>
        <time>2015-04-28T11:45:19Z</time>
      </trkpt>
      <trkpt lat="44.98294" lon="2.93248">
        <ele>1095</ele>
        <time>2015-04-28T11:45:29Z</time>
      </trkpt>
      <trkpt lat="44.98302" lon="2.93246">
        <ele>1094.99</ele>
        <time>2015-04-28T11:45:39Z</time>
      </trkpt>
      <trkpt lat="44.98308" lon="2.93239">
        <ele>1095.92</ele>
        <time>2015-04-28T11:45:49Z</time>
      </trkpt>
      <trkpt lat="44.98315" lon="2.93233">
        <ele>1097.93</ele>
        <time>2015-04-28T11:45:59Z</time>
      </trkpt>
      <trkpt lat="44.98323" lon="2.93224">
        <ele>1099.81</ele>
        <time>2015-04-28T11:46:09Z</time>
      </trkpt>
      <trkpt lat="44.9833" lon="2.93212">
        <ele>1100.69</ele>
        <time>2015-04-28T11:46:19Z</time>
      </trkpt>
      <trkpt lat="44.98338" lon="2.93203">
        <ele>1101.82</ele>
        <time>2015-04-28T11:46:29Z</time>
      </trkpt>
      <trkpt lat="44.98348" lon="2.93197">
        <ele>1107.94</ele>
        <time>2015-04-28T11:46:39Z</time>
      </trkpt>
      <trkpt lat="44.9836" lon="2.93193">
        <ele>1106.05</ele>
        <time>2015-04-28T11:46:49Z</time>
      </trkpt>
      <trkpt lat="44.9837" lon="2.93193">
        <ele>1106.91</ele>
        <time>2015-04-28T11:46:59Z</time>
      </trkpt>
      <trkpt lat="44.98381" lon="2.93192">
        <ele>1107.75</ele>
        <time>2015-04-28T11:47:09Z</time>
      </trkpt>
      <trkpt lat="44.98391" lon="2.93186">
        <ele>1116.17</ele>
        <time>2015-04-28T11:47:19Z</time>
      </trkpt>
      <trkpt lat="44.98389" lon="2.93176">
        <ele>1110.01</ele>
        <time>2015-04-28T11:47:29Z</time>
      </trkpt>
      <trkpt lat="44.98396" lon="2.9317">
        <ele>1111.97</ele>
        <time>2015-04-28T11:47:39Z</time>
      </trkpt>
      <trkpt lat="44.98406" lon="2.93174">
        <ele>1105.97</ele>
        <time>2015-04-28T11:47:49Z</time>
      </trkpt>
      <trkpt lat="44.98415" lon="2.93183">
        <ele>1113.87</ele>
        <time>2015-04-28T11:47:59Z</time>
      </trkpt>
      <trkpt lat="44.98426" lon="2.93189">
        <ele>1117.75</ele>
        <time>2015-04-28T11:48:09Z</time>
      </trkpt>
      <trkpt lat="44.98424" lon="2.93177">
        <ele>1117.76</ele>
        <time>2015-04-28T11:48:19Z</time>
      </trkpt>
      <trkpt lat="44.98419" lon="2.93159">
        <ele>1115.99</ele>
        <time>2015-04-28T11:48:29Z</time>
      </trkpt>
      <trkpt lat="44.98422" lon="2.93143">
        <ele>1116.77</ele>
        <time>2015-04-28T11:48:39Z</time>
      </trkpt>
      <trkpt lat="44.98428" lon="2.9313">
        <ele>1122</ele>
        <time>2015-04-28T11:48:49Z</time>
      </trkpt>
      <trkpt lat="44.98431" lon="2.93115">
        <ele>1121.32</ele>
        <time>2015-04-28T11:48:59Z</time>
      </trkpt>
      <trkpt lat="44.98432" lon="2.93103">
        <ele>1119.82</ele>
        <time>2015-04-28T11:49:09Z</time>
      </trkpt>
      <trkpt lat="44.98436" lon="2.93089">
        <ele>1121.52</ele>
        <time>2015-04-28T11:49:19Z</time>
      </trkpt>
      <trkpt lat="44.98433" lon="2.93081">
        <ele>1115.69</ele>
        <time>2015-04-28T11:50:00Z</time>
      </trkpt>
      <trkpt lat="44.9843" lon="2.93077">
        <ele>1108.24</ele>
        <time>2015-04-28T11:50:10Z</time>
      </trkpt>
      <trkpt lat="44.98431" lon="2.93076">
        <ele>1114.97</ele>
        <time>2015-04-28T11:52:53Z</time>
      </trkpt>
      <trkpt lat="44.9844" lon="2.93071">
        <ele>1118.99</ele>
        <time>2015-04-28T11:53:03Z</time>
      </trkpt>
      <trkpt lat="44.98448" lon="2.93059">
        <ele>1120.18</ele>
        <time>2015-04-28T11:53:13Z</time>
      </trkpt>
      <trkpt lat="44.98456" lon="2.93047">
        <ele>1120.95</ele>
        <time>2015-04-28T11:53:23Z</time>
      </trkpt>
      <trkpt lat="44.98464" lon="2.93032">
        <ele>1118.77</ele>
        <time>2015-04-28T11:53:33Z</time>
      </trkpt>
      <trkpt lat="44.98474" lon="2.9302">
        <ele>1116.06</ele>
        <time>2015-04-28T11:53:43Z</time>
      </trkpt>
      <trkpt lat="44.98487" lon="2.93008">
        <ele>1118</ele>
        <time>2015-04-28T11:53:53Z</time>
      </trkpt>
      <trkpt lat="44.98498" lon="2.92998">
        <ele>1119.02</ele>
        <time>2015-04-28T11:54:03Z</time>
      </trkpt>
      <trkpt lat="44.98508" lon="2.92987">
        <ele>1119.99</ele>
        <time>2015-04-28T11:54:13Z</time>
      </trkpt>
      <trkpt lat="44.98518" lon="2.92978">
        <ele>1116.95</ele>
        <time>2015-04-28T11:54:23Z</time>
      </trkpt>
      <trkpt lat="44.98565" lon="2.92942">
        <ele>1113.98</ele>
        <time>2015-04-28T11:54:59Z</time>
      </trkpt>
      <trkpt lat="44.98567" lon="2.92933">
        <ele>1112.82</ele>
        <time>2015-04-28T11:55:09Z</time>
      </trkpt>
      <trkpt lat="44.98577" lon="2.92924">
        <ele>1113.94</ele>
        <time>2015-04-28T11:55:19Z</time>
      </trkpt>
      <trkpt lat="44.98582" lon="2.92917">
        <ele>1114.07</ele>
        <time>2015-04-28T11:55:29Z</time>
      </trkpt>
      <trkpt lat="44.98581" lon="2.92916">
        <ele>1113</ele>
        <time>2015-04-28T11:55:39Z</time>
      </trkpt>
      <trkpt lat="44.98582" lon="2.92916">
        <ele>1113.75</ele>
        <time>2015-04-28T11:56:00Z</time>
      </trkpt>
      <trkpt lat="44.9859" lon="2.92908">
        <ele>1112.8</ele>
        <time>2015-04-28T11:56:10Z</time>
      </trkpt>
      <trkpt lat="44.98593" lon="2.92906">
        <ele>1113.95</ele>
        <time>2015-04-28T11:56:20Z</time>
      </trkpt>
      <trkpt lat="44.98593" lon="2.92898">
        <ele>1115</ele>
        <time>2015-04-28T11:56:30Z</time>
      </trkpt>
      <trkpt lat="44.98594" lon="2.92898">
        <ele>1116</ele>
        <time>2015-04-28T11:56:40Z</time>
      </trkpt>
      <trkpt lat="44.98604" lon="2.92895">
        <ele>1116</ele>
        <time>2015-04-28T11:56:50Z</time>
      </trkpt>
      <trkpt lat="44.98605" lon="2.92895">
        <ele>1114.06</ele>
        <time>2015-04-28T11:57:00Z</time>
      </trkpt>
      <trkpt lat="44.98605" lon="2.92893">
        <ele>1113</ele>
        <time>2015-04-28T11:57:10Z</time>
      </trkpt>
      <trkpt lat="44.98606" lon="2.92891">
        <ele>1113</ele>
        <time>2015-04-28T11:57:44Z</time>
      </trkpt>
      <trkpt lat="44.98615" lon="2.92883">
        <ele>1113.05</ele>
        <time>2015-04-28T11:57:54Z</time>
      </trkpt>
      <trkpt lat="44.98625" lon="2.92874">
        <ele>1115.98</ele>
        <time>2015-04-28T11:58:04Z</time>
      </trkpt>
      <trkpt lat="44.98638" lon="2.92864">
        <ele>1117.25</ele>
        <time>2015-04-28T11:58:14Z</time>
      </trkpt>
      <trkpt lat="44.98649" lon="2.92855">
        <ele>1115</ele>
        <time>2015-04-28T11:58:24Z</time>
      </trkpt>
      <trkpt lat="44.9866" lon="2.92847">
        <ele>1113.27</ele>
        <time>2015-04-28T11:58:34Z</time>
      </trkpt>
      <trkpt lat="44.9867" lon="2.92838">
        <ele>1112.06</ele>
        <time>2015-04-28T11:58:44Z</time>
      </trkpt>
      <trkpt lat="44.9868" lon="2.92824">
        <ele>1110.23</ele>
        <time>2015-04-28T11:58:54Z</time>
      </trkpt>
      <trkpt lat="44.98686" lon="2.92809">
        <ele>1110.25</ele>
        <time>2015-04-28T11:59:04Z</time>
      </trkpt>
      <trkpt lat="44.9869" lon="2.92795">
        <ele>1112.94</ele>
        <time>2015-04-28T11:59:14Z</time>
      </trkpt>
      <trkpt lat="44.98696" lon="2.9278">
        <ele>1113.75</ele>
        <time>2015-04-28T11:59:24Z</time>
      </trkpt>
      <trkpt lat="44.98736" lon="2.92723">
        <ele>1129.75</ele>
        <time>2015-04-28T11:59:59Z</time>
      </trkpt>
      <trkpt lat="44.98733" lon="2.92725">
        <ele>1108.21</ele>
        <time>2015-04-28T12:00:09Z</time>
      </trkpt>
      <trkpt lat="44.98741" lon="2.92709">
        <ele>1109.04</ele>
        <time>2015-04-28T12:00:19Z</time>
      </trkpt>
      <trkpt lat="44.98748" lon="2.92688">
        <ele>1111</ele>
        <time>2015-04-28T12:00:29Z</time>
      </trkpt>
      <trkpt lat="44.98756" lon="2.92673">
        <ele>1111</ele>
        <time>2015-04-28T12:00:39Z</time>
      </trkpt>
      <trkpt lat="44.98765" lon="2.92661">
        <ele>1112.67</ele>
        <time>2015-04-28T12:00:49Z</time>
      </trkpt>
      <trkpt lat="44.98767" lon="2.92657">
        <ele>1112.99</ele>
        <time>2015-04-28T12:00:59Z</time>
      </trkpt>
      <trkpt lat="44.98769" lon="2.92655">
        <ele>1112.81</ele>
        <time>2015-04-28T12:02:44Z</time>
      </trkpt>
      <trkpt lat="44.9878" lon="2.92646">
        <ele>1111</ele>
        <time>2015-04-28T12:02:54Z</time>
      </trkpt>
      <trkpt lat="44.98788" lon="2.92635">
        <ele>1110</ele>
        <time>2015-04-28T12:03:04Z</time>
      </trkpt>
      <trkpt lat="44.98797" lon="2.92624">
        <ele>1107.06</ele>
        <time>2015-04-28T12:03:14Z</time>
      </trkpt>
      <trkpt lat="44.98807" lon="2.92611">
        <ele>1108.06</ele>
        <time>2015-04-28T12:03:24Z</time>
      </trkpt>
      <trkpt lat="44.98815" lon="2.926">
        <ele>1108.8</ele>
        <time>2015-04-28T12:03:34Z</time>
      </trkpt>
      <trkpt lat="44.98823" lon="2.92587">
        <ele>1106.25</ele>
        <time>2015-04-28T12:03:44Z</time>
      </trkpt>
      <trkpt lat="44.98831" lon="2.92577">
        <ele>1105.99</ele>
        <time>2015-04-28T12:03:54Z</time>
      </trkpt>
      <trkpt lat="44.9884" lon="2.92564">
        <ele>1107</ele>
        <time>2015-04-28T12:04:04Z</time>
      </trkpt>
      <trkpt lat="44.98849" lon="2.92552">
        <ele>1106</ele>
        <time>2015-04-28T12:04:14Z</time>
      </trkpt>
      <trkpt lat="44.98856" lon="2.9254">
        <ele>1102.07</ele>
        <time>2015-04-28T12:04:24Z</time>
      </trkpt>
      <trkpt lat="44.98881" lon="2.92511">
        <ele>1102.48</ele>
        <time>2015-04-28T12:05:00Z</time>
      </trkpt>
      <trkpt lat="44.98897" lon="2.9249">
        <ele>1100.25</ele>
        <time>2015-04-28T12:05:10Z</time>
      </trkpt>
      <trkpt lat="44.98907" lon="2.92476">
        <ele>1100</ele>
        <time>2015-04-28T12:05:20Z</time>
      </trkpt>
      <trkpt lat="44.98918" lon="2.92465">
        <ele>1099.2</ele>
        <time>2015-04-28T12:05:30Z</time>
      </trkpt>
      <trkpt lat="44.98927" lon="2.92453">
        <ele>1100.05</ele>
        <time>2015-04-28T12:05:40Z</time>
      </trkpt>
      <trkpt lat="44.98934" lon="2.92442">
        <ele>1099.77</ele>
        <time>2015-04-28T12:05:50Z</time>
      </trkpt>
      <trkpt lat="44.9894" lon="2.92429">
        <ele>1098.31</ele>
        <time>2015-04-28T12:06:00Z</time>
      </trkpt>
      <trkpt lat="44.98946" lon="2.92417">
        <ele>1097</ele>
        <time>2015-04-28T12:06:10Z</time>
      </trkpt>
      <trkpt lat="44.98951" lon="2.92401">
        <ele>1094</ele>
        <time>2015-04-28T12:06:20Z</time>
      </trkpt>
      <trkpt lat="44.98954" lon="2.92385">
        <ele>1095.71</ele>
        <time>2015-04-28T12:06:30Z</time>
      </trkpt>
      <trkpt lat="44.98958" lon="2.92368">
        <ele>1095.7</ele>
        <time>2015-04-28T12:06:40Z</time>
      </trkpt>
      <trkpt lat="44.98963" lon="2.92352">
        <ele>1093</ele>
        <time>2015-04-28T12:06:50Z</time>
      </trkpt>
      <trkpt lat="44.98968" lon="2.92341">
        <ele>1091.25</ele>
        <time>2015-04-28T12:07:00Z</time>
      </trkpt>
      <trkpt lat="44.98973" lon="2.92327">
        <ele>1091</ele>
        <time>2015-04-28T12:07:10Z</time>
      </trkpt>
      <trkpt lat="44.98973" lon="2.92322">
        <ele>1092</ele>
        <time>2015-04-28T12:07:20Z</time>
      </trkpt>
      <trkpt lat="44.98974" lon="2.92322">
        <ele>1094.75</ele>
        <time>2015-04-28T12:07:40Z</time>
      </trkpt>
      <trkpt lat="44.98975" lon="2.92324">
        <ele>1094.75</ele>
        <time>2015-04-28T12:07:53Z</time>
      </trkpt>
      <trkpt lat="44.98976" lon="2.92324">
        <ele>1095</ele>
        <time>2015-04-28T12:08:03Z</time>
      </trkpt>
      <trkpt lat="44.98976" lon="2.92322">
        <ele>1095.25</ele>
        <time>2015-04-28T12:08:13Z</time>
      </trkpt>
      <trkpt lat="44.98982" lon="2.92307">
        <ele>1089</ele>
        <time>2015-04-28T12:08:23Z</time>
      </trkpt>
      <trkpt lat="44.98989" lon="2.92291">
        <ele>1087.05</ele>
        <time>2015-04-28T12:08:33Z</time>
      </trkpt>
      <trkpt lat="44.98995" lon="2.92276">
        <ele>1085.2</ele>
        <time>2015-04-28T12:08:43Z</time>
      </trkpt>
      <trkpt lat="44.98999" lon="2.92262">
        <ele>1086.98</ele>
        <time>2015-04-28T12:08:53Z</time>
      </trkpt>
      <trkpt lat="44.99004" lon="2.92257">
        <ele>1085.98</ele>
        <time>2015-04-28T12:09:03Z</time>
      </trkpt>
      <trkpt lat="44.99004" lon="2.92255">
        <ele>1085.93</ele>
        <time>2015-04-28T12:09:13Z</time>
      </trkpt>
      <trkpt lat="44.99005" lon="2.92253">
        <ele>1084.94</ele>
        <time>2015-04-28T12:10:08Z</time>
      </trkpt>
      <trkpt lat="44.99012" lon="2.92244">
        <ele>1084.01</ele>
        <time>2015-04-28T12:10:18Z</time>
      </trkpt>
      <trkpt lat="44.99022" lon="2.92233">
        <ele>1083.73</ele>
        <time>2015-04-28T12:10:28Z</time>
      </trkpt>
      <trkpt lat="44.99028" lon="2.92221">
        <ele>1083.81</ele>
        <time>2015-04-28T12:10:38Z</time>
      </trkpt>
      <trkpt lat="44.99035" lon="2.9221">
        <ele>1081.02</ele>
        <time>2015-04-28T12:10:48Z</time>
      </trkpt>
      <trkpt lat="44.9904" lon="2.92204">
        <ele>1082</ele>
        <time>2015-04-28T12:10:58Z</time>
      </trkpt>
      <trkpt lat="44.99046" lon="2.92195">
        <ele>1078.99</ele>
        <time>2015-04-28T12:11:08Z</time>
      </trkpt>
      <trkpt lat="44.99052" lon="2.92182">
        <ele>1080.25</ele>
        <time>2015-04-28T12:11:18Z</time>
      </trkpt>
      <trkpt lat="44.9906" lon="2.9217">
        <ele>1080.75</ele>
        <time>2015-04-28T12:11:28Z</time>
      </trkpt>
      <trkpt lat="44.99067" lon="2.92156">
        <ele>1081.19</ele>
        <time>2015-04-28T12:11:38Z</time>
      </trkpt>
      <trkpt lat="44.99073" lon="2.9214">
        <ele>1082.25</ele>
        <time>2015-04-28T12:11:48Z</time>
      </trkpt>
      <trkpt lat="44.99081" lon="2.92128">
        <ele>1080.09</ele>
        <time>2015-04-28T12:11:58Z</time>
      </trkpt>
      <trkpt lat="44.99086" lon="2.92113">
        <ele>1081</ele>
        <time>2015-04-28T12:12:08Z</time>
      </trkpt>
      <trkpt lat="44.99087" lon="2.92099">
        <ele>1082</ele>
        <time>2015-04-28T12:12:18Z</time>
      </trkpt>
      <trkpt lat="44.9909" lon="2.92099">
        <ele>1082.25</ele>
        <time>2015-04-28T12:12:28Z</time>
      </trkpt>
      <trkpt lat="44.9909" lon="2.92101">
        <ele>1082</ele>
        <time>2015-04-28T12:12:39Z</time>
      </trkpt>
      <trkpt lat="44.9909" lon="2.92099">
        <ele>1082</ele>
        <time>2015-04-28T12:13:11Z</time>
      </trkpt>
      <trkpt lat="44.99095" lon="2.92083">
        <ele>1079.02</ele>
        <time>2015-04-28T12:13:21Z</time>
      </trkpt>
      <trkpt lat="44.99101" lon="2.92068">
        <ele>1081.92</ele>
        <time>2015-04-28T12:13:31Z</time>
      </trkpt>
      <trkpt lat="44.99108" lon="2.92054">
        <ele>1081.02</ele>
        <time>2015-04-28T12:13:41Z</time>
      </trkpt>
      <trkpt lat="44.99113" lon="2.92039">
        <ele>1080.99</ele>
        <time>2015-04-28T12:13:51Z</time>
      </trkpt>
      <trkpt lat="44.99119" lon="2.92024">
        <ele>1082.92</ele>
        <time>2015-04-28T12:14:01Z</time>
      </trkpt>
      <trkpt lat="44.99132" lon="2.92023">
        <ele>1085.73</ele>
        <time>2015-04-28T12:14:11Z</time>
      </trkpt>
      <trkpt lat="44.99146" lon="2.92023">
        <ele>1086</ele>
        <time>2015-04-28T12:14:21Z</time>
      </trkpt>
      <trkpt lat="44.99184" lon="2.92022">
        <ele>1083.75</ele>
        <time>2015-04-28T12:15:01Z</time>
      </trkpt>
      <trkpt lat="44.99185" lon="2.92003">
        <ele>1081.02</ele>
        <time>2015-04-28T12:15:11Z</time>
      </trkpt>
      <trkpt lat="44.99192" lon="2.9199">
        <ele>1082.75</ele>
        <time>2015-04-28T12:15:21Z</time>
      </trkpt>
      <trkpt lat="44.99198" lon="2.91982">
        <ele>1083.99</ele>
        <time>2015-04-28T12:15:31Z</time>
      </trkpt>
      <trkpt lat="44.99207" lon="2.91975">
        <ele>1081.81</ele>
        <time>2015-04-28T12:15:41Z</time>
      </trkpt>
      <trkpt lat="44.99216" lon="2.9197">
        <ele>1083</ele>
        <time>2015-04-28T12:15:51Z</time>
      </trkpt>
      <trkpt lat="44.99225" lon="2.91958">
        <ele>1083</ele>
        <time>2015-04-28T12:16:01Z</time>
      </trkpt>
      <trkpt lat="44.99236" lon="2.91949">
        <ele>1082.23</ele>
        <time>2015-04-28T12:16:11Z</time>
      </trkpt>
      <trkpt lat="44.99246" lon="2.91942">
        <ele>1081</ele>
        <time>2015-04-28T12:16:21Z</time>
      </trkpt>
      <trkpt lat="44.99255" lon="2.91932">
        <ele>1082</ele>
        <time>2015-04-28T12:16:31Z</time>
      </trkpt>
      <trkpt lat="44.99265" lon="2.91924">
        <ele>1083.25</ele>
        <time>2015-04-28T12:16:41Z</time>
      </trkpt>
      <trkpt lat="44.99275" lon="2.91916">
        <ele>1083.99</ele>
        <time>2015-04-28T12:16:51Z</time>
      </trkpt>
      <trkpt lat="44.99283" lon="2.91908">
        <ele>1086.75</ele>
        <time>2015-04-28T12:17:01Z</time>
      </trkpt>
      <trkpt lat="44.99293" lon="2.91899">
        <ele>1086.75</ele>
        <time>2015-04-28T12:17:11Z</time>
      </trkpt>
      <trkpt lat="44.99302" lon="2.91889">
        <ele>1086.75</ele>
        <time>2015-04-28T12:17:21Z</time>
      </trkpt>
      <trkpt lat="44.99312" lon="2.91883">
        <ele>1087</ele>
        <time>2015-04-28T12:17:31Z</time>
      </trkpt>
      <trkpt lat="44.99322" lon="2.91873">
        <ele>1088</ele>
        <time>2015-04-28T12:17:41Z</time>
      </trkpt>
      <trkpt lat="44.99332" lon="2.91863">
        <ele>1086.99</ele>
        <time>2015-04-28T12:17:51Z</time>
      </trkpt>
      <trkpt lat="44.99342" lon="2.91856">
        <ele>1087.98</ele>
        <time>2015-04-28T12:18:01Z</time>
      </trkpt>
      <trkpt lat="44.99352" lon="2.91849">
        <ele>1087</ele>
        <time>2015-04-28T12:18:11Z</time>
      </trkpt>
      <trkpt lat="44.9936" lon="2.91838">
        <ele>1089</ele>
        <time>2015-04-28T12:18:21Z</time>
      </trkpt>
      <trkpt lat="44.99371" lon="2.91831">
        <ele>1088.06</ele>
        <time>2015-04-28T12:18:31Z</time>
      </trkpt>
      <trkpt lat="44.99382" lon="2.91826">
        <ele>1090.94</ele>
        <time>2015-04-28T12:18:41Z</time>
      </trkpt>
      <trkpt lat="44.99391" lon="2.91819">
        <ele>1088.25</ele>
        <time>2015-04-28T12:18:51Z</time>
      </trkpt>
      <trkpt lat="44.99399" lon="2.91811">
        <ele>1089.08</ele>
        <time>2015-04-28T12:19:01Z</time>
      </trkpt>
      <trkpt lat="44.99412" lon="2.91804">
        <ele>1091</ele>
        <time>2015-04-28T12:19:11Z</time>
      </trkpt>
      <trkpt lat="44.99421" lon="2.918">
        <ele>1088.46</ele>
        <time>2015-04-28T12:19:21Z</time>
      </trkpt>
      <trkpt lat="44.99459" lon="2.91766">
        <ele>1086.52</ele>
        <time>2015-04-28T12:20:01Z</time>
      </trkpt>
      <trkpt lat="44.99466" lon="2.91757">
        <ele>1092.16</ele>
        <time>2015-04-28T12:20:11Z</time>
      </trkpt>
      <trkpt lat="44.99473" lon="2.91752">
        <ele>1092.93</ele>
        <time>2015-04-28T12:20:21Z</time>
      </trkpt>
      <trkpt lat="44.9948" lon="2.91745">
        <ele>1095</ele>
        <time>2015-04-28T12:20:31Z</time>
      </trkpt>
      <trkpt lat="44.99486" lon="2.91738">
        <ele>1096.75</ele>
        <time>2015-04-28T12:20:41Z</time>
      </trkpt>
      <trkpt lat="44.99493" lon="2.91732">
        <ele>1096.05</ele>
        <time>2015-04-28T12:20:51Z</time>
      </trkpt>
      <trkpt lat="44.99498" lon="2.91728">
        <ele>1094</ele>
        <time>2015-04-28T12:21:01Z</time>
      </trkpt>
      <trkpt lat="44.99506" lon="2.91725">
        <ele>1096.78</ele>
        <time>2015-04-28T12:21:11Z</time>
      </trkpt>
      <trkpt lat="44.9952" lon="2.9172">
        <ele>1095.75</ele>
        <time>2015-04-28T12:21:21Z</time>
      </trkpt>
      <trkpt lat="44.99532" lon="2.91714">
        <ele>1096.02</ele>
        <time>2015-04-28T12:21:31Z</time>
      </trkpt>
      <trkpt lat="44.99543" lon="2.91713">
        <ele>1095.77</ele>
        <time>2015-04-28T12:21:41Z</time>
      </trkpt>
      <trkpt lat="44.99556" lon="2.9171">
        <ele>1097.19</ele>
        <time>2015-04-28T12:21:51Z</time>
      </trkpt>
      <trkpt lat="44.99566" lon="2.91709">
        <ele>1095.02</ele>
        <time>2015-04-28T12:22:01Z</time>
      </trkpt>
      <trkpt lat="44.99576" lon="2.91699">
        <ele>1097.98</ele>
        <time>2015-04-28T12:22:11Z</time>
      </trkpt>
      <trkpt lat="44.99587" lon="2.91689">
        <ele>1097.75</ele>
        <time>2015-04-28T12:22:21Z</time>
      </trkpt>
      <trkpt lat="44.99596" lon="2.91682">
        <ele>1097.19</ele>
        <time>2015-04-28T12:22:31Z</time>
      </trkpt>
      <trkpt lat="44.99604" lon="2.91676">
        <ele>1097</ele>
        <time>2015-04-28T12:22:41Z</time>
      </trkpt>
      <trkpt lat="44.99608" lon="2.9167">
        <ele>1097.23</ele>
        <time>2015-04-28T12:22:51Z</time>
      </trkpt>
      <trkpt lat="44.99616" lon="2.91665">
        <ele>1097.75</ele>
        <time>2015-04-28T12:23:01Z</time>
      </trkpt>
      <trkpt lat="44.99625" lon="2.91658">
        <ele>1099.69</ele>
        <time>2015-04-28T12:23:11Z</time>
      </trkpt>
      <trkpt lat="44.99634" lon="2.91653">
        <ele>1099</ele>
        <time>2015-04-28T12:23:21Z</time>
      </trkpt>
      <trkpt lat="44.99643" lon="2.91642">
        <ele>1102.19</ele>
        <time>2015-04-28T12:23:31Z</time>
      </trkpt>
      <trkpt lat="44.99652" lon="2.91634">
        <ele>1103.06</ele>
        <time>2015-04-28T12:23:41Z</time>
      </trkpt>
      <trkpt lat="44.99662" lon="2.91626">
        <ele>1108.73</ele>
        <time>2015-04-28T12:23:51Z</time>
      </trkpt>
      <trkpt lat="44.9967" lon="2.91617">
        <ele>1104.29</ele>
        <time>2015-04-28T12:24:01Z</time>
      </trkpt>
      <trkpt lat="44.99676" lon="2.91613">
        <ele>1100.75</ele>
        <time>2015-04-28T12:24:11Z</time>
      </trkpt>
      <trkpt lat="44.99684" lon="2.91608">
        <ele>1102.87</ele>
        <time>2015-04-28T12:24:21Z</time>
      </trkpt>
      <trkpt lat="44.99729" lon="2.91606">
        <ele>1098.56</ele>
        <time>2015-04-28T12:25:02Z</time>
      </trkpt>
      <trkpt lat="44.99744" lon="2.91599">
        <ele>1106.27</ele>
        <time>2015-04-28T12:25:12Z</time>
      </trkpt>
      <trkpt lat="44.99752" lon="2.91596">
        <ele>1103</ele>
        <time>2015-04-28T12:25:22Z</time>
      </trkpt>
      <trkpt lat="44.9976" lon="2.91594">
        <ele>1104.69</ele>
        <time>2015-04-28T12:25:32Z</time>
      </trkpt>
      <trkpt lat="44.99769" lon="2.91588">
        <ele>1103.08</ele>
        <time>2015-04-28T12:25:42Z</time>
      </trkpt>
      <trkpt lat="44.99773" lon="2.91582">
        <ele>1104.75</ele>
        <time>2015-04-28T12:25:52Z</time>
      </trkpt>
      <trkpt lat="44.99779" lon="2.91574">
        <ele>1104.19</ele>
        <time>2015-04-28T12:26:02Z</time>
      </trkpt>
      <trkpt lat="44.99784" lon="2.91569">
        <ele>1100.82</ele>
        <time>2015-04-28T12:26:12Z</time>
      </trkpt>
      <trkpt lat="44.99791" lon="2.91561">
        <ele>1103.04</ele>
        <time>2015-04-28T12:26:22Z</time>
      </trkpt>
      <trkpt lat="44.99799" lon="2.91549">
        <ele>1103.18</ele>
        <time>2015-04-28T12:26:32Z</time>
      </trkpt>
      <trkpt lat="44.99799" lon="2.9154">
        <ele>1104</ele>
        <time>2015-04-28T12:26:42Z</time>
      </trkpt>
      <trkpt lat="44.99799" lon="2.91539">
        <ele>1103.98</ele>
        <time>2015-04-28T12:27:47Z</time>
      </trkpt>
      <trkpt lat="44.998" lon="2.91538">
        <ele>1105</ele>
        <time>2015-04-28T12:27:57Z</time>
      </trkpt>
      <trkpt lat="44.99801" lon="2.91539">
        <ele>1108.92</ele>
        <time>2015-04-28T12:28:07Z</time>
      </trkpt>
      <trkpt lat="44.99801" lon="2.91538">
        <ele>1110.75</ele>
        <time>2015-04-28T12:28:25Z</time>
      </trkpt>
      <trkpt lat="44.99801" lon="2.91543">
        <ele>1109</ele>
        <time>2015-04-28T12:44:22Z</time>
      </trkpt>
      <trkpt lat="44.99801" lon="2.91542">
        <ele>1107.73</ele>
        <time>2015-04-28T12:44:33Z</time>
      </trkpt>
      <trkpt lat="44.99802" lon="2.9154">
        <ele>1108</ele>
        <time>2015-04-28T12:44:48Z</time>
      </trkpt>
      <trkpt lat="44.99802" lon="2.91524">
        <ele>1106.07</ele>
        <time>2015-04-28T12:44:58Z</time>
      </trkpt>
      <trkpt lat="44.99797" lon="2.91509">
        <ele>1106.94</ele>
        <time>2015-04-28T12:45:08Z</time>
      </trkpt>
      <trkpt lat="44.99799" lon="2.91512">
        <ele>1106.75</ele>
        <time>2015-04-28T12:45:18Z</time>
      </trkpt>
      <trkpt lat="44.998" lon="2.91512">
        <ele>1106.95</ele>
        <time>2015-04-28T12:45:29Z</time>
      </trkpt>
      <trkpt lat="44.99802" lon="2.91512">
        <ele>1108</ele>
        <time>2015-04-28T12:45:39Z</time>
      </trkpt>
      <trkpt lat="44.99802" lon="2.91512">
        <ele>1108</ele>
        <time>2015-04-28T12:45:49Z</time>
      </trkpt>
      <trkpt lat="44.99801" lon="2.91512">
        <ele>1107</ele>
        <time>2015-04-28T12:46:01Z</time>
      </trkpt>
      <trkpt lat="44.99799" lon="2.91506">
        <ele>1107.05</ele>
        <time>2015-04-28T12:46:11Z</time>
      </trkpt>
      <trkpt lat="44.99799" lon="2.91487">
        <ele>1106.02</ele>
        <time>2015-04-28T12:46:21Z</time>
      </trkpt>
      <trkpt lat="44.99796" lon="2.91472">
        <ele>1105.77</ele>
        <time>2015-04-28T12:46:31Z</time>
      </trkpt>
      <trkpt lat="44.99794" lon="2.91462">
        <ele>1107</ele>
        <time>2015-04-28T12:46:41Z</time>
      </trkpt>
      <trkpt lat="44.99793" lon="2.91459">
        <ele>1106.99</ele>
        <time>2015-04-28T12:46:51Z</time>
      </trkpt>
      <trkpt lat="44.99792" lon="2.91458">
        <ele>1106</ele>
        <time>2015-04-28T12:47:01Z</time>
      </trkpt>
      <trkpt lat="44.99791" lon="2.91446">
        <ele>1105.74</ele>
        <time>2015-04-28T12:47:11Z</time>
      </trkpt>
      <trkpt lat="44.99787" lon="2.91432">
        <ele>1106</ele>
        <time>2015-04-28T12:47:21Z</time>
      </trkpt>
      <trkpt lat="44.99785" lon="2.91424">
        <ele>1107</ele>
        <time>2015-04-28T12:47:31Z</time>
      </trkpt>
      <trkpt lat="44.99785" lon="2.91423">
        <ele>1107.25</ele>
        <time>2015-04-28T12:47:53Z</time>
      </trkpt>
      <trkpt lat="44.99782" lon="2.91409">
        <ele>1107.25</ele>
        <time>2015-04-28T12:48:03Z</time>
      </trkpt>
      <trkpt lat="44.99777" lon="2.91397">
        <ele>1107.08</ele>
        <time>2015-04-28T12:48:13Z</time>
      </trkpt>
      <trkpt lat="44.99777" lon="2.91391">
        <ele>1111.98</ele>
        <time>2015-04-28T12:48:23Z</time>
      </trkpt>
      <trkpt lat="44.99772" lon="2.91383">
        <ele>1109.31</ele>
        <time>2015-04-28T12:48:33Z</time>
      </trkpt>
      <trkpt lat="44.99765" lon="2.91367">
        <ele>1110.75</ele>
        <time>2015-04-28T12:48:43Z</time>
      </trkpt>
      <trkpt lat="44.99757" lon="2.91349">
        <ele>1108.19</ele>
        <time>2015-04-28T12:48:53Z</time>
      </trkpt>
      <trkpt lat="44.99753" lon="2.91335">
        <ele>1109.05</ele>
        <time>2015-04-28T12:49:03Z</time>
      </trkpt>
      <trkpt lat="44.99749" lon="2.91319">
        <ele>1107.02</ele>
        <time>2015-04-28T12:49:13Z</time>
      </trkpt>
      <trkpt lat="44.99742" lon="2.91304">
        <ele>1103.79</ele>
        <time>2015-04-28T12:49:23Z</time>
      </trkpt>
      <trkpt lat="44.99736" lon="2.91288">
        <ele>1105.25</ele>
        <time>2015-04-28T12:49:33Z</time>
      </trkpt>
      <trkpt lat="44.9973" lon="2.91273">
        <ele>1106.05</ele>
        <time>2015-04-28T12:49:43Z</time>
      </trkpt>
      <trkpt lat="44.99723" lon="2.91257">
        <ele>1106.99</ele>
        <time>2015-04-28T12:49:53Z</time>
      </trkpt>
      <trkpt lat="44.99716" lon="2.91244">
        <ele>1106</ele>
        <time>2015-04-28T12:50:03Z</time>
      </trkpt>
      <trkpt lat="44.99708" lon="2.91232">
        <ele>1106.06</ele>
        <time>2015-04-28T12:50:13Z</time>
      </trkpt>
      <trkpt lat="44.99704" lon="2.91224">
        <ele>1105.76</ele>
        <time>2015-04-28T12:50:23Z</time>
      </trkpt>
      <trkpt lat="44.99702" lon="2.91222">
        <ele>1109</ele>
        <time>2015-04-28T12:50:33Z</time>
      </trkpt>
      <trkpt lat="44.99704" lon="2.91215">
        <ele>1107.94</ele>
        <time>2015-04-28T12:50:43Z</time>
      </trkpt>
      <trkpt lat="44.99708" lon="2.91199">
        <ele>1108.74</ele>
        <time>2015-04-28T12:50:53Z</time>
      </trkpt>
      <trkpt lat="44.99713" lon="2.91182">
        <ele>1108.75</ele>
        <time>2015-04-28T12:51:03Z</time>
      </trkpt>
      <trkpt lat="44.99719" lon="2.91168">
        <ele>1108</ele>
        <time>2015-04-28T12:51:13Z</time>
      </trkpt>
      <trkpt lat="44.99721" lon="2.91151">
        <ele>1106</ele>
        <time>2015-04-28T12:51:23Z</time>
      </trkpt>
      <trkpt lat="44.99725" lon="2.91135">
        <ele>1106.02</ele>
        <time>2015-04-28T12:51:33Z</time>
      </trkpt>
      <trkpt lat="44.9973" lon="2.91119">
        <ele>1106.75</ele>
        <time>2015-04-28T12:51:43Z</time>
      </trkpt>
      <trkpt lat="44.99732" lon="2.91099">
        <ele>1109.73</ele>
        <time>2015-04-28T12:51:53Z</time>
      </trkpt>
      <trkpt lat="44.99735" lon="2.91084">
        <ele>1108.69</ele>
        <time>2015-04-28T12:52:03Z</time>
      </trkpt>
      <trkpt lat="44.99738" lon="2.91071">
        <ele>1109.3</ele>
        <time>2015-04-28T12:52:13Z</time>
      </trkpt>
      <trkpt lat="44.9974" lon="2.91057">
        <ele>1109.06</ele>
        <time>2015-04-28T12:52:23Z</time>
      </trkpt>
      <trkpt lat="44.99743" lon="2.91041">
        <ele>1107.06</ele>
        <time>2015-04-28T12:52:33Z</time>
      </trkpt>
      <trkpt lat="44.99745" lon="2.91025">
        <ele>1109</ele>
        <time>2015-04-28T12:52:43Z</time>
      </trkpt>
      <trkpt lat="44.99748" lon="2.91009">
        <ele>1111.92</ele>
        <time>2015-04-28T12:52:53Z</time>
      </trkpt>
      <trkpt lat="44.99751" lon="2.90992">
        <ele>1115.01</ele>
        <time>2015-04-28T12:53:03Z</time>
      </trkpt>
      <trkpt lat="44.99756" lon="2.90978">
        <ele>1113.33</ele>
        <time>2015-04-28T12:53:13Z</time>
      </trkpt>
      <trkpt lat="44.9976" lon="2.90963">
        <ele>1112</ele>
        <time>2015-04-28T12:53:23Z</time>
      </trkpt>
      <trkpt lat="44.99761" lon="2.90948">
        <ele>1111.5</ele>
        <time>2015-04-28T12:53:33Z</time>
      </trkpt>
      <trkpt lat="44.99763" lon="2.90929">
        <ele>1114</ele>
        <time>2015-04-28T12:53:43Z</time>
      </trkpt>
      <trkpt lat="44.99765" lon="2.90914">
        <ele>1115.12</ele>
        <time>2015-04-28T12:53:53Z</time>
      </trkpt>
      <trkpt lat="44.99769" lon="2.90899">
        <ele>1115.25</ele>
        <time>2015-04-28T12:54:03Z</time>
      </trkpt>
      <trkpt lat="44.99773" lon="2.90886">
        <ele>1114.48</ele>
        <time>2015-04-28T12:54:13Z</time>
      </trkpt>
      <trkpt lat="44.99775" lon="2.90871">
        <ele>1116</ele>
        <time>2015-04-28T12:54:23Z</time>
      </trkpt>
      <trkpt lat="44.99778" lon="2.90857">
        <ele>1116</ele>
        <time>2015-04-28T12:54:33Z</time>
      </trkpt>
      <trkpt lat="44.99782" lon="2.90842">
        <ele>1117.92</ele>
        <time>2015-04-28T12:54:43Z</time>
      </trkpt>
      <trkpt lat="44.99786" lon="2.90828">
        <ele>1118.75</ele>
        <time>2015-04-28T12:54:53Z</time>
      </trkpt>
      <trkpt lat="44.99792" lon="2.90815">
        <ele>1120.8</ele>
        <time>2015-04-28T12:55:03Z</time>
      </trkpt>
      <trkpt lat="44.998" lon="2.90808">
        <ele>1118.8</ele>
        <time>2015-04-28T12:55:13Z</time>
      </trkpt>
      <trkpt lat="44.99809" lon="2.90797">
        <ele>1120.92</ele>
        <time>2015-04-28T12:55:23Z</time>
      </trkpt>
      <trkpt lat="44.99816" lon="2.90782">
        <ele>1122.19</ele>
        <time>2015-04-28T12:55:33Z</time>
      </trkpt>
      <trkpt lat="44.99823" lon="2.90771">
        <ele>1122</ele>
        <time>2015-04-28T12:55:43Z</time>
      </trkpt>
      <trkpt lat="44.9983" lon="2.90759">
        <ele>1123.98</ele>
        <time>2015-04-28T12:55:53Z</time>
      </trkpt>
      <trkpt lat="44.99837" lon="2.9075">
        <ele>1122.44</ele>
        <time>2015-04-28T12:56:03Z</time>
      </trkpt>
      <trkpt lat="44.99858" lon="2.90702">
        <ele>1129.5</ele>
        <time>2015-04-28T12:56:37Z</time>
      </trkpt>
      <trkpt lat="44.99864" lon="2.907">
        <ele>1123.19</ele>
        <time>2015-04-28T12:56:47Z</time>
      </trkpt>
      <trkpt lat="44.99872" lon="2.9069">
        <ele>1124.46</ele>
        <time>2015-04-28T12:56:57Z</time>
      </trkpt>
      <trkpt lat="44.99878" lon="2.90678">
        <ele>1126.98</ele>
        <time>2015-04-28T12:57:07Z</time>
      </trkpt>
      <trkpt lat="44.99886" lon="2.9066">
        <ele>1129.5</ele>
        <time>2015-04-28T12:57:17Z</time>
      </trkpt>
      <trkpt lat="44.99891" lon="2.90647">
        <ele>1130.17</ele>
        <time>2015-04-28T12:57:27Z</time>
      </trkpt>
      <trkpt lat="44.99897" lon="2.90637">
        <ele>1130.7</ele>
        <time>2015-04-28T12:57:37Z</time>
      </trkpt>
      <trkpt lat="44.99904" lon="2.90628">
        <ele>1131</ele>
        <time>2015-04-28T12:57:47Z</time>
      </trkpt>
      <trkpt lat="44.9991" lon="2.9062">
        <ele>1130</ele>
        <time>2015-04-28T12:57:57Z</time>
      </trkpt>
      <trkpt lat="44.99914" lon="2.90616">
        <ele>1132</ele>
        <time>2015-04-28T12:58:07Z</time>
      </trkpt>
      <trkpt lat="44.99923" lon="2.90616">
        <ele>1121.79</ele>
        <time>2015-04-28T12:58:17Z</time>
      </trkpt>
      <trkpt lat="44.99931" lon="2.9061">
        <ele>1120.06</ele>
        <time>2015-04-28T12:58:27Z</time>
      </trkpt>
      <trkpt lat="44.99937" lon="2.90591">
        <ele>1125.98</ele>
        <time>2015-04-28T12:58:37Z</time>
      </trkpt>
      <trkpt lat="44.9994" lon="2.90574">
        <ele>1128.74</ele>
        <time>2015-04-28T12:58:47Z</time>
      </trkpt>
      <trkpt lat="44.99943" lon="2.90554">
        <ele>1128.77</ele>
        <time>2015-04-28T12:58:57Z</time>
      </trkpt>
      <trkpt lat="44.99945" lon="2.90535">
        <ele>1131.05</ele>
        <time>2015-04-28T12:59:07Z</time>
      </trkpt>
      <trkpt lat="44.99938" lon="2.90524">
        <ele>1133.67</ele>
        <time>2015-04-28T12:59:17Z</time>
      </trkpt>
      <trkpt lat="44.99927" lon="2.9051">
        <ele>1137.75</ele>
        <time>2015-04-28T12:59:27Z</time>
      </trkpt>
      <trkpt lat="44.99921" lon="2.90496">
        <ele>1140.19</ele>
        <time>2015-04-28T12:59:37Z</time>
      </trkpt>
      <trkpt lat="44.99916" lon="2.90479">
        <ele>1141</ele>
        <time>2015-04-28T12:59:47Z</time>
      </trkpt>
      <trkpt lat="44.99918" lon="2.90461">
        <ele>1143</ele>
        <time>2015-04-28T12:59:57Z</time>
      </trkpt>
      <trkpt lat="44.99925" lon="2.90452">
        <ele>1145.3</ele>
        <time>2015-04-28T13:00:07Z</time>
      </trkpt>
      <trkpt lat="44.99927" lon="2.90451">
        <ele>1141.06</ele>
        <time>2015-04-28T13:00:17Z</time>
      </trkpt>
      <trkpt lat="44.99922" lon="2.90443">
        <ele>1143.2</ele>
        <time>2015-04-28T13:00:27Z</time>
      </trkpt>
      <trkpt lat="44.99923" lon="2.90428">
        <ele>1142.02</ele>
        <time>2015-04-28T13:00:37Z</time>
      </trkpt>
      <trkpt lat="44.99925" lon="2.90411">
        <ele>1143</ele>
        <time>2015-04-28T13:00:47Z</time>
      </trkpt>
      <trkpt lat="44.99931" lon="2.90395">
        <ele>1146.23</ele>
        <time>2015-04-28T13:00:57Z</time>
      </trkpt>
      <trkpt lat="44.99942" lon="2.90394">
        <ele>1146.93</ele>
        <time>2015-04-28T13:01:07Z</time>
      </trkpt>
      <trkpt lat="44.99984" lon="2.90408">
        <ele>1144.73</ele>
        <time>2015-04-28T13:01:38Z</time>
      </trkpt>
      <trkpt lat="44.99982" lon="2.9042">
        <ele>1145.91</ele>
        <time>2015-04-28T13:01:48Z</time>
      </trkpt>
      <trkpt lat="44.99987" lon="2.90422">
        <ele>1149.75</ele>
        <time>2015-04-28T13:01:58Z</time>
      </trkpt>
      <trkpt lat="45.00003" lon="2.90424">
        <ele>1150.94</ele>
        <time>2015-04-28T13:02:08Z</time>
      </trkpt>
      <trkpt lat="45.00016" lon="2.90424">
        <ele>1152</ele>
        <time>2015-04-28T13:02:18Z</time>
      </trkpt>
      <trkpt lat="45.00027" lon="2.90425">
        <ele>1152.06</ele>
        <time>2015-04-28T13:02:28Z</time>
      </trkpt>
      <trkpt lat="45.00038" lon="2.90425">
        <ele>1150.19</ele>
        <time>2015-04-28T13:02:38Z</time>
      </trkpt>
      <trkpt lat="45.00049" lon="2.90425">
        <ele>1146.25</ele>
        <time>2015-04-28T13:02:48Z</time>
      </trkpt>
      <trkpt lat="45.00062" lon="2.90422">
        <ele>1146.58</ele>
        <time>2015-04-28T13:02:58Z</time>
      </trkpt>
      <trkpt lat="45.00075" lon="2.9042">
        <ele>1148.44</ele>
        <time>2015-04-28T13:03:08Z</time>
      </trkpt>
      <trkpt lat="45.00086" lon="2.90419">
        <ele>1148.05</ele>
        <time>2015-04-28T13:03:18Z</time>
      </trkpt>
      <trkpt lat="45.00097" lon="2.90417">
        <ele>1149.06</ele>
        <time>2015-04-28T13:03:28Z</time>
      </trkpt>
      <trkpt lat="45.0011" lon="2.90414">
        <ele>1152.81</ele>
        <time>2015-04-28T13:03:38Z</time>
      </trkpt>
      <trkpt lat="45.00123" lon="2.90415">
        <ele>1154.06</ele>
        <time>2015-04-28T13:03:48Z</time>
      </trkpt>
      <trkpt lat="45.00133" lon="2.90415">
        <ele>1153.24</ele>
        <time>2015-04-28T13:03:58Z</time>
      </trkpt>
      <trkpt lat="45.00144" lon="2.90414">
        <ele>1154.23</ele>
        <time>2015-04-28T13:04:08Z</time>
      </trkpt>
      <trkpt lat="45.00156" lon="2.90411">
        <ele>1154.19</ele>
        <time>2015-04-28T13:04:18Z</time>
      </trkpt>
      <trkpt lat="45.0017" lon="2.9041">
        <ele>1151.98</ele>
        <time>2015-04-28T13:04:28Z</time>
      </trkpt>
      <trkpt lat="45.00181" lon="2.90412">
        <ele>1152.74</ele>
        <time>2015-04-28T13:04:38Z</time>
      </trkpt>
      <trkpt lat="45.00193" lon="2.90412">
        <ele>1150.27</ele>
        <time>2015-04-28T13:04:48Z</time>
      </trkpt>
      <trkpt lat="45.00203" lon="2.90416">
        <ele>1146.95</ele>
        <time>2015-04-28T13:04:58Z</time>
      </trkpt>
      <trkpt lat="45.00214" lon="2.90415">
        <ele>1144.16</ele>
        <time>2015-04-28T13:05:08Z</time>
      </trkpt>
      <trkpt lat="45.00227" lon="2.90416">
        <ele>1148.23</ele>
        <time>2015-04-28T13:05:18Z</time>
      </trkpt>
      <trkpt lat="45.0023" lon="2.90416">
        <ele>1151.7</ele>
        <time>2015-04-28T13:05:28Z</time>
      </trkpt>
      <trkpt lat="45.00239" lon="2.90418">
        <ele>1155</ele>
        <time>2015-04-28T13:05:38Z</time>
      </trkpt>
      <trkpt lat="45.00249" lon="2.90422">
        <ele>1155.55</ele>
        <time>2015-04-28T13:05:48Z</time>
      </trkpt>
      <trkpt lat="45.00259" lon="2.90429">
        <ele>1156.63</ele>
        <time>2015-04-28T13:05:58Z</time>
      </trkpt>
      <trkpt lat="45.00304" lon="2.90473">
        <ele>1138.75</ele>
        <time>2015-04-28T13:06:38Z</time>
      </trkpt>
      <trkpt lat="45.0032" lon="2.90472">
        <ele>1149.39</ele>
        <time>2015-04-28T13:06:48Z</time>
      </trkpt>
      <trkpt lat="45.00327" lon="2.90471">
        <ele>1155.42</ele>
        <time>2015-04-28T13:06:58Z</time>
      </trkpt>
      <trkpt lat="45.00333" lon="2.90469">
        <ele>1156.63</ele>
        <time>2015-04-28T13:07:08Z</time>
      </trkpt>
      <trkpt lat="45.00342" lon="2.90476">
        <ele>1156.17</ele>
        <time>2015-04-28T13:07:18Z</time>
      </trkpt>
      <trkpt lat="45.00352" lon="2.90485">
        <ele>1152.26</ele>
        <time>2015-04-28T13:07:28Z</time>
      </trkpt>
      <trkpt lat="45.00364" lon="2.90494">
        <ele>1151.34</ele>
        <time>2015-04-28T13:07:38Z</time>
      </trkpt>
      <trkpt lat="45.0037" lon="2.90504">
        <ele>1149.36</ele>
        <time>2015-04-28T13:07:48Z</time>
      </trkpt>
      <trkpt lat="45.00377" lon="2.90512">
        <ele>1149.07</ele>
        <time>2015-04-28T13:07:58Z</time>
      </trkpt>
      <trkpt lat="45.00383" lon="2.9051">
        <ele>1150</ele>
        <time>2015-04-28T13:08:08Z</time>
      </trkpt>
      <trkpt lat="45.00384" lon="2.90512">
        <ele>1148.08</ele>
        <time>2015-04-28T13:08:18Z</time>
      </trkpt>
      <trkpt lat="45.00388" lon="2.90514">
        <ele>1144.87</ele>
        <time>2015-04-28T13:08:28Z</time>
      </trkpt>
      <trkpt lat="45.00395" lon="2.90522">
        <ele>1149.19</ele>
        <time>2015-04-28T13:08:38Z</time>
      </trkpt>
      <trkpt lat="45.00403" lon="2.90528">
        <ele>1150.98</ele>
        <time>2015-04-28T13:08:48Z</time>
      </trkpt>
      <trkpt lat="45.00414" lon="2.90532">
        <ele>1154.56</ele>
        <time>2015-04-28T13:08:58Z</time>
      </trkpt>
      <trkpt lat="45.00422" lon="2.90541">
        <ele>1150.81</ele>
        <time>2015-04-28T13:09:08Z</time>
      </trkpt>
      <trkpt lat="45.00436" lon="2.90548">
        <ele>1152.75</ele>
        <time>2015-04-28T13:09:18Z</time>
      </trkpt>
      <trkpt lat="45.00447" lon="2.90556">
        <ele>1152.8</ele>
        <time>2015-04-28T13:09:28Z</time>
      </trkpt>
      <trkpt lat="45.00453" lon="2.90567">
        <ele>1151.25</ele>
        <time>2015-04-28T13:09:38Z</time>
      </trkpt>
      <trkpt lat="45.00452" lon="2.90567">
        <ele>1156</ele>
        <time>2015-04-28T13:09:48Z</time>
      </trkpt>
      <trkpt lat="45.00468" lon="2.90532">
        <ele>1157.25</ele>
        <time>2015-04-28T13:35:36Z</time>
      </trkpt>
      <trkpt lat="45.0048" lon="2.90534">
        <ele>1163.26</ele>
        <time>2015-04-28T13:35:47Z</time>
      </trkpt>
      <trkpt lat="45.00492" lon="2.90528">
        <ele>1159.06</ele>
        <time>2015-04-28T13:35:57Z</time>
      </trkpt>
      <trkpt lat="45.00504" lon="2.90523">
        <ele>1161.44</ele>
        <time>2015-04-28T13:36:07Z</time>
      </trkpt>
      <trkpt lat="45.00514" lon="2.9052">
        <ele>1160.98</ele>
        <time>2015-04-28T13:36:17Z</time>
      </trkpt>
      <trkpt lat="45.00526" lon="2.90523">
        <ele>1156.5</ele>
        <time>2015-04-28T13:36:27Z</time>
      </trkpt>
      <trkpt lat="45.00541" lon="2.90524">
        <ele>1155</ele>
        <time>2015-04-28T13:36:37Z</time>
      </trkpt>
      <trkpt lat="45.00555" lon="2.90518">
        <ele>1159.12</ele>
        <time>2015-04-28T13:36:47Z</time>
      </trkpt>
      <trkpt lat="45.00569" lon="2.90518">
        <ele>1157.14</ele>
        <time>2015-04-28T13:36:57Z</time>
      </trkpt>
      <trkpt lat="45.00572" lon="2.90513">
        <ele>1159.8</ele>
        <time>2015-04-28T13:37:07Z</time>
      </trkpt>
      <trkpt lat="45.00574" lon="2.9051">
        <ele>1159.26</ele>
        <time>2015-04-28T13:37:17Z</time>
      </trkpt>
      <trkpt lat="45.00582" lon="2.90505">
        <ele>1163</ele>
        <time>2015-04-28T13:37:27Z</time>
      </trkpt>
      <trkpt lat="45.00594" lon="2.90498">
        <ele>1156.94</ele>
        <time>2015-04-28T13:37:37Z</time>
      </trkpt>
      <trkpt lat="45.0061" lon="2.90497">
        <ele>1160.75</ele>
        <time>2015-04-28T13:37:47Z</time>
      </trkpt>
      <trkpt lat="45.00623" lon="2.90494">
        <ele>1165.23</ele>
        <time>2015-04-28T13:37:57Z</time>
      </trkpt>
      <trkpt lat="45.00632" lon="2.90491">
        <ele>1164.97</ele>
        <time>2015-04-28T13:38:07Z</time>
      </trkpt>
      <trkpt lat="45.00643" lon="2.90487">
        <ele>1166</ele>
        <time>2015-04-28T13:38:17Z</time>
      </trkpt>
      <trkpt lat="45.00644" lon="2.90484">
        <ele>1169.73</ele>
        <time>2015-04-28T13:38:27Z</time>
      </trkpt>
      <trkpt lat="45.00653" lon="2.9049">
        <ele>1168.5</ele>
        <time>2015-04-28T13:38:37Z</time>
      </trkpt>
      <trkpt lat="45.00658" lon="2.90494">
        <ele>1170</ele>
        <time>2015-04-28T13:38:47Z</time>
      </trkpt>
      <trkpt lat="45.00669" lon="2.90487">
        <ele>1171.99</ele>
        <time>2015-04-28T13:38:57Z</time>
      </trkpt>
      <trkpt lat="45.00675" lon="2.90475">
        <ele>1168.25</ele>
        <time>2015-04-28T13:39:07Z</time>
      </trkpt>
      <trkpt lat="45.00678" lon="2.90469">
        <ele>1170.87</ele>
        <time>2015-04-28T13:39:17Z</time>
      </trkpt>
      <trkpt lat="45.00677" lon="2.90469">
        <ele>1173.06</ele>
        <time>2015-04-28T13:39:27Z</time>
      </trkpt>
      <trkpt lat="45.00676" lon="2.90467">
        <ele>1172.25</ele>
        <time>2015-04-28T13:39:53Z</time>
      </trkpt>
      <trkpt lat="45.00672" lon="2.90465">
        <ele>1171</ele>
        <time>2015-04-28T13:40:03Z</time>
      </trkpt>
      <trkpt lat="45.00674" lon="2.90462">
        <ele>1171.75</ele>
        <time>2015-04-28T13:40:37Z</time>
      </trkpt>
      <trkpt lat="45.00681" lon="2.90431">
        <ele>1169.32</ele>
        <time>2015-04-28T13:40:47Z</time>
      </trkpt>
      <trkpt lat="45.00676" lon="2.90415">
        <ele>1171.69</ele>
        <time>2015-04-28T13:40:57Z</time>
      </trkpt>
      <trkpt lat="45.0067" lon="2.90396">
        <ele>1174</ele>
        <time>2015-04-28T13:41:07Z</time>
      </trkpt>
      <trkpt lat="45.00677" lon="2.90392">
        <ele>1177.94</ele>
        <time>2015-04-28T13:41:17Z</time>
      </trkpt>
      <trkpt lat="45.00675" lon="2.90392">
        <ele>1178.92</ele>
        <time>2015-04-28T13:41:27Z</time>
      </trkpt>
      <trkpt lat="45.00666" lon="2.90384">
        <ele>1176</ele>
        <time>2015-04-28T13:41:37Z</time>
      </trkpt>
      <trkpt lat="45.0066" lon="2.90368">
        <ele>1177</ele>
        <time>2015-04-28T13:41:47Z</time>
      </trkpt>
      <trkpt lat="45.00655" lon="2.90353">
        <ele>1178.02</ele>
        <time>2015-04-28T13:41:57Z</time>
      </trkpt>
      <trkpt lat="45.00653" lon="2.90338">
        <ele>1177.5</ele>
        <time>2015-04-28T13:42:07Z</time>
      </trkpt>
      <trkpt lat="45.00648" lon="2.90325">
        <ele>1176.95</ele>
        <time>2015-04-28T13:42:17Z</time>
      </trkpt>
      <trkpt lat="45.00642" lon="2.90311">
        <ele>1179.99</ele>
        <time>2015-04-28T13:42:27Z</time>
      </trkpt>
      <trkpt lat="45.00633" lon="2.903">
        <ele>1179.62</ele>
        <time>2015-04-28T13:42:37Z</time>
      </trkpt>
      <trkpt lat="45.00623" lon="2.90295">
        <ele>1180.91</ele>
        <time>2015-04-28T13:42:47Z</time>
      </trkpt>
      <trkpt lat="45.00614" lon="2.90291">
        <ele>1179.26</ele>
        <time>2015-04-28T13:42:57Z</time>
      </trkpt>
      <trkpt lat="45.00604" lon="2.90284">
        <ele>1179.94</ele>
        <time>2015-04-28T13:43:07Z</time>
      </trkpt>
      <trkpt lat="45.00593" lon="2.90278">
        <ele>1180.77</ele>
        <time>2015-04-28T13:43:17Z</time>
      </trkpt>
      <trkpt lat="45.00581" lon="2.90274">
        <ele>1178.25</ele>
        <time>2015-04-28T13:43:27Z</time>
      </trkpt>
      <trkpt lat="45.00571" lon="2.90266">
        <ele>1181.25</ele>
        <time>2015-04-28T13:43:37Z</time>
      </trkpt>
      <trkpt lat="45.00559" lon="2.9026">
        <ele>1181.83</ele>
        <time>2015-04-28T13:43:47Z</time>
      </trkpt>
      <trkpt lat="45.00546" lon="2.90255">
        <ele>1178.88</ele>
        <time>2015-04-28T13:43:57Z</time>
      </trkpt>
      <trkpt lat="45.00535" lon="2.90248">
        <ele>1178.94</ele>
        <time>2015-04-28T13:44:07Z</time>
      </trkpt>
      <trkpt lat="45.00528" lon="2.90242">
        <ele>1177.31</ele>
        <time>2015-04-28T13:44:17Z</time>
      </trkpt>
      <trkpt lat="45.00515" lon="2.90237">
        <ele>1180.95</ele>
        <time>2015-04-28T13:44:27Z</time>
      </trkpt>
      <trkpt lat="45.00503" lon="2.90228">
        <ele>1185.05</ele>
        <time>2015-04-28T13:44:37Z</time>
      </trkpt>
      <trkpt lat="45.00495" lon="2.90224">
        <ele>1184.29</ele>
        <time>2015-04-28T13:44:47Z</time>
      </trkpt>
      <trkpt lat="45.00484" lon="2.90214">
        <ele>1178.06</ele>
        <time>2015-04-28T13:44:57Z</time>
      </trkpt>
      <trkpt lat="45.00429" lon="2.90179">
        <ele>1175.75</ele>
        <time>2015-04-28T13:45:37Z</time>
      </trkpt>
      <trkpt lat="45.00424" lon="2.90172">
        <ele>1182.74</ele>
        <time>2015-04-28T13:45:47Z</time>
      </trkpt>
      <trkpt lat="45.00416" lon="2.90165">
        <ele>1186.73</ele>
        <time>2015-04-28T13:45:57Z</time>
      </trkpt>
      <trkpt lat="45.00408" lon="2.90157">
        <ele>1187.94</ele>
        <time>2015-04-28T13:46:07Z</time>
      </trkpt>
      <trkpt lat="45.00398" lon="2.9015">
        <ele>1184.32</ele>
        <time>2015-04-28T13:46:17Z</time>
      </trkpt>
      <trkpt lat="45.00389" lon="2.90139">
        <ele>1187.04</ele>
        <time>2015-04-28T13:46:27Z</time>
      </trkpt>
      <trkpt lat="45.00379" lon="2.9013">
        <ele>1190.67</ele>
        <time>2015-04-28T13:46:37Z</time>
      </trkpt>
      <trkpt lat="45.00371" lon="2.90119">
        <ele>1185.95</ele>
        <time>2015-04-28T13:46:47Z</time>
      </trkpt>
      <trkpt lat="45.0036" lon="2.90107">
        <ele>1186.94</ele>
        <time>2015-04-28T13:46:57Z</time>
      </trkpt>
      <trkpt lat="45.0035" lon="2.90094">
        <ele>1189.86</ele>
        <time>2015-04-28T13:47:07Z</time>
      </trkpt>
      <trkpt lat="45.00343" lon="2.90083">
        <ele>1188.27</ele>
        <time>2015-04-28T13:47:17Z</time>
      </trkpt>
      <trkpt lat="45.00334" lon="2.90072">
        <ele>1188.95</ele>
        <time>2015-04-28T13:47:27Z</time>
      </trkpt>
      <trkpt lat="45.00326" lon="2.90062">
        <ele>1189.02</ele>
        <time>2015-04-28T13:47:37Z</time>
      </trkpt>
      <trkpt lat="45.00315" lon="2.90049">
        <ele>1191.93</ele>
        <time>2015-04-28T13:47:47Z</time>
      </trkpt>
      <trkpt lat="45.00306" lon="2.90037">
        <ele>1192.05</ele>
        <time>2015-04-28T13:47:57Z</time>
      </trkpt>
      <trkpt lat="45.00292" lon="2.90031">
        <ele>1194.06</ele>
        <time>2015-04-28T13:48:07Z</time>
      </trkpt>
      <trkpt lat="45.00279" lon="2.90023">
        <ele>1190</ele>
        <time>2015-04-28T13:48:17Z</time>
      </trkpt>
      <trkpt lat="45.00269" lon="2.90014">
        <ele>1195.59</ele>
        <time>2015-04-28T13:48:27Z</time>
      </trkpt>
      <trkpt lat="45.00258" lon="2.90006">
        <ele>1196.82</ele>
        <time>2015-04-28T13:48:37Z</time>
      </trkpt>
      <trkpt lat="45.00248" lon="2.89999">
        <ele>1199.36</ele>
        <time>2015-04-28T13:48:47Z</time>
      </trkpt>
      <trkpt lat="45.00237" lon="2.89995">
        <ele>1200.03</ele>
        <time>2015-04-28T13:48:57Z</time>
      </trkpt>
      <trkpt lat="45.00232" lon="2.89986">
        <ele>1200.75</ele>
        <time>2015-04-28T13:49:07Z</time>
      </trkpt>
      <trkpt lat="45.00221" lon="2.89979">
        <ele>1197.81</ele>
        <time>2015-04-28T13:49:17Z</time>
      </trkpt>
      <trkpt lat="45.00208" lon="2.89968">
        <ele>1198</ele>
        <time>2015-04-28T13:49:27Z</time>
      </trkpt>
      <trkpt lat="45.00195" lon="2.89959">
        <ele>1193.51</ele>
        <time>2015-04-28T13:49:37Z</time>
      </trkpt>
      <trkpt lat="45.00183" lon="2.89954">
        <ele>1193.29</ele>
        <time>2015-04-28T13:49:47Z</time>
      </trkpt>
      <trkpt lat="45.00174" lon="2.89952">
        <ele>1194.47</ele>
        <time>2015-04-28T13:49:57Z</time>
      </trkpt>
      <trkpt lat="45.00134" lon="2.8993">
        <ele>1174.31</ele>
        <time>2015-04-28T13:50:37Z</time>
      </trkpt>
      <trkpt lat="45.00123" lon="2.89923">
        <ele>1180.91</ele>
        <time>2015-04-28T13:50:47Z</time>
      </trkpt>
      <trkpt lat="45.0011" lon="2.89915">
        <ele>1186.67</ele>
        <time>2015-04-28T13:50:57Z</time>
      </trkpt>
      <trkpt lat="45.00097" lon="2.89907">
        <ele>1191.87</ele>
        <time>2015-04-28T13:51:07Z</time>
      </trkpt>
      <trkpt lat="45.00084" lon="2.899">
        <ele>1191.78</ele>
        <time>2015-04-28T13:51:17Z</time>
      </trkpt>
      <trkpt lat="45.0007" lon="2.89897">
        <ele>1199.04</ele>
        <time>2015-04-28T13:51:27Z</time>
      </trkpt>
      <trkpt lat="45.0006" lon="2.89891">
        <ele>1202.5</ele>
        <time>2015-04-28T13:51:37Z</time>
      </trkpt>
      <trkpt lat="45.00048" lon="2.89884">
        <ele>1203.19</ele>
        <time>2015-04-28T13:51:47Z</time>
      </trkpt>
      <trkpt lat="45.00037" lon="2.89877">
        <ele>1206.01</ele>
        <time>2015-04-28T13:51:57Z</time>
      </trkpt>
      <trkpt lat="45.00032" lon="2.89876">
        <ele>1205.06</ele>
        <time>2015-04-28T13:52:07Z</time>
      </trkpt>
      <trkpt lat="45.00025" lon="2.89873">
        <ele>1205.03</ele>
        <time>2015-04-28T13:52:17Z</time>
      </trkpt>
      <trkpt lat="45.00024" lon="2.89874">
        <ele>1205</ele>
        <time>2015-04-28T13:52:32Z</time>
      </trkpt>
      <trkpt lat="45.00017" lon="2.89868">
        <ele>1206.25</ele>
        <time>2015-04-28T13:52:42Z</time>
      </trkpt>
      <trkpt lat="45.00007" lon="2.8986">
        <ele>1206.94</ele>
        <time>2015-04-28T13:52:52Z</time>
      </trkpt>
      <trkpt lat="44.99997" lon="2.89847">
        <ele>1207.26</ele>
        <time>2015-04-28T13:53:02Z</time>
      </trkpt>
      <trkpt lat="44.99988" lon="2.89835">
        <ele>1207.06</ele>
        <time>2015-04-28T13:53:12Z</time>
      </trkpt>
      <trkpt lat="44.99978" lon="2.89823">
        <ele>1205.22</ele>
        <time>2015-04-28T13:53:22Z</time>
      </trkpt>
      <trkpt lat="44.9997" lon="2.89808">
        <ele>1208.05</ele>
        <time>2015-04-28T13:53:32Z</time>
      </trkpt>
      <trkpt lat="44.99962" lon="2.89793">
        <ele>1206.07</ele>
        <time>2015-04-28T13:53:42Z</time>
      </trkpt>
      <trkpt lat="44.99956" lon="2.89781">
        <ele>1202.39</ele>
        <time>2015-04-28T13:53:52Z</time>
      </trkpt>
      <trkpt lat="44.99949" lon="2.89768">
        <ele>1202</ele>
        <time>2015-04-28T13:54:02Z</time>
      </trkpt>
      <trkpt lat="44.99943" lon="2.89753">
        <ele>1201.94</ele>
        <time>2015-04-28T13:54:12Z</time>
      </trkpt>
      <trkpt lat="44.99936" lon="2.8974">
        <ele>1204.23</ele>
        <time>2015-04-28T13:54:22Z</time>
      </trkpt>
      <trkpt lat="44.99928" lon="2.89725">
        <ele>1204.3</ele>
        <time>2015-04-28T13:54:32Z</time>
      </trkpt>
      <trkpt lat="44.99921" lon="2.8971">
        <ele>1204.99</ele>
        <time>2015-04-28T13:54:42Z</time>
      </trkpt>
      <trkpt lat="44.99914" lon="2.89694">
        <ele>1203.13</ele>
        <time>2015-04-28T13:54:52Z</time>
      </trkpt>
      <trkpt lat="44.99909" lon="2.89679">
        <ele>1199.36</ele>
        <time>2015-04-28T13:55:02Z</time>
      </trkpt>
      <trkpt lat="44.99918" lon="2.89668">
        <ele>1202.81</ele>
        <time>2015-04-28T13:55:12Z</time>
      </trkpt>
      <trkpt lat="44.9993" lon="2.8966">
        <ele>1207.93</ele>
        <time>2015-04-28T13:55:22Z</time>
      </trkpt>
      <trkpt lat="44.99942" lon="2.89654">
        <ele>1208.02</ele>
        <time>2015-04-28T13:55:32Z</time>
      </trkpt>
      <trkpt lat="44.99953" lon="2.89648">
        <ele>1209.77</ele>
        <time>2015-04-28T13:55:42Z</time>
      </trkpt>
      <trkpt lat="44.99962" lon="2.89644">
        <ele>1212.87</ele>
        <time>2015-04-28T13:55:52Z</time>
      </trkpt>
      <trkpt lat="44.99972" lon="2.89642">
        <ele>1212</ele>
        <time>2015-04-28T13:56:02Z</time>
      </trkpt>
      <trkpt lat="44.9997" lon="2.89643">
        <ele>1211.98</ele>
        <time>2015-04-28T13:56:12Z</time>
      </trkpt>
      <trkpt lat="44.99971" lon="2.89644">
        <ele>1210.06</ele>
        <time>2015-04-28T13:57:05Z</time>
      </trkpt>
      <trkpt lat="44.99972" lon="2.89643">
        <ele>1209.19</ele>
        <time>2015-04-28T13:57:30Z</time>
      </trkpt>
      <trkpt lat="44.99973" lon="2.89644">
        <ele>1208</ele>
        <time>2015-04-28T13:57:56Z</time>
      </trkpt>
      <trkpt lat="44.99987" lon="2.89642">
        <ele>1210.98</ele>
        <time>2015-04-28T13:58:06Z</time>
      </trkpt>
      <trkpt lat="44.99999" lon="2.89638">
        <ele>1210.25</ele>
        <time>2015-04-28T13:58:16Z</time>
      </trkpt>
      <trkpt lat="45.0001" lon="2.8964">
        <ele>1208.8</ele>
        <time>2015-04-28T13:58:26Z</time>
      </trkpt>
      <trkpt lat="45.00021" lon="2.89633">
        <ele>1212.94</ele>
        <time>2015-04-28T13:58:36Z</time>
      </trkpt>
      <trkpt lat="45.00026" lon="2.89629">
        <ele>1213</ele>
        <time>2015-04-28T13:58:46Z</time>
      </trkpt>
      <trkpt lat="45.00032" lon="2.89624">
        <ele>1211</ele>
        <time>2015-04-28T13:58:56Z</time>
      </trkpt>
      <trkpt lat="45.0005" lon="2.8962">
        <ele>1212.98</ele>
        <time>2015-04-28T13:59:06Z</time>
      </trkpt>
      <trkpt lat="45.00062" lon="2.89605">
        <ele>1215.94</ele>
        <time>2015-04-28T13:59:16Z</time>
      </trkpt>
      <trkpt lat="45.00072" lon="2.89589">
        <ele>1216.74</ele>
        <time>2015-04-28T13:59:26Z</time>
      </trkpt>
      <trkpt lat="45.00079" lon="2.89574">
        <ele>1217.77</ele>
        <time>2015-04-28T13:59:36Z</time>
      </trkpt>
      <trkpt lat="45.00087" lon="2.89562">
        <ele>1218.07</ele>
        <time>2015-04-28T13:59:46Z</time>
      </trkpt>
      <trkpt lat="45.00096" lon="2.89549">
        <ele>1221.06</ele>
        <time>2015-04-28T13:59:56Z</time>
      </trkpt>
      <trkpt lat="45.00098" lon="2.89546">
        <ele>1218.06</ele>
        <time>2015-04-28T14:00:06Z</time>
      </trkpt>
      <trkpt lat="45.00097" lon="2.89547">
        <ele>1218</ele>
        <time>2015-04-28T14:00:16Z</time>
      </trkpt>
      <trkpt lat="45.00098" lon="2.89546">
        <ele>1219.5</ele>
        <time>2015-04-28T14:01:04Z</time>
      </trkpt>
      <trkpt lat="45.00106" lon="2.89533">
        <ele>1222.25</ele>
        <time>2015-04-28T14:01:14Z</time>
      </trkpt>
      <trkpt lat="45.00114" lon="2.89519">
        <ele>1222</ele>
        <time>2015-04-28T14:01:24Z</time>
      </trkpt>
      <trkpt lat="45.00121" lon="2.89504">
        <ele>1220.02</ele>
        <time>2015-04-28T14:01:34Z</time>
      </trkpt>
      <trkpt lat="45.00127" lon="2.89491">
        <ele>1220.06</ele>
        <time>2015-04-28T14:01:44Z</time>
      </trkpt>
      <trkpt lat="45.00133" lon="2.89472">
        <ele>1222.69</ele>
        <time>2015-04-28T14:01:54Z</time>
      </trkpt>
      <trkpt lat="45.00137" lon="2.89454">
        <ele>1225</ele>
        <time>2015-04-28T14:02:04Z</time>
      </trkpt>
      <trkpt lat="45.00142" lon="2.89439">
        <ele>1222.96</ele>
        <time>2015-04-28T14:02:14Z</time>
      </trkpt>
      <trkpt lat="45.00144" lon="2.89421">
        <ele>1225.5</ele>
        <time>2015-04-28T14:02:24Z</time>
      </trkpt>
      <trkpt lat="45.00148" lon="2.89407">
        <ele>1224.08</ele>
        <time>2015-04-28T14:02:34Z</time>
      </trkpt>
      <trkpt lat="45.00154" lon="2.89391">
        <ele>1222.81</ele>
        <time>2015-04-28T14:02:44Z</time>
      </trkpt>
      <trkpt lat="45.0016" lon="2.89376">
        <ele>1220.93</ele>
        <time>2015-04-28T14:02:54Z</time>
      </trkpt>
      <trkpt lat="45.00164" lon="2.89359">
        <ele>1222.17</ele>
        <time>2015-04-28T14:03:04Z</time>
      </trkpt>
      <trkpt lat="45.00168" lon="2.89343">
        <ele>1221.99</ele>
        <time>2015-04-28T14:03:14Z</time>
      </trkpt>
      <trkpt lat="45.00173" lon="2.89328">
        <ele>1224.81</ele>
        <time>2015-04-28T14:03:24Z</time>
      </trkpt>
      <trkpt lat="45.00179" lon="2.8931">
        <ele>1227.69</ele>
        <time>2015-04-28T14:03:34Z</time>
      </trkpt>
      <trkpt lat="45.00182" lon="2.89295">
        <ele>1229</ele>
        <time>2015-04-28T14:03:44Z</time>
      </trkpt>
      <trkpt lat="45.00189" lon="2.89285">
        <ele>1229.02</ele>
        <time>2015-04-28T14:03:54Z</time>
      </trkpt>
      <trkpt lat="45.00199" lon="2.8927">
        <ele>1231.18</ele>
        <time>2015-04-28T14:04:04Z</time>
      </trkpt>
      <trkpt lat="45.00207" lon="2.89261">
        <ele>1233.67</ele>
        <time>2015-04-28T14:04:14Z</time>
      </trkpt>
      <trkpt lat="45.00214" lon="2.89253">
        <ele>1235.94</ele>
        <time>2015-04-28T14:04:24Z</time>
      </trkpt>
      <trkpt lat="45.00224" lon="2.89246">
        <ele>1235.31</ele>
        <time>2015-04-28T14:04:34Z</time>
      </trkpt>
      <trkpt lat="45.00234" lon="2.89238">
        <ele>1237.69</ele>
        <time>2015-04-28T14:04:44Z</time>
      </trkpt>
      <trkpt lat="45.00245" lon="2.89228">
        <ele>1237.95</ele>
        <time>2015-04-28T14:04:54Z</time>
      </trkpt>
      <trkpt lat="45.00254" lon="2.89218">
        <ele>1241</ele>
        <time>2015-04-28T14:05:04Z</time>
      </trkpt>
      <trkpt lat="45.00264" lon="2.89211">
        <ele>1241.98</ele>
        <time>2015-04-28T14:05:14Z</time>
      </trkpt>
      <trkpt lat="45.00272" lon="2.89204">
        <ele>1243.06</ele>
        <time>2015-04-28T14:05:24Z</time>
      </trkpt>
      <trkpt lat="45.00279" lon="2.89195">
        <ele>1243.06</ele>
        <time>2015-04-28T14:05:34Z</time>
      </trkpt>
      <trkpt lat="45.00286" lon="2.89183">
        <ele>1246.92</ele>
        <time>2015-04-28T14:05:44Z</time>
      </trkpt>
      <trkpt lat="45.00295" lon="2.89171">
        <ele>1249.7</ele>
        <time>2015-04-28T14:05:54Z</time>
      </trkpt>
      <trkpt lat="45.00302" lon="2.89159">
        <ele>1252.99</ele>
        <time>2015-04-28T14:06:04Z</time>
      </trkpt>
      <trkpt lat="45.00307" lon="2.89149">
        <ele>1252.25</ele>
        <time>2015-04-28T14:06:14Z</time>
      </trkpt>
      <trkpt lat="45.00309" lon="2.89137">
        <ele>1254</ele>
        <time>2015-04-28T14:06:24Z</time>
      </trkpt>
      <trkpt lat="45.00317" lon="2.89123">
        <ele>1255.02</ele>
        <time>2015-04-28T14:06:34Z</time>
      </trkpt>
      <trkpt lat="45.00327" lon="2.89111">
        <ele>1256</ele>
        <time>2015-04-28T14:06:44Z</time>
      </trkpt>
      <trkpt lat="45.00327" lon="2.89099">
        <ele>1252.02</ele>
        <time>2015-04-28T14:06:54Z</time>
      </trkpt>
      <trkpt lat="45.00329" lon="2.89088">
        <ele>1251.49</ele>
        <time>2015-04-28T14:07:04Z</time>
      </trkpt>
      <trkpt lat="45.00333" lon="2.89078">
        <ele>1248.27</ele>
        <time>2015-04-28T14:07:14Z</time>
      </trkpt>
      <trkpt lat="45.0034" lon="2.89065">
        <ele>1251.18</ele>
        <time>2015-04-28T14:07:24Z</time>
      </trkpt>
      <trkpt lat="45.00345" lon="2.8905">
        <ele>1256.81</ele>
        <time>2015-04-28T14:07:34Z</time>
      </trkpt>
      <trkpt lat="45.00346" lon="2.8904">
        <ele>1261.96</ele>
        <time>2015-04-28T14:07:44Z</time>
      </trkpt>
      <trkpt lat="45.00345" lon="2.89039">
        <ele>1261</ele>
        <time>2015-04-28T14:08:08Z</time>
      </trkpt>
      <trkpt lat="45.00353" lon="2.89028">
        <ele>1261.75</ele>
        <time>2015-04-28T14:08:18Z</time>
      </trkpt>
      <trkpt lat="45.00363" lon="2.89011">
        <ele>1259</ele>
        <time>2015-04-28T14:08:28Z</time>
      </trkpt>
      <trkpt lat="45.0037" lon="2.88996">
        <ele>1256.94</ele>
        <time>2015-04-28T14:08:38Z</time>
      </trkpt>
      <trkpt lat="45.00375" lon="2.88981">
        <ele>1255.06</ele>
        <time>2015-04-28T14:08:48Z</time>
      </trkpt>
      <trkpt lat="45.00381" lon="2.88971">
        <ele>1252.02</ele>
        <time>2015-04-28T14:08:58Z</time>
      </trkpt>
      <trkpt lat="45.00389" lon="2.88959">
        <ele>1251.8</ele>
        <time>2015-04-28T14:09:08Z</time>
      </trkpt>
      <trkpt lat="45.00395" lon="2.88945">
        <ele>1254.25</ele>
        <time>2015-04-28T14:09:18Z</time>
      </trkpt>
      <trkpt lat="45.00403" lon="2.8893">
        <ele>1253</ele>
        <time>2015-04-28T14:09:28Z</time>
      </trkpt>
      <trkpt lat="45.0041" lon="2.88918">
        <ele>1252</ele>
        <time>2015-04-28T14:09:38Z</time>
      </trkpt>
      <trkpt lat="45.00417" lon="2.88909">
        <ele>1251.3</ele>
        <time>2015-04-28T14:09:48Z</time>
      </trkpt>
      <trkpt lat="45.00427" lon="2.88899">
        <ele>1252.95</ele>
        <time>2015-04-28T14:09:58Z</time>
      </trkpt>
      <trkpt lat="45.00436" lon="2.88889">
        <ele>1254.75</ele>
        <time>2015-04-28T14:10:08Z</time>
      </trkpt>
      <trkpt lat="45.00446" lon="2.88877">
        <ele>1254.08</ele>
        <time>2015-04-28T14:10:18Z</time>
      </trkpt>
      <trkpt lat="45.00455" lon="2.88864">
        <ele>1251.77</ele>
        <time>2015-04-28T14:10:28Z</time>
      </trkpt>
      <trkpt lat="45.00465" lon="2.88853">
        <ele>1255.86</ele>
        <time>2015-04-28T14:10:38Z</time>
      </trkpt>
      <trkpt lat="45.00475" lon="2.88842">
        <ele>1253.77</ele>
        <time>2015-04-28T14:10:48Z</time>
      </trkpt>
      <trkpt lat="45.00481" lon="2.88833">
        <ele>1258.92</ele>
        <time>2015-04-28T14:10:58Z</time>
      </trkpt>
      <trkpt lat="45.00492" lon="2.88824">
        <ele>1257.06</ele>
        <time>2015-04-28T14:11:08Z</time>
      </trkpt>
      <trkpt lat="45.00502" lon="2.88816">
        <ele>1257.25</ele>
        <time>2015-04-28T14:11:18Z</time>
      </trkpt>
      <trkpt lat="45.00512" lon="2.88806">
        <ele>1261.87</ele>
        <time>2015-04-28T14:11:28Z</time>
      </trkpt>
      <trkpt lat="45.00523" lon="2.88792">
        <ele>1262.75</ele>
        <time>2015-04-28T14:11:38Z</time>
      </trkpt>
      <trkpt lat="45.00534" lon="2.8878">
        <ele>1266.75</ele>
        <time>2015-04-28T14:11:48Z</time>
      </trkpt>
      <trkpt lat="45.00544" lon="2.88772">
        <ele>1267</ele>
        <time>2015-04-28T14:11:58Z</time>
      </trkpt>
      <trkpt lat="45.00553" lon="2.88766">
        <ele>1267</ele>
        <time>2015-04-28T14:12:08Z</time>
      </trkpt>
      <trkpt lat="45.00563" lon="2.88755">
        <ele>1268.69</ele>
        <time>2015-04-28T14:12:18Z</time>
      </trkpt>
      <trkpt lat="45.00568" lon="2.88746">
        <ele>1268.5</ele>
        <time>2015-04-28T14:12:28Z</time>
      </trkpt>
      <trkpt lat="45.00566" lon="2.88746">
        <ele>1268.69</ele>
        <time>2015-04-28T14:12:38Z</time>
      </trkpt>
      <trkpt lat="45.00567" lon="2.88745">
        <ele>1268.06</ele>
        <time>2015-04-28T14:12:49Z</time>
      </trkpt>
      <trkpt lat="45.0057" lon="2.88724">
        <ele>1275.65</ele>
        <time>2015-04-28T14:12:59Z</time>
      </trkpt>
      <trkpt lat="45.00573" lon="2.88722">
        <ele>1271.13</ele>
        <time>2015-04-28T14:13:09Z</time>
      </trkpt>
      <trkpt lat="45.00576" lon="2.88738">
        <ele>1268.8</ele>
        <time>2015-04-28T14:13:19Z</time>
      </trkpt>
      <trkpt lat="45.00574" lon="2.88742">
        <ele>1267</ele>
        <time>2015-04-28T14:13:29Z</time>
      </trkpt>
      <trkpt lat="45.00573" lon="2.88744">
        <ele>1268.02</ele>
        <time>2015-04-28T14:14:04Z</time>
      </trkpt>
      <trkpt lat="45.00572" lon="2.88744">
        <ele>1268</ele>
        <time>2015-04-28T14:14:14Z</time>
      </trkpt>
      <trkpt lat="45.00571" lon="2.88746">
        <ele>1264.33</ele>
        <time>2015-04-28T14:14:24Z</time>
      </trkpt>
      <trkpt lat="45.0057" lon="2.88748">
        <ele>1264</ele>
        <time>2015-04-28T14:14:34Z</time>
      </trkpt>
      <trkpt lat="45.00571" lon="2.88749">
        <ele>1263.25</ele>
        <time>2015-04-28T14:14:45Z</time>
      </trkpt>
      <trkpt lat="45.00571" lon="2.88741">
        <ele>1266.37</ele>
        <time>2015-04-28T14:14:55Z</time>
      </trkpt>
      <trkpt lat="45.00572" lon="2.8874">
        <ele>1267.7</ele>
        <time>2015-04-28T14:15:22Z</time>
      </trkpt>
      <trkpt lat="45.00573" lon="2.88739">
        <ele>1266.25</ele>
        <time>2015-04-28T14:15:32Z</time>
      </trkpt>
      <trkpt lat="45.00578" lon="2.88744">
        <ele>1258.08</ele>
        <time>2015-04-28T14:15:42Z</time>
      </trkpt>
      <trkpt lat="45.00577" lon="2.88745">
        <ele>1258.99</ele>
        <time>2015-04-28T14:15:52Z</time>
      </trkpt>
      <trkpt lat="45.00577" lon="2.88748">
        <ele>1255.01</ele>
        <time>2015-04-28T14:16:02Z</time>
      </trkpt>
      <trkpt lat="45.00578" lon="2.88748">
        <ele>1257.73</ele>
        <time>2015-04-28T14:16:40Z</time>
      </trkpt>
      <trkpt lat="45.00579" lon="2.88746">
        <ele>1258.05</ele>
        <time>2015-04-28T14:16:49Z</time>
      </trkpt>
      <trkpt lat="45.00575" lon="2.88717">
        <ele>1281</ele>
        <time>2015-04-28T14:31:46Z</time>
      </trkpt>
      <trkpt lat="45.00583" lon="2.88711">
        <ele>1282.05</ele>
        <time>2015-04-28T14:31:57Z</time>
      </trkpt>
      <trkpt lat="45.00607" lon="2.88725">
        <ele>1256.37</ele>
        <time>2015-04-28T14:32:07Z</time>
      </trkpt>
      <trkpt lat="45.00621" lon="2.88722">
        <ele>1256.48</ele>
        <time>2015-04-28T14:32:17Z</time>
      </trkpt>
      <trkpt lat="45.00634" lon="2.88721">
        <ele>1251.98</ele>
        <time>2015-04-28T14:32:27Z</time>
      </trkpt>
      <trkpt lat="45.00644" lon="2.88713">
        <ele>1246.07</ele>
        <time>2015-04-28T14:32:37Z</time>
      </trkpt>
      <trkpt lat="45.00654" lon="2.88704">
        <ele>1245.82</ele>
        <time>2015-04-28T14:32:47Z</time>
      </trkpt>
      <trkpt lat="45.00664" lon="2.88694">
        <ele>1250.1</ele>
        <time>2015-04-28T14:32:57Z</time>
      </trkpt>
      <trkpt lat="45.00673" lon="2.88688">
        <ele>1249.91</ele>
        <time>2015-04-28T14:33:07Z</time>
      </trkpt>
      <trkpt lat="45.00685" lon="2.88674">
        <ele>1250</ele>
        <time>2015-04-28T14:33:17Z</time>
      </trkpt>
      <trkpt lat="45.00693" lon="2.88663">
        <ele>1260.73</ele>
        <time>2015-04-28T14:33:27Z</time>
      </trkpt>
      <trkpt lat="45.00695" lon="2.88663">
        <ele>1259.5</ele>
        <time>2015-04-28T14:34:08Z</time>
      </trkpt>
      <trkpt lat="45.00709" lon="2.88658">
        <ele>1252.14</ele>
        <time>2015-04-28T14:34:18Z</time>
      </trkpt>
      <trkpt lat="45.00723" lon="2.88652">
        <ele>1252.06</ele>
        <time>2015-04-28T14:34:28Z</time>
      </trkpt>
      <trkpt lat="45.00736" lon="2.8865">
        <ele>1251.89</ele>
        <time>2015-04-28T14:34:38Z</time>
      </trkpt>
      <trkpt lat="45.00748" lon="2.88644">
        <ele>1251.96</ele>
        <time>2015-04-28T14:34:48Z</time>
      </trkpt>
      <trkpt lat="45.00759" lon="2.88637">
        <ele>1256.09</ele>
        <time>2015-04-28T14:34:58Z</time>
      </trkpt>
      <trkpt lat="45.00769" lon="2.88629">
        <ele>1258.67</ele>
        <time>2015-04-28T14:35:08Z</time>
      </trkpt>
      <trkpt lat="45.00781" lon="2.88626">
        <ele>1263.31</ele>
        <time>2015-04-28T14:35:18Z</time>
      </trkpt>
      <trkpt lat="45.00795" lon="2.8862">
        <ele>1265.25</ele>
        <time>2015-04-28T14:35:28Z</time>
      </trkpt>
      <trkpt lat="45.00811" lon="2.8861">
        <ele>1269.99</ele>
        <time>2015-04-28T14:35:38Z</time>
      </trkpt>
      <trkpt lat="45.00824" lon="2.88611">
        <ele>1268.93</ele>
        <time>2015-04-28T14:35:48Z</time>
      </trkpt>
      <trkpt lat="45.00836" lon="2.88612">
        <ele>1264.95</ele>
        <time>2015-04-28T14:35:58Z</time>
      </trkpt>
      <trkpt lat="45.00846" lon="2.88613">
        <ele>1264.92</ele>
        <time>2015-04-28T14:36:08Z</time>
      </trkpt>
      <trkpt lat="45.0091" lon="2.88633">
        <ele>1287.5</ele>
        <time>2015-04-28T14:36:46Z</time>
      </trkpt>
      <trkpt lat="45.00917" lon="2.88609">
        <ele>1277.33</ele>
        <time>2015-04-28T14:36:56Z</time>
      </trkpt>
      <trkpt lat="45.00925" lon="2.88613">
        <ele>1275.01</ele>
        <time>2015-04-28T14:37:06Z</time>
      </trkpt>
      <trkpt lat="45.00935" lon="2.88614">
        <ele>1272.84</ele>
        <time>2015-04-28T14:37:16Z</time>
      </trkpt>
      <trkpt lat="45.00945" lon="2.88622">
        <ele>1270.31</ele>
        <time>2015-04-28T14:37:26Z</time>
      </trkpt>
      <trkpt lat="45.00957" lon="2.8863">
        <ele>1267.05</ele>
        <time>2015-04-28T14:37:36Z</time>
      </trkpt>
      <trkpt lat="45.00966" lon="2.88631">
        <ele>1265</ele>
        <time>2015-04-28T14:37:46Z</time>
      </trkpt>
      <trkpt lat="45.00973" lon="2.88626">
        <ele>1272.22</ele>
        <time>2015-04-28T14:37:56Z</time>
      </trkpt>
      <trkpt lat="45.00986" lon="2.88629">
        <ele>1269.56</ele>
        <time>2015-04-28T14:38:06Z</time>
      </trkpt>
      <trkpt lat="45.01" lon="2.88635">
        <ele>1267.43</ele>
        <time>2015-04-28T14:38:16Z</time>
      </trkpt>
      <trkpt lat="45.01012" lon="2.88642">
        <ele>1266</ele>
        <time>2015-04-28T14:38:26Z</time>
      </trkpt>
      <trkpt lat="45.01022" lon="2.88646">
        <ele>1263.07</ele>
        <time>2015-04-28T14:38:36Z</time>
      </trkpt>
      <trkpt lat="45.01033" lon="2.8865">
        <ele>1260.38</ele>
        <time>2015-04-28T14:38:46Z</time>
      </trkpt>
      <trkpt lat="45.01046" lon="2.88658">
        <ele>1260.11</ele>
        <time>2015-04-28T14:38:56Z</time>
      </trkpt>
      <trkpt lat="45.01062" lon="2.88663">
        <ele>1264.01</ele>
        <time>2015-04-28T14:39:06Z</time>
      </trkpt>
      <trkpt lat="45.01075" lon="2.88671">
        <ele>1261.25</ele>
        <time>2015-04-28T14:39:16Z</time>
      </trkpt>
      <trkpt lat="45.01088" lon="2.88682">
        <ele>1260.29</ele>
        <time>2015-04-28T14:39:26Z</time>
      </trkpt>
      <trkpt lat="45.01097" lon="2.88689">
        <ele>1254</ele>
        <time>2015-04-28T14:39:36Z</time>
      </trkpt>
      <trkpt lat="45.01111" lon="2.88697">
        <ele>1255.06</ele>
        <time>2015-04-28T14:39:46Z</time>
      </trkpt>
      <trkpt lat="45.01122" lon="2.88703">
        <ele>1255.92</ele>
        <time>2015-04-28T14:39:56Z</time>
      </trkpt>
      <trkpt lat="45.01136" lon="2.88707">
        <ele>1262.94</ele>
        <time>2015-04-28T14:40:06Z</time>
      </trkpt>
      <trkpt lat="45.01147" lon="2.88715">
        <ele>1262.06</ele>
        <time>2015-04-28T14:40:16Z</time>
      </trkpt>
      <trkpt lat="45.01157" lon="2.88723">
        <ele>1261.75</ele>
        <time>2015-04-28T14:40:26Z</time>
      </trkpt>
      <trkpt lat="45.01167" lon="2.88732">
        <ele>1256.08</ele>
        <time>2015-04-28T14:40:36Z</time>
      </trkpt>
      <trkpt lat="45.01179" lon="2.88741">
        <ele>1256</ele>
        <time>2015-04-28T14:40:46Z</time>
      </trkpt>
      <trkpt lat="45.01189" lon="2.8875">
        <ele>1258.17</ele>
        <time>2015-04-28T14:40:56Z</time>
      </trkpt>
      <trkpt lat="45.01201" lon="2.88759">
        <ele>1259.01</ele>
        <time>2015-04-28T14:41:06Z</time>
      </trkpt>
      <trkpt lat="45.01228" lon="2.88745">
        <ele>1234.5</ele>
        <time>2015-04-28T14:41:47Z</time>
      </trkpt>
      <trkpt lat="45.01241" lon="2.88785">
        <ele>1235.5</ele>
        <time>2015-04-28T14:41:57Z</time>
      </trkpt>
      <trkpt lat="45.01251" lon="2.88812">
        <ele>1241.17</ele>
        <time>2015-04-28T14:42:07Z</time>
      </trkpt>
      <trkpt lat="45.01259" lon="2.88832">
        <ele>1244.22</ele>
        <time>2015-04-28T14:42:17Z</time>
      </trkpt>
      <trkpt lat="45.01267" lon="2.88845">
        <ele>1244.51</ele>
        <time>2015-04-28T14:42:27Z</time>
      </trkpt>
      <trkpt lat="45.01272" lon="2.8886">
        <ele>1249.98</ele>
        <time>2015-04-28T14:42:37Z</time>
      </trkpt>
      <trkpt lat="45.01273" lon="2.88862">
        <ele>1251.73</ele>
        <time>2015-04-28T14:42:47Z</time>
      </trkpt>
      <trkpt lat="45.01273" lon="2.88864">
        <ele>1252</ele>
        <time>2015-04-28T14:43:56Z</time>
      </trkpt>
      <trkpt lat="45.01273" lon="2.8887">
        <ele>1255.93</ele>
        <time>2015-04-28T14:44:06Z</time>
      </trkpt>
      <trkpt lat="45.01275" lon="2.88874">
        <ele>1258</ele>
        <time>2015-04-28T14:44:16Z</time>
      </trkpt>
      <trkpt lat="45.01275" lon="2.88893">
        <ele>1260.99</ele>
        <time>2015-04-28T14:44:26Z</time>
      </trkpt>
      <trkpt lat="45.01277" lon="2.88911">
        <ele>1261</ele>
        <time>2015-04-28T14:44:36Z</time>
      </trkpt>
      <trkpt lat="45.01279" lon="2.88915">
        <ele>1260</ele>
        <time>2015-04-28T14:44:46Z</time>
      </trkpt>
      <trkpt lat="45.01277" lon="2.88932">
        <ele>1259.02</ele>
        <time>2015-04-28T14:44:56Z</time>
      </trkpt>
      <trkpt lat="45.01279" lon="2.88949">
        <ele>1261.93</ele>
        <time>2015-04-28T14:45:06Z</time>
      </trkpt>
      <trkpt lat="45.0128" lon="2.88968">
        <ele>1260.25</ele>
        <time>2015-04-28T14:45:16Z</time>
      </trkpt>
      <trkpt lat="45.0128" lon="2.8899">
        <ele>1263.04</ele>
        <time>2015-04-28T14:45:26Z</time>
      </trkpt>
      <trkpt lat="45.01279" lon="2.89006">
        <ele>1260.25</ele>
        <time>2015-04-28T14:45:36Z</time>
      </trkpt>
      <trkpt lat="45.01279" lon="2.89011">
        <ele>1259.07</ele>
        <time>2015-04-28T14:45:46Z</time>
      </trkpt>
      <trkpt lat="45.01273" lon="2.89021">
        <ele>1258</ele>
        <time>2015-04-28T14:45:56Z</time>
      </trkpt>
      <trkpt lat="45.01267" lon="2.89036">
        <ele>1259.93</ele>
        <time>2015-04-28T14:46:06Z</time>
      </trkpt>
      <trkpt lat="45.01243" lon="2.89087">
        <ele>1241.95</ele>
        <time>2015-04-28T14:46:47Z</time>
      </trkpt>
      <trkpt lat="45.01242" lon="2.89108">
        <ele>1241.99</ele>
        <time>2015-04-28T14:46:57Z</time>
      </trkpt>
      <trkpt lat="45.01238" lon="2.89124">
        <ele>1247.95</ele>
        <time>2015-04-28T14:47:07Z</time>
      </trkpt>
      <trkpt lat="45.01234" lon="2.89143">
        <ele>1248.75</ele>
        <time>2015-04-28T14:47:17Z</time>
      </trkpt>
      <trkpt lat="45.01227" lon="2.89158">
        <ele>1250</ele>
        <time>2015-04-28T14:47:27Z</time>
      </trkpt>
      <trkpt lat="45.01221" lon="2.89176">
        <ele>1252.75</ele>
        <time>2015-04-28T14:47:37Z</time>
      </trkpt>
      <trkpt lat="45.01215" lon="2.89192">
        <ele>1252.01</ele>
        <time>2015-04-28T14:47:47Z</time>
      </trkpt>
      <trkpt lat="45.01209" lon="2.89207">
        <ele>1250.94</ele>
        <time>2015-04-28T14:47:57Z</time>
      </trkpt>
      <trkpt lat="45.01203" lon="2.89224">
        <ele>1253</ele>
        <time>2015-04-28T14:48:07Z</time>
      </trkpt>
      <trkpt lat="45.01197" lon="2.8924">
        <ele>1252.25</ele>
        <time>2015-04-28T14:48:17Z</time>
      </trkpt>
      <trkpt lat="45.01191" lon="2.89256">
        <ele>1252.75</ele>
        <time>2015-04-28T14:48:27Z</time>
      </trkpt>
      <trkpt lat="45.01186" lon="2.89271">
        <ele>1253</ele>
        <time>2015-04-28T14:48:37Z</time>
      </trkpt>
      <trkpt lat="45.0118" lon="2.89284">
        <ele>1252.99</ele>
        <time>2015-04-28T14:48:47Z</time>
      </trkpt>
      <trkpt lat="45.01173" lon="2.89299">
        <ele>1252.98</ele>
        <time>2015-04-28T14:48:57Z</time>
      </trkpt>
      <trkpt lat="45.01168" lon="2.89315">
        <ele>1252.19</ele>
        <time>2015-04-28T14:49:07Z</time>
      </trkpt>
      <trkpt lat="45.01163" lon="2.89328">
        <ele>1252.01</ele>
        <time>2015-04-28T14:49:17Z</time>
      </trkpt>
      <trkpt lat="45.01155" lon="2.89345">
        <ele>1251.02</ele>
        <time>2015-04-28T14:49:27Z</time>
      </trkpt>
      <trkpt lat="45.01148" lon="2.89359">
        <ele>1250.99</ele>
        <time>2015-04-28T14:49:37Z</time>
      </trkpt>
      <trkpt lat="45.01144" lon="2.89365">
        <ele>1250.8</ele>
        <time>2015-04-28T14:49:47Z</time>
      </trkpt>
      <trkpt lat="45.01144" lon="2.89364">
        <ele>1250</ele>
        <time>2015-04-28T14:49:57Z</time>
      </trkpt>
      <trkpt lat="45.01143" lon="2.89366">
        <ele>1249.25</ele>
        <time>2015-04-28T14:50:12Z</time>
      </trkpt>
      <trkpt lat="45.01134" lon="2.89381">
        <ele>1249</ele>
        <time>2015-04-28T14:50:22Z</time>
      </trkpt>
      <trkpt lat="45.01126" lon="2.89395">
        <ele>1247</ele>
        <time>2015-04-28T14:50:32Z</time>
      </trkpt>
      <trkpt lat="45.01117" lon="2.89408">
        <ele>1245.95</ele>
        <time>2015-04-28T14:50:42Z</time>
      </trkpt>
      <trkpt lat="45.01111" lon="2.89419">
        <ele>1242.5</ele>
        <time>2015-04-28T14:50:52Z</time>
      </trkpt>
      <trkpt lat="45.01112" lon="2.89417">
        <ele>1241.25</ele>
        <time>2015-04-28T14:51:04Z</time>
      </trkpt>
      <trkpt lat="45.01111" lon="2.89416">
        <ele>1241</ele>
        <time>2015-04-28T14:51:33Z</time>
      </trkpt>
      <trkpt lat="45.01098" lon="2.89424">
        <ele>1241.44</ele>
        <time>2015-04-28T14:51:43Z</time>
      </trkpt>
      <trkpt lat="45.0109" lon="2.89432">
        <ele>1240</ele>
        <time>2015-04-28T14:51:53Z</time>
      </trkpt>
      <trkpt lat="45.01089" lon="2.89437">
        <ele>1238</ele>
        <time>2015-04-28T14:52:03Z</time>
      </trkpt>
      <trkpt lat="45.01091" lon="2.89437">
        <ele>1237</ele>
        <time>2015-04-28T14:52:13Z</time>
      </trkpt>
      <trkpt lat="45.0109" lon="2.89435">
        <ele>1236.07</ele>
        <time>2015-04-28T14:52:40Z</time>
      </trkpt>
      <trkpt lat="45.0109" lon="2.89434">
        <ele>1234</ele>
        <time>2015-04-28T14:52:50Z</time>
      </trkpt>
      <trkpt lat="45.01089" lon="2.89436">
        <ele>1234.75</ele>
        <time>2015-04-28T14:53:04Z</time>
      </trkpt>
      <trkpt lat="45.01088" lon="2.89439">
        <ele>1237.74</ele>
        <time>2015-04-28T14:53:14Z</time>
      </trkpt>
      <trkpt lat="45.01088" lon="2.8944">
        <ele>1238.75</ele>
        <time>2015-04-28T14:53:28Z</time>
      </trkpt>
      <trkpt lat="45.01084" lon="2.8945">
        <ele>1238.25</ele>
        <time>2015-04-28T14:53:38Z</time>
      </trkpt>
      <trkpt lat="45.01079" lon="2.89465">
        <ele>1236.75</ele>
        <time>2015-04-28T14:53:48Z</time>
      </trkpt>
      <trkpt lat="45.01073" lon="2.89481">
        <ele>1236</ele>
        <time>2015-04-28T14:53:58Z</time>
      </trkpt>
      <trkpt lat="45.01068" lon="2.89494">
        <ele>1235.06</ele>
        <time>2015-04-28T14:54:08Z</time>
      </trkpt>
      <trkpt lat="45.01064" lon="2.89507">
        <ele>1230</ele>
        <time>2015-04-28T14:54:18Z</time>
      </trkpt>
      <trkpt lat="45.01057" lon="2.8952">
        <ele>1229.25</ele>
        <time>2015-04-28T14:54:28Z</time>
      </trkpt>
      <trkpt lat="45.01052" lon="2.89536">
        <ele>1228.25</ele>
        <time>2015-04-28T14:54:38Z</time>
      </trkpt>
      <trkpt lat="45.01046" lon="2.89547">
        <ele>1225.02</ele>
        <time>2015-04-28T14:54:48Z</time>
      </trkpt>
      <trkpt lat="45.01044" lon="2.89563">
        <ele>1223.27</ele>
        <time>2015-04-28T14:54:58Z</time>
      </trkpt>
      <trkpt lat="45.01048" lon="2.89574">
        <ele>1221.47</ele>
        <time>2015-04-28T14:55:08Z</time>
      </trkpt>
      <trkpt lat="45.0106" lon="2.89574">
        <ele>1218.94</ele>
        <time>2015-04-28T14:55:18Z</time>
      </trkpt>
      <trkpt lat="45.01073" lon="2.89576">
        <ele>1221.73</ele>
        <time>2015-04-28T14:55:28Z</time>
      </trkpt>
      <trkpt lat="45.01075" lon="2.89589">
        <ele>1220</ele>
        <time>2015-04-28T14:55:38Z</time>
      </trkpt>
      <trkpt lat="45.01069" lon="2.89602">
        <ele>1217.77</ele>
        <time>2015-04-28T14:55:48Z</time>
      </trkpt>
      <trkpt lat="45.01061" lon="2.89616">
        <ele>1214.05</ele>
        <time>2015-04-28T14:55:58Z</time>
      </trkpt>
      <trkpt lat="45.01055" lon="2.89631">
        <ele>1215.75</ele>
        <time>2015-04-28T14:56:08Z</time>
      </trkpt>
      <trkpt lat="45.01048" lon="2.89646">
        <ele>1215</ele>
        <time>2015-04-28T14:56:18Z</time>
      </trkpt>
      <trkpt lat="45.01041" lon="2.8966">
        <ele>1213.02</ele>
        <time>2015-04-28T14:56:28Z</time>
      </trkpt>
      <trkpt lat="45.01035" lon="2.89676">
        <ele>1213.06</ele>
        <time>2015-04-28T14:56:38Z</time>
      </trkpt>
      <trkpt lat="45.01029" lon="2.8969">
        <ele>1213</ele>
        <time>2015-04-28T14:56:48Z</time>
      </trkpt>
      <trkpt lat="45.01025" lon="2.89704">
        <ele>1212</ele>
        <time>2015-04-28T14:56:58Z</time>
      </trkpt>
      <trkpt lat="45.01019" lon="2.89717">
        <ele>1210.06</ele>
        <time>2015-04-28T14:57:08Z</time>
      </trkpt>
      <trkpt lat="45.01013" lon="2.89731">
        <ele>1209</ele>
        <time>2015-04-28T14:57:18Z</time>
      </trkpt>
      <trkpt lat="45.01008" lon="2.89747">
        <ele>1209</ele>
        <time>2015-04-28T14:57:28Z</time>
      </trkpt>
      <trkpt lat="45.01002" lon="2.89762">
        <ele>1208</ele>
        <time>2015-04-28T14:57:38Z</time>
      </trkpt>
      <trkpt lat="45.00995" lon="2.89775">
        <ele>1207.19</ele>
        <time>2015-04-28T14:57:48Z</time>
      </trkpt>
      <trkpt lat="45.00988" lon="2.89788">
        <ele>1206.21</ele>
        <time>2015-04-28T14:57:58Z</time>
      </trkpt>
      <trkpt lat="45.00982" lon="2.89804">
        <ele>1209</ele>
        <time>2015-04-28T14:58:08Z</time>
      </trkpt>
      <trkpt lat="45.00973" lon="2.89816">
        <ele>1208.19</ele>
        <time>2015-04-28T14:58:18Z</time>
      </trkpt>
      <trkpt lat="45.00964" lon="2.89829">
        <ele>1207</ele>
        <time>2015-04-28T14:58:28Z</time>
      </trkpt>
      <trkpt lat="45.00955" lon="2.89841">
        <ele>1207.19</ele>
        <time>2015-04-28T14:58:38Z</time>
      </trkpt>
      <trkpt lat="45.00946" lon="2.89853">
        <ele>1207</ele>
        <time>2015-04-28T14:58:48Z</time>
      </trkpt>
      <trkpt lat="45.00937" lon="2.89863">
        <ele>1204.06</ele>
        <time>2015-04-28T14:58:58Z</time>
      </trkpt>
      <trkpt lat="45.00927" lon="2.89872">
        <ele>1203</ele>
        <time>2015-04-28T14:59:08Z</time>
      </trkpt>
      <trkpt lat="45.00919" lon="2.89882">
        <ele>1202.08</ele>
        <time>2015-04-28T14:59:18Z</time>
      </trkpt>
      <trkpt lat="45.0091" lon="2.89896">
        <ele>1204</ele>
        <time>2015-04-28T14:59:28Z</time>
      </trkpt>
      <trkpt lat="45.00903" lon="2.8991">
        <ele>1205</ele>
        <time>2015-04-28T14:59:38Z</time>
      </trkpt>
      <trkpt lat="45.00895" lon="2.89923">
        <ele>1203.02</ele>
        <time>2015-04-28T14:59:48Z</time>
      </trkpt>
      <trkpt lat="45.00886" lon="2.89933">
        <ele>1201.01</ele>
        <time>2015-04-28T14:59:58Z</time>
      </trkpt>
      <trkpt lat="45.00878" lon="2.89944">
        <ele>1198.82</ele>
        <time>2015-04-28T15:00:08Z</time>
      </trkpt>
      <trkpt lat="45.0087" lon="2.89956">
        <ele>1199.19</ele>
        <time>2015-04-28T15:00:18Z</time>
      </trkpt>
      <trkpt lat="45.00862" lon="2.89968">
        <ele>1198.18</ele>
        <time>2015-04-28T15:00:28Z</time>
      </trkpt>
      <trkpt lat="45.00853" lon="2.8998">
        <ele>1198.8</ele>
        <time>2015-04-28T15:00:38Z</time>
      </trkpt>
      <trkpt lat="45.00843" lon="2.89991">
        <ele>1196</ele>
        <time>2015-04-28T15:00:48Z</time>
      </trkpt>
      <trkpt lat="45.00834" lon="2.90002">
        <ele>1195.02</ele>
        <time>2015-04-28T15:00:58Z</time>
      </trkpt>
      <trkpt lat="45.00825" lon="2.90014">
        <ele>1195</ele>
        <time>2015-04-28T15:01:08Z</time>
      </trkpt>
      <trkpt lat="45.00816" lon="2.90025">
        <ele>1195</ele>
        <time>2015-04-28T15:01:18Z</time>
      </trkpt>
      <trkpt lat="45.00808" lon="2.90036">
        <ele>1193.02</ele>
        <time>2015-04-28T15:01:28Z</time>
      </trkpt>
      <trkpt lat="45.00798" lon="2.90049">
        <ele>1193.06</ele>
        <time>2015-04-28T15:01:38Z</time>
      </trkpt>
      <trkpt lat="45.0079" lon="2.9006">
        <ele>1191.19</ele>
        <time>2015-04-28T15:01:48Z</time>
      </trkpt>
      <trkpt lat="45.00783" lon="2.90072">
        <ele>1190.25</ele>
        <time>2015-04-28T15:01:58Z</time>
      </trkpt>
      <trkpt lat="45.00776" lon="2.90087">
        <ele>1190</ele>
        <time>2015-04-28T15:02:08Z</time>
      </trkpt>
      <trkpt lat="45.00771" lon="2.90102">
        <ele>1186.25</ele>
        <time>2015-04-28T15:02:18Z</time>
      </trkpt>
      <trkpt lat="45.00767" lon="2.90115">
        <ele>1185.02</ele>
        <time>2015-04-28T15:02:28Z</time>
      </trkpt>
      <trkpt lat="45.00766" lon="2.90126">
        <ele>1180.25</ele>
        <time>2015-04-28T15:02:38Z</time>
      </trkpt>
      <trkpt lat="45.00768" lon="2.90142">
        <ele>1178.81</ele>
        <time>2015-04-28T15:02:48Z</time>
      </trkpt>
      <trkpt lat="45.0077" lon="2.90157">
        <ele>1176</ele>
        <time>2015-04-28T15:02:58Z</time>
      </trkpt>
      <trkpt lat="45.00773" lon="2.90177">
        <ele>1180.92</ele>
        <time>2015-04-28T15:03:08Z</time>
      </trkpt>
      <trkpt lat="45.00772" lon="2.90193">
        <ele>1175.27</ele>
        <time>2015-04-28T15:03:18Z</time>
      </trkpt>
      <trkpt lat="45.0077" lon="2.90201">
        <ele>1174</ele>
        <time>2015-04-28T15:03:28Z</time>
      </trkpt>
      <trkpt lat="45.00766" lon="2.90217">
        <ele>1174.81</ele>
        <time>2015-04-28T15:03:38Z</time>
      </trkpt>
      <trkpt lat="45.0076" lon="2.90235">
        <ele>1176.98</ele>
        <time>2015-04-28T15:03:48Z</time>
      </trkpt>
      <trkpt lat="45.00751" lon="2.90249">
        <ele>1174.64</ele>
        <time>2015-04-28T15:03:58Z</time>
      </trkpt>
      <trkpt lat="45.00745" lon="2.90264">
        <ele>1177</ele>
        <time>2015-04-28T15:04:08Z</time>
      </trkpt>
      <trkpt lat="45.00737" lon="2.9028">
        <ele>1181.74</ele>
        <time>2015-04-28T15:04:18Z</time>
      </trkpt>
      <trkpt lat="45.00732" lon="2.90294">
        <ele>1182.57</ele>
        <time>2015-04-28T15:04:28Z</time>
      </trkpt>
      <trkpt lat="45.00727" lon="2.90306">
        <ele>1179.12</ele>
        <time>2015-04-28T15:04:38Z</time>
      </trkpt>
      <trkpt lat="45.0072" lon="2.9032">
        <ele>1177.06</ele>
        <time>2015-04-28T15:04:48Z</time>
      </trkpt>
      <trkpt lat="45.00713" lon="2.90335">
        <ele>1181</ele>
        <time>2015-04-28T15:04:58Z</time>
      </trkpt>
      <trkpt lat="45.00705" lon="2.90351">
        <ele>1179.33</ele>
        <time>2015-04-28T15:05:08Z</time>
      </trkpt>
      <trkpt lat="45.00699" lon="2.90365">
        <ele>1175.83</ele>
        <time>2015-04-28T15:05:18Z</time>
      </trkpt>
      <trkpt lat="45.00693" lon="2.90379">
        <ele>1175.75</ele>
        <time>2015-04-28T15:05:28Z</time>
      </trkpt>
      <trkpt lat="45.00699" lon="2.90392">
        <ele>1175.92</ele>
        <time>2015-04-28T15:05:38Z</time>
      </trkpt>
      <trkpt lat="45.00705" lon="2.90406">
        <ele>1175.5</ele>
        <time>2015-04-28T15:05:48Z</time>
      </trkpt>
      <trkpt lat="45.00712" lon="2.90416">
        <ele>1171.83</ele>
        <time>2015-04-28T15:05:58Z</time>
      </trkpt>
      <trkpt lat="45.00721" lon="2.90495">
        <ele>1185.25</ele>
        <time>2015-04-28T15:06:38Z</time>
      </trkpt>
      <trkpt lat="45.00715" lon="2.90512">
        <ele>1185.25</ele>
        <time>2015-04-28T15:06:48Z</time>
      </trkpt>
      <trkpt lat="45.00705" lon="2.90493">
        <ele>1159.66</ele>
        <time>2015-04-28T15:06:58Z</time>
      </trkpt>
      <trkpt lat="45.00704" lon="2.90509">
        <ele>1159.82</ele>
        <time>2015-04-28T15:07:08Z</time>
      </trkpt>
      <trkpt lat="45.00703" lon="2.90515">
        <ele>1160.75</ele>
        <time>2015-04-28T15:07:18Z</time>
      </trkpt>
      <trkpt lat="45.00691" lon="2.90517">
        <ele>1162.77</ele>
        <time>2015-04-28T15:07:28Z</time>
      </trkpt>
      <trkpt lat="45.00679" lon="2.90518">
        <ele>1165.94</ele>
        <time>2015-04-28T15:07:38Z</time>
      </trkpt>
      <trkpt lat="45.00678" lon="2.90522">
        <ele>1164.01</ele>
        <time>2015-04-28T15:07:48Z</time>
      </trkpt>
      <trkpt lat="45.0067" lon="2.90517">
        <ele>1164</ele>
        <time>2015-04-28T15:07:58Z</time>
      </trkpt>
      <trkpt lat="45.00659" lon="2.90509">
        <ele>1166.91</ele>
        <time>2015-04-28T15:08:08Z</time>
      </trkpt>
      <trkpt lat="45.00647" lon="2.90503">
        <ele>1167.01</ele>
        <time>2015-04-28T15:08:18Z</time>
      </trkpt>
      <trkpt lat="45.00635" lon="2.90503">
        <ele>1164.09</ele>
        <time>2015-04-28T15:08:28Z</time>
      </trkpt>
      <trkpt lat="45.00627" lon="2.90497">
        <ele>1163.05</ele>
        <time>2015-04-28T15:08:38Z</time>
      </trkpt>
      <trkpt lat="45.00615" lon="2.90501">
        <ele>1159.01</ele>
        <time>2015-04-28T15:08:48Z</time>
      </trkpt>
      <trkpt lat="45.00606" lon="2.90504">
        <ele>1157.3</ele>
        <time>2015-04-28T15:08:58Z</time>
      </trkpt>
      <trkpt lat="45.00605" lon="2.90503">
        <ele>1156.06</ele>
        <time>2015-04-28T15:09:08Z</time>
      </trkpt>
      <trkpt lat="45.00601" lon="2.90505">
        <ele>1156.8</ele>
        <time>2015-04-28T15:09:18Z</time>
      </trkpt>
      <trkpt lat="45.0059" lon="2.90509">
        <ele>1156.77</ele>
        <time>2015-04-28T15:09:28Z</time>
      </trkpt>
      <trkpt lat="45.00577" lon="2.90509">
        <ele>1157.76</ele>
        <time>2015-04-28T15:09:38Z</time>
      </trkpt>
      <trkpt lat="45.00565" lon="2.90514">
        <ele>1156.08</ele>
        <time>2015-04-28T15:09:48Z</time>
      </trkpt>
      <trkpt lat="45.00554" lon="2.90514">
        <ele>1150.02</ele>
        <time>2015-04-28T15:09:58Z</time>
      </trkpt>
      <trkpt lat="45.00541" lon="2.90517">
        <ele>1152.93</ele>
        <time>2015-04-28T15:10:08Z</time>
      </trkpt>
      <trkpt lat="45.0053" lon="2.90517">
        <ele>1152.07</ele>
        <time>2015-04-28T15:10:18Z</time>
      </trkpt>
      <trkpt lat="45.0052" lon="2.90519">
        <ele>1152.16</ele>
        <time>2015-04-28T15:10:28Z</time>
      </trkpt>
      <trkpt lat="45.00508" lon="2.90521">
        <ele>1152.73</ele>
        <time>2015-04-28T15:10:38Z</time>
      </trkpt>
      <trkpt lat="45.00494" lon="2.90525">
        <ele>1152.98</ele>
        <time>2015-04-28T15:10:48Z</time>
      </trkpt>
      <trkpt lat="45.00483" lon="2.90531">
        <ele>1152.82</ele>
        <time>2015-04-28T15:10:58Z</time>
      </trkpt>
      <trkpt lat="45.00458" lon="2.90537">
        <ele>1143.95</ele>
        <time>2015-04-28T15:11:38Z</time>
      </trkpt>
      <trkpt lat="45.00452" lon="2.90573">
        <ele>1147.25</ele>
        <time>2015-04-28T15:11:48Z</time>
      </trkpt>
      <trkpt lat="45.00448" lon="2.90591">
        <ele>1146.52</ele>
        <time>2015-04-28T15:11:58Z</time>
      </trkpt>
      <trkpt lat="45.00444" lon="2.90607">
        <ele>1144.31</ele>
        <time>2015-04-28T15:12:08Z</time>
      </trkpt>
      <trkpt lat="45.00439" lon="2.90625">
        <ele>1147.22</ele>
        <time>2015-04-28T15:12:18Z</time>
      </trkpt>
      <trkpt lat="45.00436" lon="2.90638">
        <ele>1144.75</ele>
        <time>2015-04-28T15:12:28Z</time>
      </trkpt>
      <trkpt lat="45.00432" lon="2.90649">
        <ele>1149.19</ele>
        <time>2015-04-28T15:12:38Z</time>
      </trkpt>
      <trkpt lat="45.00423" lon="2.9066">
        <ele>1146.76</ele>
        <time>2015-04-28T15:12:48Z</time>
      </trkpt>
      <trkpt lat="45.00417" lon="2.90671">
        <ele>1146.81</ele>
        <time>2015-04-28T15:12:58Z</time>
      </trkpt>
      <trkpt lat="45.00414" lon="2.90675">
        <ele>1147.94</ele>
        <time>2015-04-28T15:13:07Z</time>
      </trkpt>
    </trkseg>
  </trk>
</gpx>